GFSGL_500_rhum_000.txt.gz
RH
97 100 100 100 100 100 100 100 99 92 87 81 85 85 74 63 54 41 32 23 16 14 12 9 7 6 7 11 25 34 32 21 16 37 46 27 29 99 100 100 100 100 100
100 100 100 100 100 100 100 100 97 89 86 84 85 72 61 47 38 29 23 18 10 7 6 6 5 5 6 6 15 31 37 38 25 22 55 49 35 100 100 100 100 100 100
100 100 100 100 100 100 100 100 96 88 87 81 66 52 44 38 30 17 10 8 7 8 10 11 13 16 18 16 12 16 34 38 45 26 38 64 52 51 100 100 100 100 92
100 100 100 100 100 98 100 94 93 91 74 62 59 50 38 18 10 7 8 10 11 17 25 30 34 37 37 34 24 18 17 33 37 46 38 64 61 50 84 100 100 100 100
100 100 100 100 100 100 96 99 88 69 57 48 41 20 10 7 9 12 14 32 45 45 52 60 65 68 71 75 51 33 25 18 32 37 42 54 76 48 49 95 100 100 100
98 96 100 100 94 98 100 79 58 39 37 25 11 7 7 13 13 28 59 58 64 69 85 92 99 95 87 93 86 60 21 26 17 32 35 44 62 75 48 68 96 100 100
91 99 100 92 97 99 72 44 26 26 15 9 6 12 13 24 57 74 91 72 69 69 60 76 85 86 90 94 95 95 90 28 17 17 26 31 49 75 69 53 81 98 99
100 100 95 97 98 66 31 22 20 11 8 7 14 17 33 80 70 76 81 74 70 63 69 91 99 100 100 100 100 92 72 47 17 16 13 22 28 54 86 61 54 100 98
100 98 98 98 57 24 19 16 10 8 7 16 23 36 63 61 65 76 71 71 70 73 77 98 100 100 100 100 90 78 75 21 14 13 21 10 17 23 71 80 57 55 97
98 99 96 52 22 19 14 10 8 8 16 21 46 52 49 65 80 81 90 96 100 100 100 100 100 97 100 100 88 94 84 29 16 21 35 27 10 17 29 83 71 54 69
99 93 48 23 20 13 10 9 8 15 19 51 61 57 70 72 78 94 100 100 98 100 100 100 96 100 100 100 100 100 82 42 18 19 43 45 16 10 16 46 77 61 50
91 44 23 19 13 10 9 10 16 17 42 64 56 60 59 66 80 89 100 100 100 100 100 100 100 100 100 92 94 100 93 73 57 14 20 29 21 12 13 15 53 62 55
41 26 19 13 10 10 12 15 18 28 57 57 47 51 87 86 99 100 100 100 100 100 96 100 100 95 90 87 100 90 100 99 80 28 13 16 13 16 14 13 19 50 51
27 20 13 11 11 14 18 20 17 42 56 46 52 89 99 100 100 100 100 100 100 100 99 81 90 94 77 65 42 41 79 92 100 34 24 28 26 21 17 14 16 21 41
22 14 12 11 14 23 24 21 19 48 43 60 98 100 100 100 98 98 100 100 97 78 84 98 98 100 90 66 71 85 88 77 92 55 18 11 19 20 19 16 13 16 21
16 13 11 13 24 30 29 23 27 39 81 94 100 96 96 100 93 100 100 99 100 96 92 84 76 86 100 100 98 100 100 71 70 100 52 12 8 11 13 16 14 13 18
14 12 13 20 41 44 35 22 44 63 50 100 97 98 100 100 98 100 100 100 100 100 100 100 95 70 79 100 100 100 93 100 80 75 55 79 27 16 19 20 18 14 13
13 13 15 29 46 42 20 20 52 99 98 100 100 100 100 100 100 100 100 100 100 100 100 100 100 100 100 100 99 100 100 100 100 100 100 100 97 67 18 15 16 13 12
14 15 19 38 52 43 17 38 83 100 100 98 100 100 100 100 100 100 100 100 100 100 100 93 100 100 100 99 99 99 99 100 100 99 95 90 88 98 93 100 88 24 34
15 16 24 43 65 28 20 63 100 100 100 100 100 100 100 100 100 100 100 100 100 100 98 97 96 97 98 100 100 99 100 100 100 99 100 100 78 89 96 99 87 87 100
17 16 29 47 70 25 37 80 100 100 100 100 100 100 100 100 100 100 100 100 100 100 100 100 100 100 100 100 98 96 100 100 100 100 100 67 68 94 100 100 100 100 100
19 18 35 57 72 30 60 95 99 100 100 100 100 100 100 100 100 100 100 100 100 96 89 93 95 99 100 100 100 100 100 100 99 98 98 96 76 98 100 100 100 100 100
20 23 45 70 72 34 65 94 100 99 100 100 100 100 100 100 100 100 100 100 100 99 99 100 97 96 100 100 100 100 100 100 100 100 100 100 100 100 100 100 100 100 100
24 40 63 86 74 44 58 99 100 99 100 98 100 100 100 100 100 100 100 100 100 100 100 100 100 100 100 100 100 100 100 100 100 100 100 100 100 100 100 100 100 100 100
31 66 86 96 78 60 50 100 100 100 100 92 99 100 100 100 100 100 100 100 99 99 100 100 100 100 100 100 100 100 100 100 100 98 100 100 99 97 97 96 98 99 100
52 87 100 94 84 70 53 100 100 100 100 100 100 100 100 100 100 100 100 100 100 100 100 100 100 100 100 100 100 100 100 100 100 98 96 94 90 87 83 80 78 75 72

GFSGL_500_rhum_003.txt.gz
RH
95 95 90 95 92 89 100 100 100 100 100 99 99 98 91 85 82 74 63 54 46 35 22 16 12 10 10 9 7 7 6 5 5 5 5 4 4 5 5 9 54 26 21
98 87 86 89 83 97 100 100 100 100 100 99 94 86 86 74 62 52 40 20 17 18 17 14 10 9 8 7 7 7 7 6 5 5 5 5 6 4 3 12 24 34 52
89 81 86 83 88 100 100 100 100 98 96 89 82 75 61 51 32 19 18 17 14 11 10 9 8 8 9 12 16 16 22 46 34 6 3 4 7 12 6 13 30 36 100
81 83 85 90 99 100 100 100 97 93 85 78 70 56 36 16 18 19 14 11 10 8 7 10 12 15 24 30 32 34 36 34 35 25 9 4 8 25 22 11 31 43 65
76 87 92 98 100 100 97 99 91 82 77 68 41 15 18 20 16 11 9 7 9 10 14 29 47 57 58 54 58 64 58 56 54 45 35 15 12 32 39 24 23 47 43
87 98 100 100 100 98 98 89 84 79 57 13 13 18 14 10 8 7 11 13 30 41 57 69 68 74 80 89 85 76 79 78 73 93 78 32 22 20 42 42 30 67 48
98 100 100 100 100 100 98 87 76 26 7 19 15 11 8 7 10 15 36 52 76 79 67 79 86 76 62 68 95 86 73 74 82 90 78 65 24 22 28 43 43 76 65
100 100 100 100 100 99 86 55 8 11 15 11 9 8 10 13 19 43 65 59 62 69 77 86 77 76 77 82 93 90 88 84 83 96 86 97 89 30 22 34 45 60 92
100 97 100 100 96 82 29 9 15 12 10 9 9 14 14 25 36 57 55 64 68 75 80 95 98 93 100 100 99 94 87 85 92 90 94 72 77 100 33 22 37 47 84
100 100 97 90 76 16 11 15 12 10 10 10 16 18 34 34 51 64 73 73 75 89 100 100 100 100 99 100 100 100 100 98 100 100 98 54 30 76 84 18 25 40 59
99 91 88 77 14 14 15 13 10 10 11 19 24 59 56 40 44 58 66 92 98 98 100 100 99 93 87 100 100 98 99 100 100 100 93 46 27 19 76 42 14 26 37
89 93 76 18 20 17 14 10 11 12 16 24 52 70 53 47 53 86 100 98 98 95 96 100 100 100 100 100 99 89 81 90 100 100 100 63 45 21 37 48 23 14 25
94 80 22 24 19 15 11 11 14 16 19 42 64 60 57 89 100 100 100 100 100 100 97 100 99 100 100 93 90 100 100 100 100 100 100 95 47 22 66 99 57 14 15
83 28 28 21 16 12 12 14 20 16 28 63 75 73 100 100 100 100 100 100 100 88 84 100 100 100 99 91 39 39 44 57 81 99 100 100 86 26 49 98 66 20 10
34 32 25 17 12 12 14 28 28 19 45 60 91 100 100 100 100 98 100 99 96 82 98 100 99 95 100 67 90 75 98 64 41 91 100 100 69 27 38 81 87 36 11
38 29 18 13 12 14 20 37 23 20 44 90 100 100 100 100 100 93 96 93 98 100 100 100 94 81 88 94 82 84 59 82 55 96 92 52 23 44 39 29 30 25 18
33 19 14 13 14 15 33 41 17 23 42 95 100 100 100 100 100 100 100 97 100 100 100 95 88 84 84 77 82 75 79 95 96 82 58 11 8 39 54 60 51 37 25
21 14 13 15 16 20 48 39 22 48 94 87 100 100 100 100 100 100 100 100 100 100 100 98 94 84 70 60 50 72 100 100 100 100 95 64 14 0 9 15 30 33 28
15 15 16 18 16 27 61 33 32 90 100 100 100 100 100 100 100 100 100 100 100 100 100 100 100 100 95 91 66 64 94 100 98 100 100 100 71 13 8 29 32 35 39
16 18 20 19 16 32 67 33 39 98 100 100 100 100 100 100 100 100 100 100 99 100 100 94 94 99 100 85 78 70 87 95 97 100 100 93 100 98 28 24 37 43 38
20 23 23 18 17 37 72 37 50 98 100 100 100 100 100 100 100 100 100 100 100 100 100 100 100 96 97 99 100 95 97 100 100 100 76 85 96 100 100 100 68 42 77
29 29 24 17 27 49 74 40 64 97 100 100 100 100 100 100 100 100 100 100 100 100 100 100 100 100 100 100 100 95 98 100 97 86 100 100 100 100 100 100 100 100 100
38 33 23 26 48 71 79 42 69 98 100 100 100 100 100 100 100 100 100 100 100 100 100 100 100 100 100 100 100 100 100 100 98 94 94 95 94 87 90 96 100 100 100
47 33 27 63 79 93 80 44 79 100 100 100 100 100 100 100 100 100 100 100 100 100 100 100 100 100 100 100 100 100 100 100 100 100 100 100 100 100 100 100 100 99 100
46 34 56 92 100 92 83 48 94 100 100 100 100 100 100 100 100 100 100 100 100 100 100 100 100 100 100 100 100 99 100 100 100 100 100 100 100 100 100 100 100 100 100
44 66 96 100 97 82 85 59 100 100 100 100 100 100 100 100 100 100 100 100 100 100 100 100 100 100 100 100 100 100 100 100 100 100 99 97 91 85 80 75 73 72 73

GFSGL_500_rhum_006.txt.gz
RH
94 95 99 97 80 60 70 85 100 100 100 100 100 100 100 100 100 97 85 81 75 64 59 55 48 42 36 27 17 16 14 13 12 19 19 21 18 18 19 22 21 19 17
83 94 87 83 58 53 70 92 100 100 100 100 100 100 100 100 87 82 78 70 60 49 31 11 4 3 4 4 4 4 5 6 6 5 6 7 9 8 9 12 13 14 14
84 77 69 56 53 62 76 90 100 100 100 100 100 100 92 83 76 70 56 28 4 2 2 4 6 8 8 8 8 7 7 7 7 6 5 5 5 5 5 5 7 7 8
67 64 52 49 64 73 86 100 100 100 100 100 98 92 84 74 44 8 3 6 9 9 9 9 7 6 6 7 8 8 10 9 8 9 7 6 6 5 5 5 4 4 4
66 54 46 63 73 91 100 100 100 100 93 94 92 76 33 7 8 12 11 10 9 7 7 10 12 17 19 26 26 34 38 36 33 30 26 17 12 12 7 7 6 5 4
54 48 67 75 84 93 100 100 94 97 96 80 29 9 12 14 12 10 9 8 10 14 26 47 63 59 70 76 69 64 58 54 55 66 68 56 50 54 58 33 16 5 4
51 66 84 97 100 100 100 100 100 94 47 12 14 16 14 11 10 9 13 14 20 44 58 71 81 91 90 79 91 94 76 46 45 68 63 56 65 69 77 99 58 23 6
67 90 100 100 100 100 100 100 81 22 16 18 16 12 10 11 13 16 21 32 42 54 61 73 75 79 84 83 80 71 57 53 47 58 74 67 60 77 99 100 98 50 26
89 100 100 100 100 100 98 63 19 19 18 16 12 11 12 15 24 48 40 41 56 71 70 64 73 74 82 88 87 82 90 94 86 76 66 81 77 83 99 100 89 100 38
100 100 100 100 98 92 55 21 21 19 16 12 12 15 17 23 48 50 32 42 57 57 65 68 86 94 100 98 87 89 77 93 100 100 98 94 100 100 100 100 98 91 92
97 100 100 100 96 57 24 24 20 16 12 12 16 20 28 45 54 53 58 73 84 82 86 93 99 100 100 100 100 92 76 87 93 96 94 96 100 100 100 100 86 78 95
98 100 98 96 67 28 28 22 16 12 12 18 20 25 52 58 69 96 100 96 89 92 100 99 92 100 100 93 78 69 84 92 95 100 100 100 100 100 100 100 92 100 85
100 100 99 75 38 34 24 16 13 12 15 23 23 58 73 80 100 99 98 100 100 100 97 85 98 100 90 86 82 90 99 100 91 69 79 96 100 100 100 100 91 39 33
100 100 82 45 38 28 18 13 13 13 21 22 57 100 91 100 100 97 100 100 100 98 80 92 100 100 96 100 100 90 67 65 98 54 43 68 100 100 100 100 79 35 42
100 84 49 40 29 18 14 13 14 22 22 26 95 92 100 100 100 100 98 100 97 93 97 99 100 100 98 95 100 100 80 57 80 58 60 54 100 100 100 98 81 33 81
80 50 41 29 17 14 13 15 17 41 22 42 92 100 100 100 100 97 94 100 99 95 93 85 84 86 94 82 76 97 53 50 68 86 66 100 100 100 100 75 47 55 100
52 38 26 16 14 14 15 16 27 58 26 70 100 100 100 100 97 100 100 100 100 93 92 92 87 77 49 74 63 45 56 93 100 99 61 87 100 71 58 42 36 71 100
35 22 16 14 15 17 19 17 45 47 41 100 100 100 100 100 100 100 100 100 100 100 100 99 90 82 64 58 63 54 71 83 82 99 100 40 11 18 47 47 44 40 55
20 15 15 16 20 22 18 18 61 43 59 100 100 100 100 99 100 100 100 100 100 100 98 100 92 76 73 56 64 71 91 89 69 84 98 98 34 4 2 14 48 56 47
15 15 16 23 27 24 18 23 71 42 77 100 100 100 100 100 100 100 100 100 100 100 96 99 94 84 76 79 85 84 76 56 58 72 100 100 99 65 16 14 21 22 42
16 19 26 34 31 21 28 42 75 45 87 100 100 100 100 100 100 100 100 100 100 100 98 100 100 94 86 82 75 91 77 64 66 88 98 100 100 100 100 60 36 47 46
22 31 43 43 29 29 63 70 79 47 91 100 100 100 100 100 100 100 100 98 100 100 100 100 100 100 96 85 82 86 90 97 96 97 99 99 99 98 99 100 90 73 65
34 52 58 40 37 77 95 93 82 50 98 100 100 100 100 100 100 100 100 100 99 100 100 100 100 100 100 100 99 93 86 86 91 96 99 100 100 100 98 95 98 100 100
49 67 52 50 80 100 100 90 79 61 100 100 100 100 100 100 100 100 100 100 100 100 100 100 100 100 100 100 100 100 100 100 100 100 100 100 100 100 100 100 100 100 100
62 64 54 92 100 100 88 90 72 95 100 100 100 100 100 100 100 100 100 100 100 100 100 100 100 100 100 100 100 100 100 100 100 100 100 100 100 100 100 100 100 98 93
74 64 79 100 100 98 77 91 80 100 100 100 100 100 100 100 100 100 100 100 100 100 100 100 100 100 100 100 100 100 100 100 100 97 93 85 75 58 50 47 51 61 76

GFSGL_500_rhum_009.txt.gz
RH
68 74 89 96 93 78 65 51 48 75 90 100 100 100 100 100 100 100 100 98 97 97 98 87 78 80 74 69 66 65 66 73 68 68 81 91 98 100 100 99 87 76 66
70 79 86 91 76 61 58 50 71 93 100 100 100 100 100 100 100 100 100 100 97 88 75 69 55 40 28 16 11 10 12 18 32 43 52 58 65 71 83 95 98 89 78
81 82 81 70 66 68 48 45 77 85 100 100 100 100 100 100 100 100 96 77 52 22 8 5 5 6 6 7 6 5 4 4 3 9 19 24 33 37 33 33 43 72 74
86 86 75 71 70 42 46 72 88 98 100 100 100 100 99 97 91 61 24 10 10 12 12 12 11 10 9 8 8 8 8 8 7 6 3 3 5 8 12 12 12 15 26
94 80 76 62 38 34 52 83 84 84 91 94 90 95 94 43 16 14 15 14 13 11 8 8 8 9 11 10 13 13 11 9 7 6 6 6 6 6 4 4 5 6 8
84 77 49 37 41 69 84 82 89 100 97 98 98 47 20 19 17 15 13 10 9 9 13 14 17 37 49 53 57 54 50 49 44 29 17 9 8 8 7 6 6 5 5
73 41 37 55 90 100 100 100 100 100 100 79 27 23 19 17 14 11 10 10 17 29 35 40 53 54 58 64 75 70 69 79 80 83 52 41 38 42 41 30 19 10 7
34 32 47 90 100 100 100 100 100 100 60 27 24 19 15 13 11 10 13 30 42 41 40 50 64 70 67 67 70 73 73 77 76 69 63 54 45 50 61 50 47 47 41
25 56 92 100 100 100 100 100 98 56 28 25 20 15 13 11 10 14 37 40 33 36 46 58 53 44 50 58 41 49 52 71 100 99 84 54 58 45 60 75 59 43 44
54 83 95 98 100 100 100 96 62 30 26 20 15 13 11 10 13 35 43 43 56 70 92 86 84 80 82 94 96 85 81 100 100 99 93 77 76 91 70 56 88 71 56
90 100 100 100 100 100 95 68 35 27 21 15 13 13 13 12 24 47 54 78 82 83 83 90 87 86 70 48 75 94 94 98 93 96 94 84 82 78 96 100 95 92 71
100 100 100 100 100 96 72 39 30 21 15 13 13 17 16 18 48 51 82 88 83 86 90 90 95 86 74 77 95 85 83 74 77 91 100 100 100 100 100 100 100 100 83
100 100 100 100 99 73 42 32 21 15 13 13 14 19 31 67 64 81 88 94 99 98 99 99 100 100 100 100 94 88 91 98 93 72 79 88 80 96 99 97 94 94 96
100 100 100 100 79 47 32 21 15 13 13 13 22 27 84 83 82 90 98 100 100 100 100 100 99 99 100 100 100 100 100 100 99 100 99 72 59 46 42 74 100 100 100
100 100 100 82 46 30 21 15 14 13 13 14 26 84 100 88 88 99 100 100 100 100 98 87 88 82 68 99 100 100 100 100 56 46 48 58 78 77 46 54 100 100 100
97 96 79 43 28 20 15 14 14 16 16 27 31 100 99 100 100 100 100 100 100 98 86 78 65 64 58 63 95 100 99 100 97 100 82 69 58 98 100 100 100 100 100
96 64 33 24 17 15 14 15 18 20 19 46 50 100 100 100 100 100 100 100 100 100 98 78 60 49 50 51 53 59 69 57 58 70 86 43 85 95 98 99 100 100 100
44 28 18 16 15 16 19 22 23 18 35 57 69 100 100 100 100 100 100 100 95 100 100 82 68 54 42 52 55 41 48 60 76 90 89 24 16 34 67 80 84 82 68
22 17 16 16 19 26 32 30 22 19 64 54 100 100 100 100 100 100 100 100 99 100 100 87 77 68 65 46 53 45 60 78 91 90 93 99 31 3 7 34 35 33 32
16 15 17 22 34 43 38 24 32 48 76 58 100 100 100 100 100 100 100 100 100 100 100 97 83 78 78 76 52 55 68 82 98 99 85 84 98 64 14 12 14 43 50
17 21 27 39 56 44 32 48 76 87 75 76 100 100 100 100 100 100 100 100 99 100 100 100 100 93 84 82 79 80 87 84 85 84 95 100 92 88 82 41 42 27 42
24 29 37 60 54 45 63 99 99 96 66 86 100 100 100 100 100 100 100 100 100 100 100 100 100 100 100 93 82 80 81 84 81 84 86 84 88 92 83 86 84 73 58
29 33 59 62 57 90 100 100 98 90 59 96 100 100 100 100 100 100 100 100 100 99 98 100 100 100 100 100 100 98 93 92 89 90 88 92 93 94 98 100 99 97 95
34 55 71 63 94 98 100 92 96 84 61 100 100 100 100 100 100 100 100 100 100 100 100 100 100 100 100 100 100 100 100 100 100 100 100 100 100 100 100 99 99 100 100
50 59 60 82 99 100 99 85 95 78 84 100 100 100 100 100 100 100 100 100 100 100 100 100 100 100 100 100 100 100 100 100 100 100 100 98 92 90 98 100 100 100 100
47 49 49 80 99 100 95 81 94 94 100 100 100 100 100 100 100 100 100 100 100 100 100 100 100 100 100 100 99 99 100 100 100 92 54 22 8 6 6 7 14 41 76

GFSGL_500_rhum_012.txt.gz
RH
46 43 42 46 51 63 82 89 82 70 49 36 51 85 100 100 100 100 100 100 100 100 100 100 99 100 96 94 96 96 90 80 62 58 72 94 100 100 100 100 100 100 90
44 40 35 34 47 76 81 72 60 38 30 36 66 100 100 100 100 100 100 100 98 99 100 100 100 100 90 67 51 48 46 47 51 48 49 61 83 100 99 100 100 100 100
41 42 46 64 76 73 65 48 31 30 43 76 100 100 100 100 100 100 100 99 99 93 61 23 14 13 12 11 10 10 10 10 12 18 26 33 41 54 85 97 100 100 99
54 62 72 68 68 65 44 25 21 48 84 100 100 100 96 93 91 89 84 53 20 15 14 12 12 12 11 11 10 10 9 8 6 5 8 12 18 22 29 47 88 99 100
66 64 66 64 63 40 15 14 47 90 100 90 75 77 84 91 91 49 20 14 12 13 13 11 10 9 8 9 9 9 8 8 7 8 8 7 5 6 12 11 18 45 84
58 63 63 64 31 15 26 69 100 96 91 94 100 100 100 72 28 18 12 13 13 11 9 11 17 19 20 19 28 33 28 25 26 21 10 7 6 7 6 5 6 6 16
66 49 47 36 24 68 100 100 100 100 100 100 100 96 48 27 17 13 14 12 10 10 20 34 37 41 47 58 61 51 59 65 65 56 44 45 41 27 13 7 6 5 5
54 42 33 20 57 98 100 100 100 100 100 100 85 41 25 17 13 14 12 10 12 30 34 33 34 42 49 59 59 62 63 64 66 60 51 62 76 82 57 34 11 7 6
39 23 23 76 100 100 100 100 100 100 96 74 36 25 16 14 13 12 10 11 29 42 60 74 79 82 86 84 45 34 47 62 82 63 65 78 86 78 66 49 42 39 18
12 28 80 95 99 93 98 100 100 90 72 35 25 18 14 14 12 10 12 31 51 70 93 95 96 86 89 99 100 99 84 94 100 96 88 70 78 100 97 56 44 47 54
38 95 100 99 100 100 100 100 94 82 44 27 18 15 14 13 11 12 31 53 67 85 86 86 90 92 91 90 88 74 77 96 100 100 100 96 94 94 100 98 73 39 37
100 100 100 100 100 100 100 97 88 53 30 20 16 14 13 12 12 24 76 74 81 75 75 86 82 76 83 93 100 100 95 94 100 100 100 100 98 99 100 99 94 94 88
100 100 100 100 100 100 98 87 49 29 20 17 14 13 14 15 18 74 94 90 89 81 91 94 97 93 84 76 95 91 91 93 100 100 100 100 99 96 92 91 89 78 72
100 100 100 100 100 99 70 37 26 20 18 15 13 14 21 22 68 100 96 100 100 100 100 100 94 77 65 52 88 95 91 100 100 100 99 90 99 100 90 75 78 87 89
100 100 100 100 82 42 29 22 18 15 14 13 15 18 35 41 98 100 100 100 100 100 100 81 67 44 36 40 52 89 100 100 100 100 100 99 89 83 66 57 53 54 51
100 100 82 43 29 24 17 15 15 17 18 20 20 33 50 100 100 100 100 100 100 100 94 82 64 31 24 34 35 37 45 47 49 62 80 65 31 45 48 61 73 66 69
86 39 28 24 17 15 16 19 27 38 35 27 20 56 76 100 100 100 100 100 100 99 100 93 67 34 28 34 44 57 66 74 84 86 86 30 39 99 85 92 100 100 100
32 26 18 15 17 19 24 37 50 42 27 24 40 63 100 100 100 100 100 100 100 97 100 100 78 60 32 41 51 63 80 99 94 77 78 69 8 5 74 99 100 100 100
20 15 16 19 24 30 49 50 36 28 43 57 87 70 100 100 100 100 100 100 100 100 100 100 92 79 65 48 48 62 78 80 82 80 86 81 60 12 6 44 50 62 91
15 18 22 26 31 46 48 42 52 76 88 100 71 97 100 100 100 100 100 100 100 100 100 100 100 95 84 83 81 78 79 74 74 77 76 78 66 58 32 26 11 35 34
20 23 27 32 52 45 57 82 100 100 100 97 70 100 100 100 100 100 100 100 100 100 100 100 100 100 96 95 95 87 80 73 78 83 82 74 73 76 61 52 45 16 38
23 28 36 52 49 67 92 100 100 100 96 76 82 100 100 100 100 100 100 100 100 100 100 100 100 100 96 93 92 98 92 82 83 86 89 93 85 78 81 60 37 30 29
28 33 46 48 50 88 96 100 96 96 94 66 94 100 100 100 100 100 100 100 100 100 100 100 100 100 100 100 99 94 94 92 93 91 86 87 91 96 85 81 88 89 72
35 40 41 42 43 86 96 99 90 95 84 75 100 100 100 100 100 100 100 100 100 100 100 100 100 100 99 100 100 100 100 100 100 98 95 92 92 92 97 97 100 100 100
36 43 41 42 57 91 97 99 90 95 95 100 100 100 100 100 100 100 100 100 100 100 100 100 100 100 100 100 100 100 100 100 100 100 92 41 5 8 31 78 97 100 100
32 42 44 60 85 90 97 98 95 98 100 100 100 100 100 100 100 100 100 100 100 100 100 100 100 100 100 100 100 100 100 100 100 96 70 31 14 18 22 21 19 16 13

GFSGL_500_rhum_018.txt.gz
RH
54 47 45 50 54 58 44 29 25 26 35 72 76 28 36 53 20 26 25 35 41 97 100 100 100 100 97 96 98 97 91 87 75 65 64 68 73 73 76 90 91 95 95
48 54 56 74 63 37 18 56 58 12 12 18 11 19 12 21 37 65 80 100 100 100 100 100 100 100 100 100 100 95 90 89 81 67 67 64 65 73 73 80 92 92 89
53 19 11 16 23 36 43 60 23 19 21 5 11 21 75 100 100 100 100 100 100 100 100 100 100 100 100 99 94 81 67 54 43 39 37 33 35 32 36 47 63 86 99
13 14 24 46 38 32 30 14 10 25 22 14 56 86 97 98 96 92 90 87 83 83 82 88 90 85 64 37 21 14 11 10 10 10 11 10 9 9 10 12 14 19 35
20 63 100 70 23 14 10 8 11 18 41 80 90 96 92 92 94 97 98 90 87 91 90 71 43 25 16 11 10 13 14 14 13 11 10 10 10 11 12 11 10 10 12
18 22 37 27 12 9 10 14 33 90 100 100 100 100 100 100 97 100 100 99 93 76 41 26 16 13 14 14 13 11 9 12 23 34 42 48 49 37 14 9 10 10 10
28 41 25 15 11 12 14 46 93 100 100 100 100 100 100 100 100 100 98 85 64 34 20 15 15 15 13 10 14 24 26 32 36 38 40 46 50 58 57 34 13 9 9
20 16 15 14 14 29 80 99 99 100 100 100 100 100 100 100 99 95 80 54 28 20 17 16 14 11 13 26 36 47 52 64 75 74 73 63 43 55 64 62 60 48 20
16 13 14 19 55 96 100 100 100 100 100 100 99 97 96 94 79 60 43 26 21 18 15 13 11 23 41 52 65 76 87 99 100 96 89 84 84 45 47 56 60 45 47
14 16 23 79 97 89 89 92 94 92 93 96 82 52 40 38 32 28 24 21 17 15 13 13 31 51 60 71 78 95 100 100 100 100 100 100 82 78 79 46 54 50 60
17 26 69 78 75 78 84 90 89 73 40 34 31 28 25 21 20 18 17 16 14 14 18 72 82 80 78 84 89 81 80 95 100 100 100 100 96 74 52 38 51 75 55
46 76 82 86 84 87 79 44 31 28 22 18 15 14 14 14 12 12 12 13 14 21 85 99 100 95 87 53 45 45 75 85 95 100 100 100 92 82 73 80 96 87 91
81 87 91 90 60 34 29 21 17 15 14 15 16 17 20 24 21 16 14 17 34 94 100 100 96 89 51 45 32 30 34 68 89 96 95 97 100 100 98 99 100 100 100
87 88 68 38 26 21 18 14 15 16 19 22 24 32 38 40 35 26 23 57 100 100 100 100 98 94 53 33 36 40 42 57 56 52 56 61 68 74 76 85 93 100 100
86 64 33 24 21 17 16 16 19 23 28 33 33 33 31 31 31 26 62 100 100 100 100 100 99 81 52 43 49 50 49 54 59 65 72 84 91 81 50 16 43 80 100
71 39 29 24 20 17 18 24 35 38 40 43 44 44 56 44 84 74 100 100 100 100 100 100 100 85 61 49 57 57 58 57 53 45 43 44 51 44 12 14 53 41 52
50 38 30 26 20 20 23 35 38 73 95 84 89 97 92 100 93 100 100 100 100 100 100 100 100 99 77 50 50 54 61 60 50 44 35 28 21 25 18 23 58 62 58
49 41 33 29 22 22 29 33 38 68 93 100 100 100 100 98 100 100 100 100 100 100 100 100 100 100 100 72 55 62 68 65 59 52 40 38 36 22 20 16 24 61 85
54 45 37 34 25 23 28 33 44 86 98 100 100 99 96 99 100 100 100 100 100 100 100 100 100 100 100 100 92 83 72 66 65 56 53 51 52 52 48 26 16 15 36
58 50 43 40 29 23 28 36 78 93 97 100 99 100 92 100 100 100 100 100 100 100 100 100 100 100 100 100 100 96 85 76 74 68 60 62 65 64 63 64 46 26 34
61 57 51 47 36 24 31 61 86 98 96 93 98 90 98 100 100 100 100 100 100 100 100 100 100 100 100 100 100 100 94 89 80 74 70 75 75 76 65 68 65 70 41
60 58 60 55 46 28 44 70 80 92 91 89 97 89 100 100 100 100 100 100 100 100 100 100 100 100 100 100 100 98 94 93 89 80 75 83 71 57 73 73 66 68 71
72 59 64 64 60 36 38 65 75 81 87 91 100 100 100 100 100 100 100 100 100 100 100 100 100 100 100 100 100 100 98 95 88 84 80 83 73 15 10 14 26 49 67
76 63 68 74 71 53 34 56 70 78 86 92 98 100 100 100 100 100 100 100 100 100 100 100 100 100 100 100 100 100 98 94 88 82 82 84 80 32 20 24 25 24 23
85 59 69 80 79 75 46 37 61 71 86 91 95 100 100 100 100 100 100 100 100 100 100 100 100 100 100 100 100 100 96 92 84 82 84 92 93 67 35 28 29 30 31
91 61 79 84 82 86 72 45 40 59 73 88 93 99 100 100 100 100 100 100 100 100 100 100 100 100 100 100 100 100 98 94 90 88 93 100 100 82 52 38 34 35 39

GFSGL_500_rhum_021.txt.gz
RH
53 52 44 44 51 37 13 10 9 10 11 14 17 12 9 10 25 32 21 42 64 95 100 100 100 100 100 100 100 100 100 100 99 100 94 83 65 62 65 64 60 57 56
51 40 31 24 23 17 10 11 15 16 14 10 8 9 16 42 77 99 100 100 100 100 100 100 100 100 100 100 95 91 85 79 73 68 71 69 67 70 65 62 64 70 72
27 19 21 20 16 28 54 36 18 10 9 10 11 22 51 89 100 100 100 100 100 100 100 100 100 100 100 98 97 93 90 86 83 75 69 67 62 60 60 59 59 64 70
30 20 15 17 54 76 65 14 10 10 12 16 31 60 98 100 100 100 96 94 92 90 93 98 94 96 99 99 95 87 77 65 55 44 33 21 14 10 10 11 13 21 25
28 33 36 40 31 28 14 12 12 15 26 69 97 100 100 100 100 100 100 100 100 100 100 100 98 93 85 76 62 42 26 15 11 10 11 13 13 14 14 13 12 11 11
33 58 69 48 48 20 12 14 18 51 82 92 100 100 100 100 100 100 99 94 94 99 100 100 92 70 53 40 20 11 11 14 15 13 10 11 12 14 21 24 20 15 13
52 53 38 41 41 14 18 35 82 96 93 95 98 97 96 94 92 92 93 94 93 93 86 76 62 39 20 15 15 15 13 10 17 24 29 31 34 37 39 40 42 46 49
48 36 22 15 14 23 59 84 89 91 93 95 96 92 88 85 79 76 72 70 69 63 54 41 27 17 16 15 14 11 21 38 55 63 69 80 83 86 86 75 50 35 53
68 39 16 16 35 68 78 82 80 75 63 47 36 30 28 29 28 29 28 27 27 27 25 23 17 17 15 12 16 43 63 77 83 92 93 88 76 87 88 86 91 48 36
46 20 18 37 68 71 70 61 38 28 24 21 18 16 15 15 15 14 13 14 15 16 17 17 16 14 13 40 61 75 89 85 83 84 88 82 78 86 96 86 84 84 59
18 21 39 66 72 70 49 28 23 21 19 16 15 15 15 16 16 15 14 12 10 11 12 14 14 21 62 69 82 56 31 41 66 71 90 99 94 83 89 94 88 77 57
21 36 71 76 76 48 31 25 22 19 17 17 18 22 25 30 31 26 21 17 14 14 16 24 61 95 81 90 57 35 36 39 38 54 80 89 94 93 89 84 84 81 75
28 75 86 81 56 38 29 25 22 18 19 24 27 30 35 36 32 30 28 26 25 26 92 100 100 100 100 64 36 47 50 51 57 60 61 54 56 58 68 79 96 100 100
66 94 87 70 48 37 30 26 20 20 26 29 38 57 65 68 47 29 28 29 55 100 100 100 100 100 86 40 60 68 57 52 49 47 43 49 57 81 95 96 97 92 90
96 96 79 62 49 37 31 27 20 24 29 30 64 83 92 96 82 46 57 85 100 100 100 100 100 100 79 56 68 65 62 54 50 37 29 20 12 14 18 14 13 17 32
100 88 70 60 48 38 34 26 24 26 32 68 87 93 99 99 100 99 100 100 100 100 100 100 100 100 81 63 63 62 65 60 54 40 32 30 25 13 9 14 51 54 49
100 76 64 59 48 39 36 25 25 41 77 83 90 98 98 99 100 100 100 100 100 100 100 100 100 100 96 89 83 76 69 60 56 48 43 39 39 36 18 11 18 54 61
90 68 60 61 51 43 40 26 28 62 83 96 95 93 100 96 100 100 99 100 100 100 100 100 100 100 100 100 97 86 74 64 62 58 52 48 47 44 42 30 16 19 26
87 55 53 64 56 49 46 29 40 69 84 92 92 86 92 96 100 98 97 100 100 100 100 100 100 100 100 100 100 98 84 76 70 62 56 55 58 58 50 50 49 23 19
82 51 59 68 63 58 52 36 40 67 79 83 91 97 92 96 100 97 96 100 100 100 100 100 100 100 100 100 100 100 100 93 81 70 67 64 60 52 58 57 56 61 47
65 49 71 71 65 66 57 48 33 60 74 81 91 96 95 100 100 99 97 99 100 100 100 100 100 100 100 100 100 100 100 97 90 85 75 69 70 51 18 23 45 62 68
50 58 79 73 68 70 64 63 36 44 69 83 90 93 98 100 100 100 100 100 100 100 100 100 100 100 100 100 100 100 100 100 96 89 81 74 72 63 26 19 18 22 50
53 73 87 75 72 78 69 71 55 35 55 76 88 97 95 100 100 100 100 100 100 100 100 100 100 100 100 100 100 100 100 100 94 85 81 80 78 73 57 33 23 23 24
74 92 93 74 80 82 74 74 71 51 38 60 78 94 97 97 100 100 100 100 100 100 100 100 100 100 100 100 100 100 100 100 99 88 85 83 84 85 74 48 32 26 29
99 98 83 79 78 79 75 73 75 71 53 41 63 80 96 100 100 100 100 100 100 100 100 100 100 100 100 100 100 100 100 99 100 95 89 84 84 96 91 71 46 36 34
100 90 76 65 71 76 74 70 72 79 71 58 46 69 84 96 100 100 100 100 100 100 100 100 100 100 100 100 100 100 100 100 100 99 95 90 91 99 99 93 75 62 48

GFSGL_500_rhum_024.txt.gz
RH
46 43 40 35 34 32 28 22 18 22 23 20 18 18 11 12 13 14 23 41 88 99 97 100 100 100 100 100 100 100 100 100 100 100 100 100 100 95 91 86 63 63 56
45 52 46 41 36 26 24 28 37 32 30 12 13 13 14 18 26 42 81 100 100 100 100 100 100 100 100 100 100 98 96 95 98 98 100 100 100 100 100 99 99 93 87
57 76 75 65 46 27 32 35 32 31 19 12 14 19 43 75 100 100 99 98 98 98 98 97 96 96 96 96 98 95 90 83 83 81 77 80 74 73 69 68 64 60 56
84 97 86 75 35 29 24 19 26 25 14 16 31 67 89 98 100 100 100 100 99 98 99 98 95 93 91 95 98 98 98 97 93 85 76 71 67 64 61 60 59 57 53
100 100 95 72 40 30 17 17 17 18 35 53 68 80 86 87 89 94 99 100 100 100 100 100 100 98 98 94 93 93 85 74 69 66 62 49 39 27 23 19 23 24 29
78 87 71 46 39 26 16 14 19 43 69 79 86 85 84 80 80 80 85 90 93 92 92 98 100 100 100 97 85 69 60 54 36 19 12 12 14 14 13 12 12 12 11
97 70 49 42 59 26 16 22 52 68 74 68 45 28 23 22 22 22 23 24 27 36 52 67 70 71 67 62 58 55 35 16 12 14 14 12 14 20 23 23 26 30 29
58 38 49 77 50 18 23 53 64 68 56 32 23 21 21 19 18 16 16 15 15 16 19 23 25 30 38 39 29 19 16 15 13 14 25 38 48 59 69 73 66 51 43
45 43 70 49 24 24 50 68 70 56 36 27 23 22 20 17 16 15 15 14 14 13 12 12 15 18 19 19 18 16 14 30 45 64 82 90 89 96 100 98 95 89 80
37 47 50 32 23 39 72 74 66 44 33 26 25 20 17 17 18 19 20 19 18 17 16 12 10 12 15 16 16 18 65 83 79 43 49 68 84 94 100 86 85 93 100
49 52 44 26 30 77 84 74 56 41 31 28 24 19 22 24 29 27 25 26 24 25 21 14 10 10 14 14 36 81 83 33 33 39 40 47 62 84 96 93 94 100 100
53 45 30 31 59 94 83 66 50 37 31 28 20 21 25 41 63 59 39 27 28 30 24 16 16 17 35 80 95 89 35 46 54 52 51 49 51 57 62 70 82 97 100
38 33 34 38 93 91 74 58 45 35 31 23 20 29 62 82 87 87 71 41 31 31 29 42 98 100 100 100 100 41 53 60 51 46 36 29 33 42 64 81 87 73 73
36 39 35 74 98 76 65 55 43 35 30 21 40 65 83 96 96 90 80 71 49 71 100 100 100 100 100 97 46 66 73 58 48 34 27 22 16 11 9 9 14 26 47
39 38 44 100 83 67 62 54 44 36 26 34 62 77 82 94 100 96 100 99 100 100 100 100 100 100 100 63 74 71 74 61 45 37 34 30 28 21 14 11 13 36 42
38 39 94 97 74 59 62 55 46 40 27 51 70 79 83 93 95 96 100 100 100 100 100 100 100 100 100 75 74 82 81 66 50 46 43 38 34 34 29 18 11 23 55
46 87 100 85 65 61 65 58 52 46 32 56 68 72 82 99 95 96 96 100 100 100 100 100 100 100 100 99 88 97 84 70 63 58 51 47 44 42 40 35 22 12 14
87 100 96 84 57 68 67 60 58 55 33 51 63 68 83 100 98 98 92 99 100 100 100 100 100 100 100 100 100 100 89 78 73 65 57 52 49 46 45 44 40 30 13
100 100 92 68 54 77 68 65 64 63 38 44 64 70 86 97 99 97 88 97 100 100 100 100 100 100 100 100 100 100 100 96 84 76 68 62 58 45 33 28 31 41 41
100 99 84 52 70 82 71 72 72 68 53 35 63 76 91 91 95 98 84 91 99 100 100 100 100 100 100 100 100 100 100 100 100 88 77 68 66 58 38 30 18 19 33
100 91 62 54 89 82 74 76 75 70 66 38 47 73 86 98 97 99 89 86 94 100 100 100 100 100 100 100 100 100 100 100 100 96 85 73 68 63 51 40 28 18 18
98 70 58 86 95 78 71 70 73 71 70 60 36 58 81 89 98 99 99 92 93 98 100 100 100 100 100 100 100 100 100 100 100 100 92 80 76 70 59 50 37 23 20
96 83 94 99 84 68 61 72 75 70 68 68 53 39 68 84 92 97 100 100 100 100 100 100 100 100 100 100 100 99 100 100 100 100 93 88 85 84 77 62 48 34 27
99 99 100 90 69 58 58 69 72 68 64 69 65 49 45 75 88 94 98 100 100 100 100 100 100 100 100 100 100 100 100 100 100 100 99 95 91 85 89 85 74 50 38
100 100 94 76 66 60 57 66 69 66 61 66 69 64 46 54 82 96 96 100 100 100 100 100 100 100 100 100 100 100 100 100 100 100 100 100 96 87 86 94 88 81 59
100 98 84 76 72 67 61 65 70 67 62 64 68 66 64 48 69 87 100 99 100 100 100 100 100 100 100 100 100 100 100 100 100 100 100 100 100 96 94 97 100 98 92

GFSGL_500_rhum_027.txt.gz
RH
46 49 52 51 50 50 57 66 70 69 64 47 23 13 9 12 14 18 26 44 56 86 100 100 100 100 100 100 100 100 95 96 100 100 100 100 100 100 100 83 80 97 100
50 53 53 52 66 73 66 71 87 63 38 20 24 12 13 20 40 62 74 80 85 92 99 100 100 100 100 100 100 100 100 100 96 89 100 100 100 100 100 97 99 96 77
56 60 74 96 97 82 85 76 54 34 24 25 15 18 32 53 59 64 74 80 83 88 92 96 99 94 90 88 91 88 87 91 94 88 87 81 83 87 92 91 96 98 92
64 80 80 78 76 69 65 54 34 19 19 16 31 62 66 65 64 52 38 36 42 60 78 86 92 99 100 100 95 76 80 89 92 86 79 76 67 62 60 66 72 71 67
74 80 72 71 67 59 49 33 24 25 20 27 62 72 74 58 38 26 22 21 21 21 22 30 59 83 96 98 99 100 100 98 100 100 98 94 88 83 81 77 68 63 58
100 78 72 67 46 34 30 29 26 22 23 59 73 76 59 38 29 23 21 20 20 18 18 18 20 23 36 67 84 88 95 100 100 93 80 68 59 53 48 50 55 59 58
79 66 60 38 34 35 39 35 27 26 50 78 77 64 47 34 25 23 22 19 16 16 15 15 15 15 16 21 29 56 67 66 62 57 53 45 23 14 13 12 13 12 12
60 58 40 38 41 44 41 28 29 43 80 79 68 51 39 31 26 23 18 17 18 18 19 18 16 14 13 13 17 21 28 36 36 32 20 15 14 14 19 22 25 24 22
56 40 38 43 43 41 29 29 36 79 82 74 53 43 34 30 23 18 19 21 27 33 28 26 24 18 14 12 11 15 18 20 18 16 16 35 72 82 78 79 90 87 77
38 40 40 38 35 30 33 35 66 88 80 59 48 38 32 22 20 28 44 55 66 66 44 31 28 22 15 12 11 13 16 17 16 42 86 50 63 64 60 69 74 81 100
42 32 32 30 32 35 36 42 97 86 68 51 43 36 24 28 47 63 71 73 76 71 45 31 29 24 17 12 12 15 20 41 83 58 45 42 42 42 46 58 73 81 88
28 28 30 34 38 40 39 86 96 75 56 47 41 30 30 57 66 66 77 85 77 54 41 33 32 25 20 26 46 80 96 91 44 50 54 51 47 36 34 43 48 59 73
23 28 32 36 40 42 68 100 84 63 55 49 41 26 49 70 62 74 94 95 99 96 51 50 94 100 100 100 100 100 82 43 56 60 39 24 17 13 11 10 10 10 14
25 28 38 47 51 83 100 90 69 61 56 48 42 26 52 67 66 84 99 98 98 100 100 100 100 100 100 100 100 83 58 66 64 37 33 30 25 21 19 14 12 10 12
27 34 48 58 86 100 94 80 67 64 56 50 44 28 46 65 74 91 93 100 100 100 100 100 100 100 100 100 88 87 79 72 43 43 42 36 30 28 25 21 16 13 11
46 39 56 84 100 99 88 61 72 68 61 56 49 30 51 71 87 93 100 93 100 100 100 100 100 100 100 100 100 99 84 66 45 51 51 47 40 35 31 29 25 21 14
48 56 79 100 100 95 61 73 76 66 57 56 54 32 51 77 97 93 100 88 100 100 100 100 100 100 100 100 100 100 95 84 67 63 59 54 47 41 35 29 24 25 26
56 95 100 100 98 73 61 84 76 64 59 58 51 36 49 74 96 93 93 88 99 100 100 100 100 100 100 100 100 100 100 100 86 76 68 62 56 47 42 35 22 17 21
98 100 100 100 88 58 80 87 70 56 59 61 60 46 35 66 90 100 92 83 96 100 100 100 100 100 100 100 100 100 100 100 99 92 84 76 67 58 46 41 30 19 16
100 97 98 90 64 75 95 76 52 54 61 60 59 56 36 50 79 91 96 80 89 99 100 100 100 100 100 100 100 100 100 100 100 100 99 87 76 64 53 45 39 25 19
89 93 98 79 83 95 89 58 49 54 59 57 56 59 48 37 64 86 96 94 81 92 100 100 100 100 100 100 100 100 100 100 100 100 100 97 84 71 61 53 48 36 24
90 90 91 93 96 96 70 59 51 53 57 55 53 57 56 41 43 73 90 99 92 85 94 100 100 100 100 100 100 100 100 100 100 100 100 100 95 86 76 69 60 50 36
81 89 98 100 99 83 70 61 56 54 58 57 54 54 57 53 40 54 79 94 100 98 94 99 100 100 100 100 100 100 100 100 100 100 100 100 100 94 86 84 82 72 55
70 98 100 100 94 78 71 62 61 56 61 62 57 54 54 53 49 42 66 86 96 100 100 99 100 100 100 100 100 100 100 100 100 100 100 100 100 99 96 88 86 86 79
77 100 100 99 88 86 75 64 62 61 63 69 65 57 55 53 51 46 51 81 94 99 100 100 100 100 100 100 100 100 100 100 100 100 100 100 100 100 97 92 90 90 94
91 96 100 98 95 82 74 64 62 64 65 73 74 66 59 54 50 53 52 70 93 100 100 100 100 100 100 100 100 100 100 100 100 100 100 98 98 98 97 93 93 95 99

GFSGL_500_rhum_033.txt.gz
RH
25 24 26 30 33 47 52 72 84 73 68 62 47 30 20 16 16 18 21 22 23 39 63 64 62 60 47 35 29 26 30 54 57 66 76 96 100 100 100 98 96 100 98
30 34 36 35 35 45 83 70 57 43 34 24 18 22 19 20 26 26 26 28 64 83 77 70 59 51 43 35 29 24 22 22 27 59 78 79 83 100 90 90 100 84 100
38 40 34 34 37 41 43 34 18 14 16 18 20 22 26 31 31 34 43 86 89 81 69 54 44 39 33 28 25 22 21 20 20 21 72 91 80 88 100 90 90 98 100
36 46 47 36 31 18 8 9 10 11 15 20 23 26 31 32 36 43 88 88 79 61 49 42 34 30 27 24 22 21 21 21 20 21 25 82 93 90 87 97 99 89 82
44 38 36 22 10 9 8 7 8 13 19 25 30 33 35 40 38 82 89 77 55 45 36 32 24 23 23 20 17 17 17 17 18 18 20 34 88 97 99 98 85 92 89
33 24 11 9 9 7 8 10 21 20 34 50 39 43 47 43 80 87 77 55 46 37 28 27 36 40 47 53 42 26 18 17 16 16 17 19 47 87 99 92 81 82 79
22 11 9 8 8 11 40 97 100 98 68 58 48 57 62 89 88 77 56 46 38 28 30 33 43 58 57 46 63 54 45 28 18 15 15 17 19 59 78 97 94 86 83
15 9 8 10 12 18 100 95 100 61 87 95 68 76 90 91 77 57 48 42 29 28 48 45 53 87 87 59 60 68 59 30 22 16 14 15 17 23 62 71 82 81 80
9 8 9 11 15 44 100 100 100 92 92 75 100 94 92 77 64 54 45 34 27 47 61 73 90 92 94 80 48 46 34 28 21 15 14 14 15 18 38 56 57 54 48
8 6 8 13 14 73 100 100 100 100 86 100 98 94 78 68 58 47 42 29 42 67 93 100 96 94 87 59 39 34 30 27 20 14 13 13 16 18 22 24 22 25 40
7 9 13 14 20 65 95 100 100 93 100 98 84 80 74 61 49 51 36 40 67 87 100 95 100 100 100 89 53 36 29 21 16 13 13 16 18 20 36 70 76 69 60
10 13 14 18 20 27 53 60 58 92 91 74 77 78 60 47 52 48 36 65 81 91 88 91 98 100 100 100 100 100 75 34 18 20 22 50 79 81 66 56 52 45 34
14 15 22 23 22 24 32 51 90 93 68 66 81 56 47 48 50 42 40 87 90 92 92 100 100 100 100 100 100 100 100 100 95 99 100 86 72 70 54 28 14 11 11
16 32 41 43 52 65 80 81 85 70 61 82 56 44 43 45 43 40 45 98 100 88 94 100 100 100 100 100 100 100 100 100 100 100 93 81 41 19 16 16 16 15 15
26 55 62 64 68 74 72 83 75 66 85 65 49 41 42 44 41 40 40 81 98 92 100 100 100 100 100 100 100 100 100 100 100 84 44 34 30 28 26 22 19 18 18
47 63 66 72 73 70 72 80 75 80 86 58 51 41 44 43 40 42 40 87 94 89 96 100 100 100 100 100 100 100 100 100 66 53 50 46 42 39 31 25 21 19 19
61 66 72 72 72 71 73 82 80 97 76 58 49 41 46 45 43 45 40 70 96 89 92 100 100 100 100 100 100 100 100 98 59 66 65 58 54 44 36 30 25 21 19
68 73 69 65 69 70 73 88 94 94 72 60 50 41 47 48 43 40 39 50 84 90 92 100 100 100 100 100 100 100 100 100 99 66 70 74 67 50 39 35 33 29 23
78 78 75 68 68 64 79 98 100 88 71 59 47 40 44 50 45 40 38 39 74 98 93 95 100 100 100 100 100 100 100 99 100 100 100 94 88 73 58 39 36 40 35
80 83 82 72 65 66 78 100 100 86 74 58 48 41 40 53 54 47 40 40 42 83 100 93 95 100 100 100 100 100 100 100 100 100 100 100 100 99 93 72 42 41 48
91 99 96 82 76 70 80 94 94 87 72 60 50 43 40 53 60 52 44 42 40 51 88 99 90 95 100 100 100 100 100 100 100 100 100 100 100 100 100 94 71 61 62
100 100 100 92 84 74 83 93 91 88 75 62 52 46 41 47 62 59 48 42 41 39 60 91 100 95 95 100 100 100 100 100 100 100 100 100 100 100 100 100 99 98 95
94 100 100 96 81 82 83 93 92 87 75 62 55 51 46 46 60 64 55 46 43 42 41 68 98 100 100 99 100 100 100 100 100 100 100 100 100 100 100 100 100 100 100
57 99 100 89 81 87 78 86 91 86 76 69 62 58 53 48 51 66 62 51 48 46 46 45 75 100 100 100 100 100 100 100 100 100 100 100 100 100 100 100 100 100 98
60 67 68 74 90 96 82 78 84 89 86 76 70 68 62 54 50 56 69 63 55 52 52 54 63 86 100 100 100 100 100 100 100 100 100 100 100 100 100 100 100 100 98
58 66 77 94 98 98 98 99 96 97 98 90 84 80 75 68 60 56 64 73 65 58 58 60 65 84 97 100 100 100 100 100 100 100 100 100 100 100 100 100 100 100 100

GFSGL_500_rhum_036.txt.gz
RH
34 26 22 20 26 34 42 43 38 27 12 9 9 8 9 13 18 19 22 25 27 28 30 31 33 65 81 79 74 67 57 52 48 40 32 26 36 80 76 73 100 73 39
26 26 29 37 40 43 43 34 15 9 9 8 7 8 22 39 28 23 29 32 34 37 40 65 92 87 78 65 56 48 44 42 38 34 31 26 22 35 84 82 84 100 100
43 41 37 40 46 41 26 13 10 9 9 7 11 33 45 90 72 33 37 47 48 51 93 95 86 70 54 46 39 32 30 29 28 25 23 22 21 22 51 86 83 82 99
28 28 36 47 43 28 21 19 13 8 8 19 49 52 83 100 51 34 53 57 84 87 90 78 59 48 40 34 27 23 22 22 21 19 18 20 20 21 22 80 92 80 77
36 49 43 40 34 28 20 11 7 9 15 93 96 98 100 59 35 52 72 88 90 84 63 50 43 37 28 27 28 31 41 40 33 36 21 17 17 20 21 40 90 96 82
26 28 40 36 30 21 11 7 11 15 52 100 100 100 93 46 52 83 88 86 71 56 48 38 34 26 30 49 42 47 62 71 48 50 43 19 17 17 19 21 70 92 100
43 48 36 20 15 9 8 11 14 25 97 100 97 95 86 60 93 83 77 68 52 42 36 30 25 37 48 54 66 79 97 98 55 60 55 34 19 17 17 20 40 89 94
50 34 19 14 9 9 11 12 20 100 100 100 100 96 77 92 83 72 68 48 41 38 31 33 57 70 82 85 89 97 100 100 68 65 53 40 21 17 16 18 22 73 87
30 23 16 10 8 9 10 14 21 52 100 100 97 73 90 78 76 68 45 40 41 34 47 81 80 77 90 100 96 87 84 74 41 38 34 26 20 15 15 17 18 55 80
24 19 12 8 10 10 16 18 18 34 67 74 64 91 70 78 63 42 39 36 33 38 84 91 78 91 100 100 100 100 63 44 36 28 24 22 17 14 15 16 17 38 63
18 13 9 11 11 21 26 27 33 46 62 80 77 68 77 57 42 39 38 35 32 60 80 76 92 100 100 100 100 100 100 63 33 26 20 17 14 14 14 17 18 26 39
14 10 11 12 25 45 50 52 57 61 68 70 67 79 60 46 39 39 40 37 32 67 76 79 99 100 100 100 100 100 100 100 53 30 20 17 16 17 18 20 29 46 59
11 11 11 14 46 59 61 61 60 64 69 70 81 72 55 42 40 41 40 36 34 73 78 81 97 100 100 100 100 100 100 100 100 99 90 82 79 91 93 76 64 58 48
12 13 13 30 62 66 63 65 64 71 75 75 80 64 52 41 39 42 40 39 39 81 81 81 93 100 100 100 100 100 100 100 100 100 100 100 100 93 84 57 24 13 13
14 14 18 58 70 68 69 71 72 80 81 83 81 63 51 40 38 43 41 34 34 74 91 89 94 100 100 100 100 100 100 100 100 100 100 87 56 30 18 16 18 17 17
17 19 34 73 76 66 70 75 73 86 89 88 78 61 47 40 39 46 44 36 35 70 88 86 89 99 100 100 100 100 100 100 87 66 62 53 40 31 28 26 23 21 19
20 28 55 80 83 74 77 67 70 81 94 92 80 59 49 40 38 48 49 40 33 48 83 86 86 94 100 100 100 100 100 100 87 80 75 62 51 44 36 28 22 19 17
25 41 68 87 90 86 75 64 73 98 100 94 80 62 50 41 37 49 54 44 32 33 74 88 89 89 98 100 100 100 100 100 100 90 73 74 66 55 42 34 28 23 20
33 42 87 97 100 100 82 76 72 88 95 93 80 64 50 42 37 43 54 49 35 34 43 85 92 92 90 98 100 100 100 100 100 100 100 98 86 73 58 44 37 37 38
38 38 92 100 100 100 99 83 76 87 93 92 81 64 53 45 39 40 53 53 41 34 36 52 92 97 95 94 100 100 100 100 100 100 100 100 100 100 100 98 82 52 40
38 40 60 100 100 100 100 86 78 87 98 92 80 66 58 49 41 39 49 58 49 38 36 36 61 97 99 100 97 100 100 100 100 100 100 100 100 100 100 100 100 90 64
37 34 49 88 100 100 97 84 83 84 98 93 82 73 63 53 48 43 42 56 58 45 38 38 39 66 97 100 100 100 99 100 100 100 100 100 100 100 100 100 100 100 95
43 43 51 66 98 100 93 90 92 79 87 94 89 82 72 64 56 52 46 45 59 59 46 41 40 42 74 98 100 100 100 100 100 100 100 100 100 100 100 100 100 100 100
57 56 57 59 74 76 93 99 100 95 96 98 100 97 89 78 70 62 54 49 48 62 61 49 46 43 47 84 100 100 100 100 100 100 100 100 100 100 100 100 100 100 100
76 80 78 74 71 86 99 100 100 100 100 100 100 100 100 93 83 76 66 56 56 55 70 65 53 51 51 61 92 100 100 100 100 100 100 100 100 100 100 100 100 100 99
84 84 87 87 87 86 84 91 100 100 100 100 100 99 95 96 93 89 76 67 62 62 62 76 66 58 58 62 80 95 100 100 100 100 100 100 100 100 100 100 100 100 100

GFSGL_500_rhum_039.txt.gz
RH
26 22 22 21 22 23 24 25 32 38 43 38 30 20 13 10 8 10 20 45 52 57 20 22 35 39 43 44 56 89 89 88 74 63 64 61 56 52 49 39 32 39 52
24 28 26 28 29 28 30 33 38 41 40 36 24 12 9 13 21 43 81 96 99 54 35 51 59 67 77 84 90 89 84 71 58 48 42 39 38 41 41 40 35 27 35
32 29 32 32 30 33 35 37 42 41 33 20 12 9 14 24 44 100 100 100 98 41 69 86 82 83 88 85 70 56 46 40 36 32 28 26 25 26 26 27 29 28 24
32 34 34 35 35 39 44 46 40 32 20 11 9 10 17 41 100 100 100 88 45 84 89 84 73 61 50 44 39 34 30 27 25 25 24 22 21 20 19 22 23 25 23
38 42 42 39 41 46 47 44 34 20 11 9 12 15 54 100 100 87 79 63 81 82 71 62 51 42 36 32 29 27 28 30 36 41 36 49 50 43 24 19 18 22 22
45 42 39 45 51 52 42 29 17 10 9 9 18 39 89 100 87 99 72 81 78 71 53 41 38 32 30 37 60 68 72 72 70 62 55 52 67 71 38 28 18 18 21
42 40 44 49 54 46 28 17 10 9 10 16 18 55 56 77 93 87 77 74 54 40 38 34 30 29 56 66 72 76 83 85 79 80 85 93 92 69 44 43 22 16 20
46 51 57 60 47 28 18 11 10 13 19 19 24 30 49 77 78 71 71 47 39 37 37 33 29 61 66 70 98 100 99 96 84 63 74 93 79 64 64 44 21 16 18
56 64 63 49 33 19 11 11 17 29 30 34 38 44 58 68 71 64 50 39 37 40 38 33 63 69 76 96 95 100 100 100 99 66 54 50 50 64 56 33 19 16 17
64 64 51 33 21 12 11 13 42 43 43 44 46 54 63 73 64 53 43 35 38 36 34 49 85 75 100 100 100 100 100 100 100 83 42 36 32 31 27 21 16 16 17
65 52 30 19 13 12 12 22 48 48 52 53 55 61 66 68 59 49 38 35 38 37 32 64 76 84 100 100 100 100 100 100 100 94 39 33 30 26 21 18 16 16 18
49 28 18 13 13 14 16 50 55 57 64 65 66 64 72 70 58 45 37 37 41 36 31 70 75 95 100 100 100 100 100 100 100 98 47 26 22 19 17 16 16 17 18
26 17 13 14 16 17 28 60 63 68 72 72 68 79 77 72 54 44 36 39 44 36 30 62 80 99 100 100 100 100 100 100 100 100 100 83 54 37 32 25 24 21 21
16 13 14 16 19 22 53 70 66 65 75 70 72 87 78 72 54 43 35 41 48 39 32 64 80 99 100 100 100 100 100 100 100 100 100 100 100 100 100 100 100 97 86
14 15 16 21 23 32 68 81 72 78 68 64 78 85 82 71 54 41 35 39 50 41 31 56 81 93 100 98 100 100 100 100 100 100 100 100 100 100 98 84 54 27 17
15 16 19 27 28 48 80 95 88 82 67 68 79 84 86 71 53 42 36 39 51 44 31 42 78 90 100 100 100 100 100 100 87 80 67 53 38 26 20 18 18 18 18
17 19 26 32 31 64 90 100 100 88 80 69 71 83 87 71 53 43 37 38 52 48 33 32 73 86 96 100 99 100 100 100 98 97 96 81 64 52 42 36 30 26 23
21 26 32 34 33 64 100 100 100 100 92 73 77 91 90 70 56 46 38 37 50 51 37 31 46 82 91 96 97 100 100 100 100 100 100 98 78 66 54 39 29 24 20
26 34 35 36 35 56 100 100 100 100 96 80 91 97 88 72 60 49 41 38 40 51 46 34 32 55 87 98 96 95 98 100 100 100 100 100 100 89 65 46 37 31 29
35 40 40 40 33 46 96 100 100 100 92 86 92 100 92 79 68 58 47 40 39 41 52 44 34 33 58 91 100 100 98 100 100 100 100 100 100 100 100 99 95 74 38
40 49 45 44 43 50 76 100 100 100 91 89 82 89 94 87 79 72 59 48 42 40 43 54 43 35 35 57 95 100 100 100 100 100 100 100 100 100 100 100 100 100 100
61 55 53 56 57 55 60 82 100 98 99 97 86 88 96 98 93 85 72 60 50 46 42 46 56 44 37 37 52 94 100 100 100 100 100 100 100 100 100 100 100 100 100
74 78 77 77 76 74 66 71 77 90 99 100 100 98 94 96 95 91 84 73 64 53 46 43 51 60 45 41 40 54 90 100 100 100 100 100 100 100 100 100 100 100 100
80 83 84 87 87 85 82 82 84 88 98 100 100 100 100 98 93 91 90 88 82 67 53 47 47 60 62 47 45 46 65 92 100 100 100 100 100 100 100 100 100 100 100
90 84 80 76 78 85 88 88 94 96 95 97 100 100 100 100 100 99 100 99 91 80 63 54 52 52 68 64 50 51 54 80 99 100 100 100 100 100 100 100 100 100 100
85 87 95 98 98 94 95 97 98 99 100 100 100 100 100 100 100 100 100 100 100 93 78 66 64 59 57 74 65 53 59 67 89 100 100 100 100 100 100 100 100 100 100

GFSGL_500_rhum_042.txt.gz
RH
62 57 39 28 32 34 39 41 35 36 38 42 42 44 45 35 21 10 8 10 21 64 100 99 96 60 58 65 75 79 78 78 72 63 70 81 84 84 79 75 74 71 64
60 42 31 35 39 44 49 43 39 37 38 43 48 45 31 17 8 8 13 26 96 100 100 74 59 88 84 82 79 74 67 61 58 54 58 61 62 60 57 54 51 53 54
44 41 43 45 56 56 50 45 41 40 47 51 43 26 12 8 8 16 30 100 100 93 87 78 84 74 63 52 43 39 37 35 33 29 28 29 30 30 29 29 30 30 34
49 55 64 71 64 57 50 46 48 51 52 42 23 10 8 12 15 20 45 95 78 92 80 73 65 45 38 35 33 32 30 30 37 39 36 29 25 25 23 24 23 23 23
77 81 78 65 62 55 50 50 54 53 37 19 9 9 16 17 19 29 49 65 82 71 71 53 41 37 34 33 28 33 59 60 57 54 55 56 57 53 40 32 28 30 24
84 74 65 63 58 56 51 54 50 32 16 9 10 21 24 24 29 37 49 63 71 62 48 41 35 35 33 29 49 62 60 82 79 76 70 78 73 73 77 42 42 44 45
72 70 65 56 55 54 55 47 29 12 10 11 25 32 33 34 38 54 65 66 51 49 39 33 34 33 27 42 52 72 97 100 100 93 90 99 83 83 94 98 65 48 51
76 70 59 54 57 58 45 26 9 10 12 15 43 42 44 41 51 62 64 58 50 43 34 35 36 28 35 54 63 94 100 100 100 99 98 100 88 78 97 97 94 81 62
79 63 56 61 60 43 24 8 10 12 14 40 51 53 52 53 58 63 63 56 46 39 34 39 33 30 63 63 88 94 100 100 100 100 100 100 76 58 80 74 57 41 47
68 61 67 63 42 20 8 10 13 15 19 60 58 62 62 59 66 70 64 52 43 35 36 41 31 43 69 78 91 100 100 100 100 100 100 87 51 42 42 50 61 60 44
66 69 67 41 16 9 10 13 17 19 43 67 63 63 65 65 78 72 65 50 39 32 37 40 30 64 70 88 100 100 100 100 100 100 100 55 38 34 32 31 30 29 24
70 69 41 15 10 11 13 16 22 28 71 72 62 67 64 63 79 75 63 48 36 32 37 39 30 66 75 98 100 100 100 100 100 100 100 91 42 30 27 25 23 20 18
72 41 17 10 12 12 16 22 26 51 86 76 69 68 60 65 77 76 62 44 35 32 40 40 29 56 70 95 100 100 100 100 100 100 100 100 99 70 50 31 23 18 18
44 18 12 13 13 15 20 28 34 71 92 84 80 71 72 67 79 75 57 43 36 34 44 42 29 51 78 97 100 100 100 100 100 100 100 100 100 100 99 80 65 52 41
18 12 14 14 15 20 27 32 44 83 100 96 91 85 77 72 78 74 55 44 36 34 46 43 30 36 71 84 99 100 100 100 100 99 95 100 100 100 100 100 100 100 100
12 16 17 18 19 27 33 34 44 92 100 97 100 98 76 80 82 71 56 46 38 34 40 46 33 31 68 82 99 100 100 100 100 100 94 63 44 49 56 53 42 29 21
17 18 20 20 24 31 36 34 40 89 97 96 100 99 77 88 84 73 63 54 43 36 34 42 40 31 43 79 91 100 100 100 100 100 100 97 71 53 37 28 24 21 20
17 20 24 24 31 37 39 32 34 76 97 98 100 97 82 87 87 79 73 65 55 43 36 35 43 38 32 53 83 92 100 100 100 100 100 100 99 80 65 55 45 38 31
17 27 27 30 41 42 41 41 36 64 99 100 100 95 91 81 83 83 83 78 66 52 40 36 36 45 38 32 55 90 95 100 100 100 100 100 100 100 82 64 55 43 32
22 32 34 45 53 60 54 50 47 49 80 100 100 100 98 80 82 89 95 87 76 62 50 40 38 36 48 38 32 53 93 98 100 100 100 100 100 100 100 94 73 48 35
35 38 45 60 70 75 76 73 67 59 64 91 100 100 100 97 95 91 94 90 85 73 61 54 44 38 38 49 38 35 46 92 97 100 100 100 100 100 100 100 100 100 100
46 48 66 74 79 84 83 84 86 81 73 77 88 100 100 100 100 99 96 90 88 87 77 67 55 44 38 44 51 39 37 42 88 98 100 100 100 100 100 100 100 100 100
56 60 78 92 90 84 84 86 82 88 93 93 93 96 98 100 100 100 100 100 98 98 90 80 70 55 46 41 52 54 40 39 40 82 100 100 100 100 100 100 100 100 100
64 71 79 83 86 85 96 100 100 100 100 100 100 100 100 100 100 100 100 100 100 100 100 93 89 71 57 51 45 58 56 44 43 47 78 99 100 100 100 100 100 100 100
66 72 82 84 83 83 93 98 99 100 100 100 100 100 100 100 100 100 100 100 100 100 100 100 97 87 70 64 57 50 65 59 48 50 60 84 99 100 100 100 100 100 100
70 69 73 79 79 77 83 88 90 98 100 100 100 100 100 100 100 100 100 100 100 100 100 100 100 99 91 79 76 60 55 71 62 52 58 76 93 99 100 100 100 100 100

GFSGL_500_rhum_048.txt.gz
RH
24 25 28 37 53 64 67 55 59 70 65 58 60 57 50 45 40 38 35 16 7 8 16 23 23 26 29 39 44 40 33 32 28 26 27 28 26 26 26 26 27 30 44
27 29 37 50 62 65 62 72 72 68 72 72 61 55 48 42 41 31 11 8 9 19 28 29 30 32 37 42 37 32 33 30 28 28 30 28 25 23 22 22 22 24 26
34 39 52 64 71 76 82 81 80 80 76 66 60 46 44 44 26 10 9 10 21 38 38 36 40 42 46 45 37 35 32 29 32 32 25 26 35 38 39 39 33 31 30
45 56 71 83 88 90 88 89 87 81 74 60 47 48 47 23 10 10 11 19 48 50 47 50 51 47 50 41 36 33 29 34 32 28 44 46 60 74 76 72 64 55 46
59 75 85 91 92 92 94 92 85 73 60 48 51 49 23 10 10 12 17 49 58 61 64 55 54 54 46 37 33 30 33 32 32 46 61 78 84 87 91 91 86 85 80
66 79 92 97 98 98 96 86 72 59 48 50 52 23 10 10 11 17 40 64 64 72 66 63 59 46 38 33 30 34 34 30 47 64 80 87 99 98 97 95 92 92 86
76 98 100 100 100 98 89 74 60 50 52 55 24 10 11 12 17 29 65 69 78 77 60 51 49 41 33 30 32 37 30 51 65 77 87 97 96 99 91 100 99 96 92
98 100 100 100 100 98 89 68 54 54 56 24 10 12 12 16 24 60 70 76 76 63 50 47 44 35 31 30 37 30 42 66 80 87 98 100 100 100 100 87 100 98 90
100 100 100 100 100 100 90 63 55 59 27 10 12 14 15 23 45 75 74 78 68 59 52 48 38 30 29 35 36 28 58 78 84 98 100 100 100 100 79 44 59 50 72
100 100 100 100 98 93 70 58 62 32 10 13 14 15 22 30 72 84 85 74 75 56 56 45 33 30 31 36 29 36 63 80 93 100 100 100 100 100 62 41 43 54 88
100 100 100 97 95 77 61 65 40 11 12 14 15 19 27 38 84 94 87 85 69 58 57 43 34 29 29 35 28 42 62 82 97 100 100 100 100 100 82 39 42 50 80
100 100 95 95 80 64 66 39 10 11 16 16 18 24 30 53 95 100 98 89 65 63 57 43 36 30 28 32 29 44 65 91 100 100 100 100 100 100 97 54 40 46 52
100 96 95 80 74 71 42 10 11 17 17 20 23 30 32 68 100 100 100 86 66 68 58 48 41 34 28 31 32 39 67 93 100 100 100 100 98 100 100 91 59 46 42
100 100 88 79 76 36 11 10 18 18 21 26 30 33 33 78 100 100 100 86 72 72 64 55 47 38 29 28 34 32 64 86 100 100 100 100 81 98 100 100 100 88 65
100 88 80 75 32 11 11 18 20 21 28 32 38 38 37 81 100 100 100 91 82 75 71 63 54 45 36 27 29 32 44 72 90 100 100 100 100 51 98 100 100 100 100
87 83 66 24 10 12 19 23 21 30 37 47 54 48 44 79 100 100 99 97 90 77 76 71 61 54 43 32 27 35 32 60 79 93 100 100 100 91 36 76 100 100 100
82 53 14 11 13 17 27 23 25 39 49 61 68 65 56 68 96 100 100 100 94 83 80 75 66 62 51 40 29 28 36 34 72 85 99 100 100 100 79 34 27 39 57
24 11 12 15 21 27 31 24 31 52 65 70 71 78 78 68 75 90 100 100 100 97 92 82 76 72 59 48 41 29 32 36 37 82 92 100 100 100 100 77 45 37 34
12 14 20 22 24 34 36 24 38 64 79 78 74 73 76 90 83 80 92 100 100 100 98 93 88 84 71 58 51 43 30 36 35 37 85 92 100 100 100 100 83 64 49
16 20 24 26 27 40 39 26 44 70 89 97 92 85 85 86 92 96 100 100 100 100 100 100 94 87 80 66 64 55 44 31 37 35 37 81 91 100 100 100 100 79 65
22 24 29 32 32 43 42 27 46 76 84 92 93 92 96 94 96 96 97 100 100 100 100 100 100 96 84 80 69 68 58 43 31 37 36 35 83 91 100 100 100 100 83
27 29 35 40 39 45 42 27 38 74 88 89 90 89 89 96 100 100 100 99 100 100 100 100 100 100 96 100 80 74 71 58 41 32 40 38 34 77 89 98 100 100 100
31 43 46 48 47 46 39 28 38 66 81 87 89 90 86 87 93 98 100 100 100 100 100 100 100 100 100 98 90 79 80 69 56 40 34 41 41 34 64 90 97 100 100
33 45 43 42 44 43 36 30 43 74 80 80 80 85 83 82 89 98 100 100 100 100 100 100 100 100 100 100 100 91 90 85 67 54 41 36 43 44 36 49 93 100 100
36 44 42 35 38 39 36 30 44 79 91 91 91 92 90 93 98 100 100 100 100 100 100 100 100 100 99 100 100 100 100 99 87 68 57 45 40 48 48 40 45 92 100
44 43 36 29 31 35 35 32 47 83 100 100 100 100 100 100 100 100 100 100 100 100 100 100 100 100 100 100 100 100 100 100 100 88 72 63 48 44 54 53 44 50 84

GFSGL_500_rhum_051.txt.gz
RH
27 33 35 37 36 37 40 51 70 75 78 75 72 77 81 76 64 51 39 34 30 14 8 9 11 23 40 37 39 38 33 36 28 20 25 27 24 24 25 26 24 23 22
27 33 35 40 43 41 44 65 77 82 80 83 87 87 80 65 51 41 34 30 14 8 9 11 19 44 46 46 47 40 36 34 29 27 27 25 28 28 22 19 20 21 21
28 33 40 47 46 45 62 84 89 90 95 98 94 85 74 57 44 36 27 11 9 10 12 23 54 59 59 61 47 38 34 31 32 28 26 30 24 26 30 40 48 47 47
33 41 50 55 51 65 87 96 98 100 99 97 90 82 64 48 40 28 12 9 11 13 24 58 62 69 73 49 40 37 35 31 29 29 31 26 35 51 60 65 66 69 67
44 53 53 51 70 87 97 99 100 100 100 92 83 67 50 41 28 11 10 12 13 21 58 67 74 70 52 43 36 37 31 28 29 32 27 41 59 70 80 86 80 82 80
52 54 54 74 94 100 100 100 100 98 93 85 74 53 48 33 13 9 12 13 19 47 69 77 66 58 44 34 34 30 29 29 33 26 41 62 77 92 93 90 89 89 78
51 56 76 99 97 100 100 99 96 90 85 73 58 52 36 15 10 14 14 20 35 71 74 69 67 53 36 38 29 27 27 31 27 36 61 83 95 98 92 94 98 85 94
67 90 96 97 100 100 99 96 93 88 83 68 56 40 16 9 14 15 18 27 67 80 81 72 66 42 40 33 28 26 30 29 28 51 73 86 91 95 96 97 90 38 41
96 95 95 100 100 100 100 100 99 93 79 66 45 21 9 14 17 18 25 39 88 92 83 80 56 47 40 33 28 26 32 28 45 68 81 94 97 100 99 100 81 37 40
94 96 100 100 100 100 100 100 93 85 68 48 20 9 14 16 18 24 30 59 100 100 94 76 53 55 42 35 29 26 31 30 56 82 88 95 96 100 100 98 58 37 42
98 100 100 100 100 100 98 96 89 71 54 22 9 14 18 20 23 31 39 89 100 100 100 70 59 54 45 39 30 25 29 31 61 81 86 100 100 94 100 100 70 37 45
100 100 100 100 100 100 96 88 69 49 24 9 14 20 20 25 31 32 46 95 100 100 97 70 68 61 52 43 33 25 28 30 54 81 90 100 99 86 96 100 87 51 46
100 100 100 100 99 95 82 64 38 14 11 15 22 22 26 31 37 37 58 100 100 100 93 78 72 66 60 51 40 26 26 31 49 79 95 97 99 95 74 100 100 92 80
100 100 100 98 96 78 48 21 11 12 17 26 25 30 38 43 51 43 65 100 100 100 93 87 77 75 65 58 45 32 24 31 37 74 94 100 100 100 57 93 100 100 100
100 100 99 89 68 38 16 10 14 20 25 31 28 38 52 61 64 57 60 98 100 100 97 88 79 75 67 60 50 39 26 27 32 53 86 100 100 100 95 42 99 100 100
100 95 76 47 20 11 10 14 21 24 32 35 31 53 70 71 74 69 63 91 100 100 98 96 88 82 73 69 59 45 34 26 33 34 74 96 100 100 100 69 34 100 100
82 52 20 15 12 12 17 20 23 27 35 37 38 63 79 80 77 81 78 71 94 99 99 100 99 95 83 77 70 56 43 31 29 35 39 89 100 100 100 100 54 33 45
28 17 13 12 17 21 22 23 27 29 39 40 36 70 93 89 87 87 86 92 88 89 97 100 100 100 97 90 78 65 57 44 31 31 35 53 96 100 100 100 100 60 44
15 15 16 19 24 25 26 29 38 40 44 40 39 76 95 100 100 99 99 97 100 100 100 100 100 100 100 98 86 74 64 59 47 31 32 35 60 96 100 100 100 100 76
21 18 17 20 25 29 33 41 48 47 47 39 38 85 99 96 99 100 100 100 100 100 98 100 100 100 100 100 98 88 92 70 60 48 31 34 35 57 94 100 100 100 100
23 18 21 28 29 32 37 46 45 46 46 38 38 80 100 100 100 97 96 100 100 100 100 100 100 100 100 100 98 100 100 84 65 58 44 31 34 35 52 91 100 100 100
21 21 28 34 37 40 42 47 40 39 41 37 38 71 98 100 100 100 95 94 99 100 100 100 100 98 100 99 100 100 96 93 72 67 57 42 31 34 35 45 88 100 100
22 23 26 31 39 45 45 45 38 32 38 38 38 72 99 98 100 100 99 96 100 100 100 100 100 100 100 100 99 100 100 100 92 83 71 56 43 32 34 37 38 81 100
23 23 22 22 26 32 38 37 32 30 33 37 43 77 100 100 100 100 100 100 100 100 100 100 100 100 100 100 100 100 100 99 97 94 90 73 56 45 33 35 39 35 69
20 22 22 23 25 26 27 28 28 30 33 39 51 89 100 100 100 100 100 100 100 100 100 100 100 100 100 100 100 100 100 100 98 95 96 91 74 58 46 35 38 42 37
23 22 22 22 25 26 27 28 30 33 39 53 77 100 100 100 100 100 100 100 100 100 100 100 100 100 100 100 100 100 100 100 100 100 100 100 90 80 62 50 38 42 48

GFSGL_500_rhum_054.txt.gz
RH
19 20 21 22 26 29 36 45 50 54 55 67 89 89 83 85 82 81 80 71 56 40 28 14 8 10 11 14 27 56 60 58 52 40 34 24 22 26 27 25 23 23 23
21 23 25 26 32 39 50 55 59 55 67 89 88 83 86 91 87 82 73 61 42 30 15 8 10 12 13 28 55 63 69 63 46 32 22 29 27 26 25 26 26 22 20
24 28 29 31 41 51 58 61 59 74 91 91 87 94 90 90 83 81 69 50 32 15 8 11 12 14 29 62 67 72 58 50 31 30 28 27 26 27 26 24 25 31 42
32 32 34 41 56 62 60 64 87 96 99 100 100 98 96 89 82 72 54 39 16 8 11 14 16 25 66 69 74 62 50 31 32 26 24 25 28 26 25 35 47 55 64
36 37 46 58 62 64 82 98 99 100 100 100 100 100 99 92 79 50 37 21 8 10 14 16 26 55 66 71 67 54 37 32 27 24 25 29 26 30 49 59 66 73 82
37 51 62 58 83 99 100 98 100 100 100 100 100 100 97 85 57 37 17 9 10 15 16 23 52 73 75 73 64 38 36 30 26 23 27 26 33 54 62 77 84 88 85
57 58 53 91 100 100 100 100 100 100 100 100 100 95 90 63 37 16 10 11 15 17 23 32 80 88 80 78 48 40 34 29 25 22 26 30 48 68 84 92 98 91 89
50 62 94 98 100 97 100 100 100 100 100 100 99 89 63 43 18 10 12 16 19 24 29 59 98 97 92 69 46 42 38 31 24 24 27 39 63 79 89 91 95 92 83
62 94 100 100 100 100 100 100 100 100 100 98 88 64 37 17 10 11 17 20 23 30 38 86 100 100 87 61 51 45 40 30 24 26 32 53 83 89 91 92 92 93 57
100 100 100 100 100 100 100 100 100 100 100 91 56 26 12 10 12 20 22 22 30 34 62 100 100 100 84 62 56 49 43 32 23 28 39 66 88 90 94 85 90 94 37
98 100 97 100 100 100 100 100 100 99 86 57 25 11 11 14 21 25 27 31 39 39 89 100 100 100 82 66 60 55 46 35 24 27 38 67 90 92 95 82 92 96 54
100 100 100 100 100 100 100 99 95 77 46 17 11 11 17 22 29 27 39 44 47 44 93 100 100 100 86 74 68 58 48 39 27 25 32 64 90 94 96 83 90 100 83
100 100 100 100 100 100 100 83 52 23 10 11 13 19 24 30 33 31 48 60 59 53 88 100 100 100 93 76 74 64 58 46 32 25 31 59 83 98 98 92 74 100 96
100 100 100 100 100 93 62 32 11 10 11 15 21 23 28 37 37 48 58 66 70 63 87 100 100 100 99 84 82 74 66 52 38 26 32 44 84 99 100 100 53 99 100
100 100 100 99 75 39 17 13 11 13 18 23 26 29 33 39 40 58 76 71 69 73 87 100 100 100 100 96 93 83 73 61 46 30 29 34 72 97 100 100 82 49 100
100 97 73 42 24 21 16 14 14 16 22 27 36 43 45 44 42 64 88 85 76 81 82 83 100 100 100 100 100 98 85 68 54 44 29 34 44 97 100 100 100 47 60
72 47 27 29 28 23 20 18 16 20 26 30 40 51 51 47 42 73 96 99 97 96 94 96 95 99 100 100 100 100 96 78 69 58 44 30 35 68 100 100 100 89 45
31 30 33 35 36 23 22 19 20 26 28 32 43 48 50 46 41 77 98 100 100 100 100 99 100 100 100 100 100 100 100 92 85 85 58 38 32 36 88 100 100 100 78
30 31 36 46 40 27 26 19 23 29 36 38 44 44 44 44 40 82 100 100 100 100 100 100 100 100 100 100 100 100 100 100 99 100 72 55 34 33 39 94 100 100 100
43 59 61 51 35 29 25 19 22 26 35 37 42 41 38 41 37 72 100 100 100 100 99 99 100 100 100 100 100 100 98 100 100 100 85 65 52 31 33 40 96 100 100
66 57 44 34 29 24 21 19 22 24 28 40 46 43 34 38 40 56 93 100 100 100 100 100 99 100 100 100 100 98 97 97 99 97 95 75 68 48 30 33 38 96 100
44 38 33 28 22 19 20 22 23 25 30 31 35 35 32 35 42 70 100 100 100 100 100 100 100 100 100 100 100 100 100 98 97 96 98 93 83 67 44 30 32 35 85
33 29 23 16 15 17 21 23 23 25 28 28 29 29 31 37 46 70 100 100 100 100 100 100 100 100 100 100 100 100 100 100 100 97 95 92 88 81 63 44 30 32 35
24 16 13 15 21 25 24 22 22 23 25 28 30 31 36 46 63 92 100 100 100 100 100 100 100 100 100 100 100 100 100 100 99 100 96 92 89 87 78 62 47 32 33
13 14 24 27 24 21 20 19 20 22 24 27 30 37 46 60 92 100 100 100 100 100 100 100 100 100 100 100 100 100 100 100 98 100 98 96 91 89 88 79 69 52 34
23 26 22 18 18 18 18 18 19 22 24 28 32 42 57 76 100 100 100 100 100 100 100 100 100 100 100 100 100 100 100 100 100 99 100 100 97 91 96 96 87 74 55

GFSGL_500_rhum_057.txt.gz
RH
15 16 19 20 24 29 34 33 39 48 57 60 64 82 99 100 98 88 91 90 94 92 85 63 42 15 8 9 14 15 20 40 46 44 53 52 42 25 26 27 26 25 24
18 19 21 26 32 37 36 37 50 58 53 70 94 100 96 87 88 94 97 100 100 92 63 40 16 8 9 15 16 20 48 58 63 49 53 29 31 26 23 21 22 24 24
40 27 32 38 40 38 40 56 57 55 89 100 100 96 93 85 97 100 100 100 94 68 40 14 8 10 16 16 20 44 65 72 67 54 29 31 26 24 22 22 25 26 24
33 40 43 42 38 49 63 57 64 99 100 98 93 93 97 98 100 100 99 93 72 41 14 8 10 16 18 22 46 75 76 73 66 35 34 29 25 22 22 24 24 31 45
44 41 37 39 59 66 54 82 100 100 100 100 100 100 100 100 100 100 95 75 41 16 9 10 16 18 21 37 77 89 82 78 46 39 34 29 23 22 23 26 37 48 72
39 34 46 64 57 49 94 100 100 100 100 100 97 100 100 100 100 96 70 38 12 9 12 19 20 21 29 66 98 98 89 63 42 35 32 27 21 22 26 39 53 67 74
39 58 59 49 65 100 100 100 100 100 91 97 100 100 100 96 87 60 24 10 10 14 21 22 23 28 52 89 100 99 81 51 42 38 32 25 22 25 34 57 72 74 83
52 46 56 96 100 100 100 100 96 100 100 100 100 99 93 80 36 12 9 11 16 23 25 25 30 35 90 100 100 100 72 56 50 44 33 24 22 29 42 64 75 87 72
47 90 100 100 94 99 100 100 100 100 100 100 100 96 54 17 10 10 11 16 20 29 28 30 37 44 93 100 100 97 74 63 56 43 34 24 23 33 54 75 82 84 67
96 96 97 99 93 96 100 100 100 100 100 100 83 27 13 10 10 13 18 22 27 32 34 40 44 62 93 100 100 95 78 68 57 48 36 24 24 39 66 81 85 90 63
100 100 100 100 100 100 100 99 100 98 94 75 32 14 11 11 15 18 22 27 34 36 46 57 52 76 99 100 100 97 77 68 62 51 39 25 27 43 76 91 92 91 67
100 100 100 100 100 100 100 100 100 95 50 22 16 14 12 14 19 22 27 36 39 42 54 66 62 70 98 100 100 98 82 75 67 59 44 28 28 40 85 96 98 94 66
100 100 100 100 100 100 100 99 61 29 31 32 20 19 15 21 26 31 37 42 42 53 62 68 70 77 95 100 100 100 97 90 81 67 50 34 28 34 87 100 97 99 60
89 94 100 100 100 95 75 39 32 36 43 43 29 22 17 24 28 35 48 48 45 73 79 74 74 76 90 100 100 100 100 100 95 75 56 43 28 32 72 100 98 100 54
96 92 85 87 75 48 33 35 44 50 51 43 28 22 20 27 30 36 47 50 45 71 90 91 88 92 90 97 100 100 100 100 98 87 74 58 34 32 48 100 100 100 71
32 30 44 58 46 35 34 51 50 42 38 32 27 22 22 32 33 40 45 48 43 63 96 99 93 97 100 100 100 100 100 100 100 100 86 83 53 32 35 89 100 100 96
13 33 51 48 40 38 56 46 33 33 34 29 24 23 24 28 35 43 42 43 42 67 97 100 92 96 100 100 100 100 100 100 100 100 100 99 72 40 32 55 100 100 100
22 38 47 42 40 61 54 36 36 34 27 22 22 23 25 26 40 45 41 38 41 55 94 100 99 95 100 100 96 100 100 100 99 100 100 96 87 56 34 33 86 100 100
42 41 36 47 70 59 36 32 28 25 19 16 15 24 27 27 32 46 45 36 40 61 94 100 100 100 98 98 97 100 100 100 100 100 97 94 89 67 52 31 38 100 100
50 56 72 79 52 38 32 24 20 16 15 17 21 24 25 26 28 35 39 37 44 67 100 100 100 100 100 100 100 100 100 100 100 100 96 92 90 86 71 43 31 43 100
77 78 61 41 34 24 19 16 14 16 21 26 26 25 25 25 28 31 33 37 49 79 100 100 100 100 100 100 98 96 100 100 100 100 99 95 93 92 82 61 36 32 48
57 43 33 24 18 16 15 16 23 27 27 26 24 24 25 27 29 31 33 40 57 89 100 100 100 100 100 100 100 100 100 100 97 98 99 94 91 90 84 76 53 34 33
35 26 20 16 15 16 23 26 24 22 21 21 21 22 24 26 28 31 36 49 79 100 100 100 100 100 100 100 100 100 100 100 100 100 99 98 94 90 86 82 71 52 35
24 17 16 15 19 22 16 15 18 20 22 21 20 20 24 26 27 33 52 76 98 100 100 100 100 100 100 100 100 100 100 100 100 100 100 100 99 95 90 87 82 70 56
16 15 17 21 17 12 15 19 21 20 20 20 21 23 25 28 32 36 57 84 100 100 100 100 100 100 100 100 100 100 100 100 100 100 100 100 100 100 97 91 86 84 77
15 22 20 12 13 16 16 15 16 18 20 23 26 28 32 36 38 44 52 84 100 100 100 100 100 100 100 100 100 100 100 100 100 100 100 100 100 100 99 97 92 91 94

GFSGL_500_rhum_060.txt.gz
RH
19 27 48 70 82 100 79 54 47 42 41 56 71 74 82 99 100 99 98 92 81 86 95 100 100 96 68 24 9 8 9 14 16 17 30 56 60 54 45 27 27 25 23
29 29 30 48 65 100 58 42 35 38 58 66 53 61 85 89 84 80 86 90 94 100 100 100 90 51 12 8 9 12 18 19 20 40 64 65 68 47 28 28 26 24 21
38 54 76 56 60 40 37 36 48 61 54 46 67 87 94 86 86 90 87 92 100 100 97 85 36 8 8 9 15 22 21 24 53 76 77 76 55 33 29 28 25 22 20
85 70 43 44 38 36 42 61 59 49 64 86 91 96 95 98 100 100 100 100 100 90 54 13 8 9 12 18 23 24 28 63 98 99 85 69 41 38 31 27 22 19 21
46 34 33 34 36 49 60 53 53 88 95 100 100 100 100 100 100 100 100 95 80 33 10 8 9 12 18 24 26 30 56 100 100 95 84 54 45 39 30 24 19 20 27
34 36 34 35 58 54 49 73 100 100 100 95 99 100 100 100 100 98 91 56 19 10 9 11 16 20 27 27 30 44 96 100 100 97 69 49 46 35 28 21 20 26 47
28 32 53 53 47 61 92 100 100 100 100 100 100 100 100 100 100 87 48 19 12 10 11 18 21 28 32 33 38 63 100 99 92 83 59 55 46 35 28 21 25 34 54
42 53 49 53 78 99 99 99 99 99 100 100 100 100 99 97 72 37 18 15 11 13 18 22 25 34 37 46 45 89 100 100 99 78 66 58 48 36 26 21 29 54 73
47 44 56 86 93 90 94 95 94 98 100 100 100 100 96 51 29 25 23 17 14 18 23 27 32 39 45 54 56 99 100 100 99 82 69 60 46 36 25 23 34 61 79
46 64 81 93 94 97 92 91 100 100 100 100 100 76 38 33 26 27 22 18 17 24 28 36 40 47 54 60 66 100 100 100 100 88 77 65 49 38 25 23 36 71 84
69 95 98 97 97 91 87 92 90 86 89 89 66 38 40 31 22 24 24 20 20 26 37 46 46 59 64 66 75 99 100 100 100 99 89 74 55 43 26 26 44 81 91
99 100 100 91 76 70 84 90 60 66 70 62 40 41 47 26 25 29 27 21 23 27 44 51 49 69 71 71 75 94 100 100 100 100 95 85 64 48 29 28 49 90 92
100 96 77 59 41 27 14 22 39 72 60 47 37 56 41 27 31 30 25 21 24 31 45 51 52 74 77 79 83 86 95 100 100 100 100 95 76 58 35 31 50 98 90
81 62 39 12 5 7 11 24 52 55 42 38 57 62 34 30 31 25 22 20 26 35 45 48 55 81 90 89 94 90 89 98 99 100 100 99 84 77 51 31 45 99 93
43 13 5 5 6 11 26 51 49 34 41 67 70 44 33 30 24 20 18 19 25 36 43 45 50 82 97 100 99 97 94 100 100 100 100 99 93 91 75 34 33 90 97
7 5 5 6 10 24 44 47 44 63 75 68 43 41 30 21 18 18 18 21 25 37 44 42 46 78 100 100 100 100 97 100 100 100 97 96 93 94 85 46 31 67 98
5 5 6 8 14 30 49 60 51 43 46 41 38 27 19 16 16 20 23 25 26 31 47 42 44 68 98 100 100 100 100 98 98 99 98 100 95 96 86 60 33 38 91
6 6 8 11 25 43 48 50 51 42 34 26 20 18 16 18 25 27 27 27 27 31 41 43 44 71 99 100 100 100 100 100 96 97 98 100 99 97 86 70 44 31 74
7 8 12 19 32 47 50 48 39 28 22 17 16 18 24 27 28 27 26 26 27 32 35 40 48 78 100 100 100 100 100 100 98 95 97 100 98 95 87 82 66 33 37
8 10 17 32 41 44 40 30 24 17 16 16 19 24 26 26 25 26 27 27 30 32 34 41 57 92 100 100 100 100 100 100 97 92 94 97 97 97 90 87 77 48 30
10 16 29 38 36 30 26 18 15 15 18 21 19 16 19 21 23 24 25 31 31 32 37 49 75 100 100 100 100 100 100 100 100 97 98 98 98 98 94 91 78 64 38
20 34 37 34 27 18 14 15 19 21 18 14 16 20 24 25 24 24 24 29 30 34 48 74 97 100 100 100 100 100 100 100 100 100 100 100 100 100 98 92 83 74 56
41 42 34 21 15 15 20 24 16 13 16 18 20 20 21 22 23 24 26 26 32 37 63 90 100 100 100 100 100 100 100 100 100 100 100 100 100 100 100 97 91 81 73
45 34 18 16 17 28 22 11 13 18 18 17 16 16 17 19 21 22 26 29 32 40 62 87 100 100 100 100 100 100 100 100 100 100 100 100 100 100 100 100 98 90 83
31 17 17 18 29 24 11 11 12 14 15 15 15 15 16 18 23 27 32 37 38 39 63 88 100 100 100 100 100 100 100 100 100 100 100 100 100 100 100 100 100 98 93
18 20 19 30 28 12 11 11 11 12 13 15 16 17 18 22 29 42 53 57 57 53 54 78 100 100 100 100 100 100 100 100 100 100 100 100 100 100 100 100 100 100 99

GFSGL_500_rhum_063.txt.gz
RH
18 15 12 21 21 27 56 74 100 68 64 46 40 57 65 49 66 96 100 99 94 99 99 98 100 100 100 79 31 8 7 8 9 11 18 21 22 27 47 65 69 60 40
20 38 79 84 94 95 51 50 58 65 35 44 65 63 61 83 100 91 87 86 87 93 100 100 100 94 54 15 8 8 9 12 15 22 24 25 43 78 78 76 75 44 33
61 76 75 93 62 48 22 37 28 35 50 57 53 61 93 92 88 91 93 97 100 100 100 98 85 41 12 8 8 12 16 20 26 26 28 43 90 98 94 77 45 38 34
98 97 92 77 36 22 22 29 42 52 47 47 67 87 89 89 95 100 100 100 100 100 91 68 26 11 10 9 13 19 22 30 30 32 46 77 98 99 83 56 45 40 32
88 91 74 21 16 21 31 48 51 43 53 74 87 92 94 100 100 100 100 100 95 89 51 20 13 11 10 13 20 23 30 33 36 43 87 100 100 92 69 52 44 36 28
88 48 21 17 26 39 49 45 44 66 86 98 95 95 99 100 100 100 100 94 83 39 22 16 14 14 15 20 26 31 36 38 44 69 100 100 100 82 59 52 41 33 25
36 17 22 35 47 47 42 52 75 97 99 91 97 98 89 96 88 81 86 63 41 32 17 16 18 17 20 26 35 40 42 48 52 87 100 100 96 69 62 53 41 32 23
18 27 40 48 45 44 66 94 97 92 91 94 80 68 84 96 64 61 61 43 46 27 19 20 20 19 24 34 43 45 55 58 63 92 98 94 84 76 69 55 41 28 22
35 48 50 43 54 86 99 97 94 87 73 45 29 80 100 42 54 58 43 45 57 28 25 24 21 20 27 42 49 54 68 66 74 94 93 94 89 84 75 56 42 26 25
54 49 50 58 87 94 97 92 76 49 18 6 20 15 31 54 53 40 39 59 57 30 30 24 20 21 32 49 51 63 73 71 83 96 97 96 91 91 78 60 44 27 26
52 45 59 86 90 92 82 63 26 7 5 5 6 16 45 52 38 35 61 65 39 33 28 20 19 23 37 50 52 75 77 76 83 100 99 96 99 96 84 69 49 29 28
37 62 86 88 84 72 46 12 5 5 6 9 18 37 60 39 47 65 62 40 35 29 22 17 20 25 39 48 51 77 88 84 83 94 97 100 100 94 91 80 68 36 28
70 85 84 78 62 34 8 5 6 6 9 13 32 46 50 61 67 52 40 34 27 20 17 17 22 30 44 48 48 80 100 94 95 98 98 100 95 89 96 95 86 49 30
90 85 73 49 18 6 5 6 6 8 15 24 36 48 48 47 47 43 33 24 19 18 18 21 27 37 52 48 47 80 100 100 100 100 98 100 95 90 95 94 89 59 31
81 62 36 10 6 6 6 6 7 10 18 25 34 46 51 43 37 30 22 17 18 22 27 29 32 36 55 51 50 89 100 100 97 97 97 100 98 93 99 91 86 62 32
54 30 9 6 6 6 6 6 8 10 17 30 39 43 36 31 25 19 17 18 24 28 29 28 31 34 50 53 59 98 100 100 100 100 99 99 98 96 98 89 86 68 37
29 12 7 7 7 7 7 8 7 10 29 34 32 30 26 19 17 22 27 23 27 28 30 27 29 33 45 50 61 99 100 100 100 100 100 99 96 93 92 92 86 74 46
9 8 8 8 8 8 9 12 25 34 32 22 17 15 15 17 21 22 23 23 25 28 29 27 26 34 44 48 66 100 100 100 100 100 100 100 96 93 90 92 86 81 58
8 9 9 10 10 10 15 28 35 28 18 14 15 18 23 21 17 18 22 24 26 27 27 26 27 34 41 48 78 100 100 100 100 100 100 100 100 97 96 95 89 84 66
10 10 10 11 12 18 32 32 25 15 15 15 24 24 12 12 17 23 26 26 26 26 27 27 33 42 43 60 93 100 100 100 100 100 100 100 100 100 100 96 93 84 71
11 12 12 13 23 33 32 22 15 15 16 26 21 10 11 15 18 20 23 24 25 26 28 29 38 45 60 93 100 100 100 100 100 100 100 100 100 100 100 98 94 89 77
12 13 15 27 38 34 22 16 17 19 27 23 11 10 12 14 15 15 16 18 20 24 29 31 39 49 95 100 100 100 100 100 100 100 100 100 100 100 100 99 96 95 89
15 20 36 46 40 27 19 20 21 24 23 12 11 10 11 13 14 16 16 18 22 24 28 36 36 50 95 100 100 100 100 100 100 100 100 100 100 100 100 100 100 100 96
28 44 51 48 39 25 22 24 22 22 14 13 12 13 15 17 18 19 19 20 23 28 30 38 40 45 95 100 100 100 100 100 100 100 100 100 100 100 100 100 100 100 100
48 54 53 46 31 24 27 24 20 15 14 13 12 12 14 16 17 17 18 23 31 39 52 54 50 57 85 100 100 100 100 100 100 100 100 100 100 100 100 100 100 100 100
55 57 55 36 25 29 26 18 16 15 15 13 13 14 16 19 18 18 21 33 64 94 100 100 89 78 86 100 100 100 100 100 100 100 100 100 100 100 100 100 99 100 100

GFSGL_500_rhum_069.txt.gz
RH
41 29 29 37 50 89 98 85 93 99 100 97 100 100 100 54 40 51 45 49 63 75 85 84 59 23 7 10 13 15 26 37 36 30 24 22 14 14 17 21 27 33 33
53 58 65 76 96 98 79 97 87 100 100 100 98 100 76 41 52 47 48 56 77 86 78 42 9 6 6 8 18 34 47 43 43 30 26 19 15 18 22 30 38 39 47
82 86 97 98 96 94 92 97 100 100 88 96 98 84 43 53 48 43 50 80 83 68 29 7 6 6 8 16 42 50 45 48 39 31 24 19 16 22 31 40 44 47 72
98 99 98 98 98 94 82 100 100 73 31 56 26 44 53 46 40 60 83 80 61 25 8 5 6 7 13 33 51 46 50 50 37 29 23 18 19 28 40 44 51 67 91
98 100 98 80 64 93 98 99 77 25 87 40 50 52 44 41 71 83 79 55 25 8 6 6 7 12 24 40 44 50 60 48 38 28 20 18 24 38 45 52 53 81 100
83 92 52 17 100 48 20 13 32 71 42 54 52 39 42 82 84 80 54 27 9 6 6 7 9 14 29 41 53 62 54 47 35 24 18 20 31 47 50 58 63 87 97
25 24 12 9 11 12 16 19 26 40 53 46 38 52 81 88 76 48 24 11 8 7 8 8 10 22 40 53 59 57 52 41 27 20 19 24 37 51 58 64 70 85 98
10 12 13 14 16 18 21 29 43 46 38 38 67 83 85 72 43 23 12 8 8 8 9 10 16 27 44 53 55 44 37 28 21 19 22 32 45 55 66 70 79 90 98
16 18 23 25 24 27 35 44 42 39 54 79 86 84 70 45 23 14 9 9 9 9 10 15 28 38 45 43 36 29 23 21 20 22 27 40 52 64 78 77 83 87 89
30 34 33 32 35 38 42 40 48 70 83 87 84 70 52 33 15 10 10 10 10 10 11 21 37 40 33 25 21 21 21 24 24 27 36 49 56 72 92 89 88 85 86
42 43 44 44 42 41 46 62 79 85 86 84 74 56 35 17 11 10 10 10 11 12 17 20 19 19 18 20 22 23 27 28 29 32 39 60 59 78 99 100 94 86 86
48 53 52 46 47 58 71 81 86 86 84 74 59 44 22 12 10 11 12 12 16 21 23 17 14 17 20 26 26 32 42 33 30 29 38 65 62 82 99 100 96 92 87
61 59 53 59 69 74 82 87 90 86 73 57 42 28 16 11 11 11 10 12 22 28 17 14 15 22 26 25 26 44 52 44 34 30 39 64 63 94 100 100 98 100 98
66 65 76 78 81 87 88 87 84 73 59 41 24 14 12 12 11 10 10 14 20 17 15 15 23 22 13 21 100 96 76 82 53 33 39 61 76 100 100 100 100 100 100
81 83 83 88 93 92 90 86 77 60 37 21 12 12 12 11 10 11 15 20 17 14 14 18 20 10 14 60 100 100 96 80 51 40 39 60 80 100 100 100 100 100 100
86 85 91 92 91 89 86 82 63 38 18 12 13 13 13 13 15 16 23 16 14 14 14 17 12 13 23 93 100 96 82 66 61 43 49 65 93 100 100 100 100 100 100
88 95 93 91 91 88 86 78 48 18 12 13 14 14 15 18 22 26 18 14 13 9 14 12 12 16 23 30 41 47 38 36 40 44 64 77 99 100 100 100 100 100 100
98 97 94 99 100 96 88 68 32 16 14 14 14 16 22 24 30 23 15 15 8 10 13 12 13 16 18 22 27 28 28 31 34 63 74 93 100 100 100 100 100 100 100
95 96 100 100 100 95 79 35 18 15 14 14 15 26 31 37 30 17 17 11 7 10 11 12 14 15 16 18 19 23 28 32 42 66 82 100 100 100 100 100 100 100 100
100 100 100 100 95 78 37 20 15 15 15 18 28 33 34 35 20 19 17 8 9 10 10 10 12 17 19 19 20 22 27 34 51 67 97 100 100 100 100 100 100 100 100
100 100 100 97 76 36 21 17 16 18 23 38 43 42 40 28 21 20 14 8 9 10 10 10 10 14 22 24 25 25 33 47 56 75 100 100 100 100 100 99 100 100 100
100 100 97 74 39 23 17 18 22 30 51 59 49 49 40 27 27 19 10 9 10 11 11 10 14 21 23 27 43 47 45 61 75 87 100 100 100 100 100 100 100 100 100
100 96 78 48 25 18 21 28 39 59 77 70 61 54 35 32 26 14 10 11 13 13 12 14 22 25 23 37 60 66 71 78 99 100 100 100 100 100 100 100 100 100 100
98 81 50 26 22 26 38 55 69 76 79 75 68 43 35 33 20 13 13 15 16 16 16 22 28 25 22 28 63 77 83 86 98 100 100 100 100 100 100 100 100 100 100
86 51 31 26 32 50 69 77 77 82 81 71 45 39 37 24 16 15 16 20 21 20 25 33 31 27 28 38 57 67 80 77 98 100 100 100 100 100 100 100 100 100 100
55 31 31 44 61 69 78 81 83 79 61 45 42 39 26 20 20 20 23 27 26 28 36 41 36 34 36 60 97 100 100 100 100 100 100 100 100 100 100 100 100 100 100

GFSGL_500_rhum_072.txt.gz
RH
60 64 76 76 67 59 82 100 99 96 97 100 100 100 100 100 89 63 76 36 53 52 37 56 82 74 57 28 12 7 8 8 8 8 22 31 38 38 37 32 23 17 16
88 80 62 53 70 89 97 99 98 100 100 100 100 99 95 98 41 50 67 53 54 41 65 76 73 55 29 12 8 8 8 8 11 12 28 46 50 44 42 30 22 17 22
80 66 55 77 92 99 99 99 98 97 100 100 100 99 90 76 40 57 54 56 39 68 77 74 57 32 13 9 9 8 9 10 16 30 41 54 55 51 39 28 19 19 35
60 64 96 96 99 98 99 94 28 72 100 100 92 82 69 42 41 56 53 39 70 77 76 57 36 17 10 10 9 9 10 14 28 43 50 54 53 43 32 23 19 25 44
53 73 95 97 90 95 96 33 60 98 99 57 79 93 49 40 57 44 43 74 80 78 61 41 24 13 11 10 10 10 15 26 38 47 49 45 36 30 24 21 20 31 52
69 98 78 29 36 32 14 11 13 34 14 73 25 33 50 48 38 57 80 83 80 67 47 26 15 13 12 10 10 13 21 34 41 40 34 27 23 23 22 22 25 43 58
54 59 33 14 12 13 16 18 21 22 24 29 36 43 42 45 73 86 87 80 69 51 29 17 14 12 11 9 11 17 22 22 21 20 20 22 23 24 25 29 37 53 67
34 15 14 16 18 24 31 34 35 38 41 41 42 44 59 80 89 88 82 67 50 31 20 16 13 11 10 14 20 25 22 17 17 18 21 24 25 30 32 38 55 63 81
15 16 18 23 29 35 37 43 47 50 47 44 54 68 82 88 86 83 66 52 38 24 19 15 12 9 12 16 20 20 16 18 21 24 27 28 33 34 39 45 65 81 97
18 21 27 32 38 42 48 55 56 52 53 66 77 85 81 82 81 69 50 39 30 26 21 14 9 9 12 20 16 15 16 24 26 27 28 43 35 31 39 56 69 97 100
24 27 33 39 46 54 59 63 60 67 76 81 85 83 82 79 72 60 42 25 19 19 14 10 9 12 13 14 15 15 20 24 20 24 45 54 42 31 36 62 83 100 100
33 37 42 47 54 66 70 72 79 80 78 81 82 81 75 73 68 56 33 17 14 13 11 10 11 12 12 12 13 16 19 15 20 58 87 98 75 38 38 62 81 99 99
41 46 51 63 75 81 86 86 80 80 81 80 80 77 73 72 66 45 25 18 15 11 10 10 11 10 11 10 9 16 14 14 55 100 95 88 88 45 42 62 87 98 96
58 62 74 89 91 90 85 82 82 83 82 84 83 81 78 71 55 33 25 18 13 11 12 12 10 11 11 6 11 12 12 18 90 100 96 100 87 47 46 64 98 97 97
76 88 98 95 90 86 82 85 87 88 86 83 84 83 75 58 44 34 22 15 12 14 14 13 12 13 8 8 11 11 14 27 67 96 89 93 50 48 58 73 100 100 100
100 100 93 89 90 89 85 84 96 92 87 89 87 80 64 51 40 24 16 15 22 21 19 14 15 12 7 9 10 12 16 22 30 35 42 38 41 50 76 89 100 100 100
88 88 88 89 88 84 89 98 95 91 98 94 84 68 54 40 25 18 18 27 28 26 18 17 17 10 9 10 11 12 14 17 21 24 27 31 35 66 86 98 100 100 100
92 91 91 90 88 92 97 97 99 100 97 90 77 56 38 27 21 21 28 40 37 32 21 20 16 9 10 10 11 13 16 17 19 22 25 32 48 78 91 100 100 100 100
100 98 94 89 89 94 99 100 100 99 95 86 72 50 35 26 28 36 46 49 46 34 24 22 13 9 11 11 11 12 17 20 20 21 27 36 62 84 100 100 100 100 100
100 99 100 98 99 100 100 100 100 100 93 80 63 46 27 30 41 49 56 56 51 30 28 19 11 10 12 12 12 19 23 28 30 31 33 54 77 93 100 100 100 100 100
100 100 99 100 100 100 100 100 100 93 87 73 55 37 38 44 51 52 57 52 34 32 26 16 12 12 14 14 14 22 29 46 57 58 58 76 92 100 100 100 100 100 100
100 100 100 100 100 100 100 97 93 89 79 56 43 42 48 58 59 64 53 36 35 29 20 17 15 15 17 16 21 28 28 58 99 90 100 98 100 100 100 100 100 100 95
100 100 100 100 100 100 97 96 88 69 49 44 42 42 51 61 62 45 38 38 30 23 22 21 19 22 21 22 29 29 26 60 100 100 100 100 100 100 100 100 100 100 100
100 100 100 100 100 99 95 76 53 50 52 43 44 54 60 49 40 40 38 29 27 29 32 27 26 27 28 32 36 31 29 51 100 100 100 100 100 100 100 100 100 100 100
100 100 100 100 97 78 52 46 53 50 47 52 56 48 41 42 42 34 30 32 41 48 38 31 31 30 38 43 40 35 35 39 95 100 100 100 100 100 100 100 100 100 100
100 100 92 66 40 37 41 43 44 48 51 45 41 42 42 36 34 36 44 56 58 47 36 34 33 36 44 44 39 44 52 84 97 100 100 100 100 100 100 100 100 100 100

GFSGL_500_rhum_075.txt.gz
RH
22 26 38 44 51 71 78 69 73 85 96 98 99 81 97 98 100 99 100 99 98 94 49 39 53 41 72 79 73 64 47 26 23 26 18 10 7 13 18 25 36 39 41
37 48 73 91 92 84 71 66 87 98 99 99 97 63 77 100 100 100 99 96 100 80 52 55 43 74 76 76 66 47 28 21 22 22 14 7 11 17 22 26 31 35 31
78 100 98 98 71 57 78 98 98 98 99 98 92 92 100 99 99 100 99 95 88 55 53 44 80 80 79 66 47 32 23 23 19 10 8 10 16 22 23 22 21 20 20
31 40 58 41 56 78 94 98 88 84 98 89 82 67 100 100 100 99 100 100 56 52 48 82 82 83 66 49 32 23 23 22 12 9 11 15 22 24 19 18 19 20 21
42 50 62 65 71 88 98 89 30 37 30 17 13 14 30 45 25 21 41 49 48 57 82 84 79 66 56 40 25 23 18 12 10 14 17 16 19 16 16 19 22 25 24
38 69 80 100 100 89 71 23 31 21 15 18 24 29 31 35 46 56 50 48 69 80 83 76 68 62 54 43 39 31 20 10 9 14 14 17 16 18 24 25 27 27 28
100 96 97 92 82 52 15 14 17 20 28 37 39 42 50 57 55 51 63 75 80 82 72 66 64 58 45 34 30 21 15 9 7 8 10 14 15 21 26 27 29 29 32
91 89 82 59 23 16 17 20 25 34 38 43 49 55 62 59 62 74 79 79 76 70 64 65 62 54 42 33 26 17 10 10 11 10 12 13 17 23 25 26 28 29 32
36 27 16 16 17 19 23 26 33 40 46 52 62 68 69 76 78 82 83 77 75 71 69 64 54 50 40 28 19 12 9 8 11 11 11 12 19 20 28 48 46 31 31
16 16 17 19 22 27 32 38 44 53 59 69 77 85 87 85 78 80 82 84 78 70 67 56 52 48 38 24 14 11 8 8 11 10 7 14 18 33 81 96 72 36 32
18 20 22 26 31 37 44 49 54 60 77 90 95 89 82 83 85 83 88 82 75 70 63 56 55 44 34 21 14 10 8 9 11 6 11 15 18 74 96 99 93 52 38
22 27 34 38 41 47 56 61 70 89 93 86 86 84 83 91 88 86 87 81 78 72 64 62 52 39 25 17 12 9 9 11 8 7 11 14 74 100 100 99 80 50 46
34 35 39 46 62 68 74 85 91 85 82 78 80 86 90 97 92 85 84 82 84 80 70 59 47 32 22 14 10 10 11 13 7 8 10 18 64 100 100 99 78 50 49
50 55 65 76 83 92 92 85 76 83 82 82 86 86 90 95 88 88 90 91 90 82 69 56 40 28 18 13 12 12 15 12 7 8 11 18 43 70 98 86 38 44 56
66 72 85 97 95 78 79 81 87 93 93 89 86 87 90 90 91 93 96 96 91 84 73 57 37 20 18 20 21 19 18 11 9 10 11 18 32 47 56 33 41 54 71
95 96 97 100 100 100 97 96 93 95 92 90 93 94 91 94 98 98 98 91 85 76 64 41 23 23 26 28 24 24 18 11 11 11 13 17 24 31 32 29 39 69 90
100 100 100 100 100 100 92 94 94 95 99 91 95 96 95 98 96 97 93 89 81 62 38 24 25 27 32 29 27 25 17 12 15 13 13 17 19 22 27 30 50 81 98
100 100 100 100 100 100 100 100 100 100 95 90 88 97 100 100 97 93 91 82 57 33 26 28 29 34 34 30 29 23 16 14 16 17 19 25 25 24 27 33 64 91 100
100 100 100 100 100 100 100 100 100 100 100 100 100 99 96 97 95 92 77 46 31 29 28 35 42 34 32 30 25 20 16 16 17 18 22 31 37 31 37 53 84 97 100
100 100 100 100 100 100 100 100 100 100 100 100 100 99 99 96 89 62 33 30 32 32 39 41 35 35 33 26 24 20 17 19 20 25 32 44 58 63 69 84 95 100 100
100 100 100 100 100 100 100 100 100 100 100 100 100 98 95 68 39 32 31 29 34 37 35 35 37 31 28 28 28 24 21 23 25 32 46 86 100 92 92 100 100 100 100
100 100 100 100 100 100 100 100 100 100 100 100 95 66 32 28 30 30 31 33 35 36 38 35 30 31 34 41 38 27 27 28 33 34 46 100 100 100 100 100 100 100 100
100 100 100 100 100 100 100 100 100 100 94 61 28 23 23 24 27 30 32 35 37 38 33 32 36 46 55 51 37 30 30 33 38 36 36 100 100 100 100 100 100 100 100
100 100 100 100 100 100 100 100 90 52 21 18 19 20 23 26 29 31 32 32 32 33 37 48 57 63 58 42 34 33 34 38 41 37 37 96 100 100 100 100 100 100 100
100 100 98 95 95 96 81 41 17 14 15 17 19 22 22 21 21 23 27 31 38 48 58 66 68 61 46 37 35 35 42 45 40 37 37 85 100 100 100 100 100 100 100
93 92 93 91 63 27 14 13 13 14 15 16 15 15 16 19 22 28 36 45 60 69 72 74 65 54 42 37 37 46 48 43 40 48 50 78 100 100 100 100 100 100 100

GFSGL_500_rhum_078.txt.gz
RH
16 20 22 32 52 64 65 68 89 93 67 66 83 92 98 99 97 92 98 99 99 100 99 98 98 83 60 70 48 64 67 67 58 52 48 43 38 33 25 16 9 7 8
12 13 36 71 85 80 83 86 81 57 79 88 98 98 99 99 99 100 100 100 93 100 100 100 74 31 44 47 67 66 69 60 54 47 42 38 35 30 24 14 8 6 9
17 50 77 75 79 93 65 75 59 82 90 85 89 55 67 75 46 94 98 32 53 95 75 40 52 52 56 87 75 68 59 54 50 44 39 38 35 26 18 9 7 7 11
27 38 62 94 77 72 100 92 87 86 98 98 49 29 38 18 17 20 26 33 37 46 58 59 55 80 95 78 69 64 58 50 48 45 42 39 32 20 10 7 8 11 13
57 64 51 69 80 96 100 93 100 100 93 40 39 21 18 23 30 36 39 46 55 62 61 76 98 93 80 76 68 61 54 50 50 49 46 38 28 13 7 7 10 11 12
54 56 70 85 72 89 99 100 96 79 37 31 21 22 25 30 35 43 50 61 71 86 99 98 91 84 82 73 67 63 55 54 55 54 48 39 24 10 6 9 10 10 14
26 38 54 79 99 97 96 88 65 30 23 21 25 28 33 38 44 55 68 83 98 96 92 88 88 86 80 73 68 66 64 65 62 55 42 29 14 7 8 10 8 11 18
36 61 74 88 85 64 43 20 20 21 22 25 28 34 42 48 56 74 96 89 86 86 85 90 85 81 79 73 68 70 74 73 63 53 33 14 8 8 11 8 9 15 22
31 31 29 27 26 19 17 18 19 22 25 30 41 47 55 62 78 95 88 86 88 81 86 87 84 79 77 78 79 78 78 74 60 42 18 10 8 10 9 8 13 16 57
27 20 15 16 16 17 19 22 26 32 42 48 56 67 75 87 92 93 90 85 77 78 84 85 82 78 82 85 84 82 75 68 55 25 11 10 10 12 8 9 12 39 85
14 15 16 17 20 23 28 36 46 51 53 70 79 91 93 98 84 86 87 87 75 76 80 84 86 86 87 87 86 83 75 62 30 12 10 11 14 13 7 9 23 70 100
16 18 20 25 30 34 37 43 53 66 84 88 99 96 100 98 86 85 93 83 84 87 91 90 87 88 88 87 85 80 63 33 14 12 12 16 17 12 8 8 12 50 100
22 25 29 31 39 58 69 78 78 84 100 100 100 100 100 100 89 96 92 95 96 92 87 85 84 88 88 87 84 65 32 16 14 14 17 20 19 11 10 12 21 40 55
42 55 61 63 62 69 84 96 100 100 100 100 100 100 100 100 100 97 94 91 91 93 92 96 96 95 94 87 64 26 17 17 18 20 23 24 20 12 12 14 24 38 29
92 87 86 89 95 99 100 100 100 100 100 100 100 100 100 100 97 93 94 98 98 99 100 97 93 92 87 58 22 16 17 22 30 31 31 27 20 15 16 20 26 26 24
100 100 100 99 100 100 100 100 100 100 100 100 100 100 98 95 99 99 100 100 99 97 96 91 90 78 40 16 15 17 24 30 31 33 31 28 24 20 25 27 27 27 25
100 99 98 100 100 100 100 100 100 100 100 100 100 100 100 100 100 96 99 100 99 97 96 88 53 19 15 16 20 25 29 32 34 29 26 37 79 28 32 40 32 25 26
100 100 100 100 100 100 100 100 100 100 100 100 100 100 100 100 100 100 100 99 100 95 62 24 15 17 20 27 32 32 33 32 28 27 26 21 25 28 32 70 97 36 33
100 100 100 100 100 100 100 100 100 100 100 100 100 96 94 98 99 100 99 97 71 27 14 14 17 22 27 30 31 33 29 27 29 30 26 21 24 28 37 58 73 61 53
100 100 100 100 100 100 100 100 100 100 100 100 100 100 100 99 100 98 74 29 13 13 15 17 21 24 25 27 27 28 30 35 40 42 33 24 27 32 62 83 100 94 84
100 100 100 100 100 100 100 100 100 100 100 100 100 100 100 98 70 30 13 13 12 13 15 15 15 18 21 24 29 36 45 52 58 48 30 29 33 42 89 99 100 100 100
100 100 100 100 100 100 100 100 100 100 100 100 100 95 72 37 15 12 11 11 12 13 14 16 17 20 26 33 45 57 65 66 57 37 32 34 40 47 100 100 100 100 100
100 100 100 100 100 100 100 100 100 100 99 90 68 33 12 12 10 10 11 12 14 15 17 20 24 32 44 57 67 69 71 59 41 34 34 42 46 46 99 100 100 100 100
100 100 100 100 100 100 100 100 96 86 59 27 12 11 10 10 12 14 14 14 15 16 20 27 39 54 66 75 79 74 59 45 37 35 38 47 47 42 91 100 100 100 100
100 100 100 97 95 95 91 71 42 19 11 10 10 11 14 16 17 16 15 15 16 20 30 46 62 73 79 84 76 64 51 41 37 39 46 46 42 42 97 100 100 100 100
91 90 90 85 69 46 24 13 10 10 10 13 16 17 18 18 17 15 14 15 21 34 54 72 80 84 90 82 70 55 44 40 43 50 50 44 42 43 94 100 100 100 100

GFSGL_500_rhum_081.txt.gz
RH
65 22 24 25 32 50 29 74 82 88 98 95 83 73 55 83 87 79 90 90 99 86 74 100 100 100 32 39 52 60 63 86 73 67 66 62 54 50 49 51 50 45 39
41 42 60 36 64 75 73 74 98 98 90 85 87 71 66 82 73 37 33 33 20 18 21 32 32 43 52 61 71 87 91 76 70 68 64 59 57 57 60 58 54 48 45
46 32 35 33 83 89 96 97 92 98 98 83 78 82 85 88 37 27 16 17 24 33 40 45 47 49 59 86 89 74 70 77 80 67 59 61 61 67 62 58 54 50 44
20 40 26 49 51 96 98 88 79 89 85 85 90 99 90 52 24 19 21 26 32 36 42 44 58 81 93 80 69 72 82 84 76 72 67 66 67 67 69 66 58 47 28
37 59 79 68 80 87 82 94 96 98 96 99 95 88 76 31 20 23 31 33 40 48 55 66 94 93 81 78 76 85 86 78 77 76 72 67 64 64 69 65 57 37 16
49 42 40 53 67 64 89 96 100 100 100 98 74 21 40 21 24 25 37 45 50 60 68 88 95 86 83 78 82 81 82 85 85 79 70 67 65 66 71 64 39 17 10
31 40 38 42 46 56 74 69 79 80 45 23 18 31 23 24 30 42 44 48 64 73 87 98 91 84 85 85 85 90 97 98 96 84 76 72 69 79 72 46 16 11 10
18 15 20 24 32 33 27 27 25 21 19 29 28 23 24 30 35 48 54 67 81 92 97 88 89 95 95 88 78 86 88 97 94 87 88 82 82 76 46 18 13 12 12
7 8 14 16 22 26 22 17 17 17 18 19 22 30 36 41 46 57 73 83 96 100 96 98 100 100 95 91 82 78 84 90 85 87 87 86 81 56 20 14 13 15 15
9 10 13 17 18 14 14 15 17 19 22 29 37 42 46 62 82 93 100 100 100 100 100 100 100 100 100 100 94 92 87 89 83 82 87 84 56 22 13 14 15 19 18
10 11 11 12 14 15 16 19 23 30 38 45 60 71 74 90 93 100 100 99 98 100 100 100 100 100 100 100 100 99 94 86 83 84 82 56 18 13 14 16 22 22 20
16 14 15 16 18 22 28 34 40 50 64 74 76 76 78 86 99 100 100 100 100 100 100 100 100 100 100 100 100 100 95 94 91 81 43 14 13 15 18 23 27 26 19
44 31 26 27 33 46 69 81 83 82 86 92 100 98 100 100 99 98 100 100 100 100 100 100 100 100 100 100 100 98 96 96 68 20 13 15 18 21 26 27 29 25 18
86 54 58 80 84 87 96 100 100 100 100 100 100 100 100 100 100 100 100 100 100 100 100 100 100 99 100 100 100 99 92 46 12 13 15 20 25 27 30 28 26 24 22
100 88 90 91 94 95 98 100 100 92 89 92 99 100 100 100 100 100 100 100 99 99 100 100 100 100 100 100 100 82 21 13 13 16 18 23 29 32 32 29 25 30 35
95 97 98 100 100 100 100 100 99 97 99 100 100 100 100 100 100 100 100 98 100 100 100 100 100 100 100 94 58 13 11 11 13 14 16 20 23 29 31 50 37 34 49
100 100 100 100 100 100 100 100 100 100 100 100 100 100 100 100 100 100 98 98 98 98 99 98 100 97 80 23 11 10 10 11 12 13 15 17 21 27 33 44 93 70 64
100 100 100 100 99 100 100 100 100 100 100 100 100 100 100 100 100 100 100 99 100 100 100 100 82 32 12 10 9 10 12 13 14 15 17 20 25 33 33 38 87 57 51
100 100 100 100 100 100 100 100 100 100 100 100 100 100 100 100 100 100 100 100 100 100 86 31 12 10 10 10 12 13 14 14 17 20 24 30 39 45 38 30 90 51 57
100 100 100 100 100 100 100 100 100 100 100 100 100 100 100 100 100 100 100 98 79 38 13 10 10 11 14 15 15 15 15 18 23 30 39 51 60 60 46 30 34 48 68
100 100 100 100 100 100 100 100 100 100 100 100 100 100 100 100 99 83 50 20 12 11 11 12 16 17 17 16 16 16 18 24 37 51 65 70 70 55 35 32 37 62 100
100 100 100 100 100 100 100 100 100 100 100 100 100 98 88 68 39 18 11 11 11 13 16 17 17 18 17 16 16 19 26 45 62 74 76 74 56 39 34 37 48 100 100
99 100 100 100 100 100 100 98 97 96 91 82 66 43 21 12 11 11 12 14 16 16 16 17 18 17 15 16 21 32 49 70 78 80 74 53 41 37 39 47 59 100 100
100 100 99 95 91 89 89 83 72 58 42 27 15 10 10 10 12 13 14 14 14 16 19 18 16 15 17 26 44 62 77 82 84 73 57 44 39 37 47 52 74 100 100
95 91 88 82 73 64 54 39 24 14 10 9 9 9 10 11 10 10 12 16 19 18 16 14 16 20 32 54 73 86 94 90 76 63 49 41 40 44 52 53 64 100 100
81 71 62 52 38 23 13 8 8 8 8 8 9 9 8 8 11 16 18 18 14 13 15 20 28 43 62 80 93 99 93 80 61 49 42 44 51 53 51 48 63 100 100

GFSGL_500_rhum_084.txt.gz
RH
66 52 61 40 22 26 43 50 64 62 77 82 98 99 98 96 86 68 65 75 65 39 28 30 26 22 30 40 43 46 49 61 66 71 72 74 70 76 74 68 66 62 58
76 53 60 51 74 70 43 64 96 98 97 99 98 98 93 79 74 72 79 85 62 32 21 20 26 30 34 33 34 49 67 79 78 69 68 74 75 76 75 70 68 62 57
59 72 61 41 47 30 30 70 88 97 97 98 97 95 88 91 90 99 100 99 44 18 20 22 26 32 35 40 60 71 83 88 79 69 67 65 64 70 64 67 66 62 58
46 32 30 33 44 60 71 92 97 94 81 85 94 95 95 98 99 98 85 75 24 23 29 32 38 41 48 63 70 80 84 80 78 76 70 68 69 74 70 72 68 72 65
8 15 48 63 70 77 85 90 66 58 80 75 83 82 84 91 81 50 37 31 23 28 69 81 48 46 53 71 86 94 88 84 86 86 80 75 76 79 88 86 80 72 70
11 34 44 34 37 40 49 43 35 49 52 48 53 74 58 29 36 51 38 29 31 46 53 52 59 73 83 89 99 100 100 94 91 89 86 87 93 97 92 84 78 75 72
28 37 38 26 28 20 20 22 22 33 33 22 21 17 29 28 24 23 27 83 56 51 60 82 93 90 92 94 98 100 97 99 96 90 87 97 95 95 86 83 82 82 73
37 35 20 19 15 9 11 12 14 17 18 15 15 20 19 24 23 31 43 60 63 77 89 92 88 93 95 95 93 99 100 100 100 99 98 97 98 97 96 92 90 80 32
23 23 34 22 11 10 11 12 11 12 12 15 16 16 20 25 34 43 53 76 87 89 97 98 100 100 98 91 92 99 100 100 100 100 100 100 100 100 100 97 79 34 11
20 28 26 20 17 14 11 11 11 13 17 19 23 28 34 39 47 68 90 100 100 100 100 100 99 96 95 98 100 100 100 100 100 100 100 100 100 100 100 80 30 12 13
30 34 36 31 26 23 19 17 18 22 26 33 35 47 73 94 100 100 100 100 100 99 98 98 96 97 100 100 100 100 97 94 96 99 100 100 100 100 90 41 13 13 14
45 47 46 48 61 60 39 29 29 33 43 70 90 95 97 98 100 100 98 98 99 97 93 93 98 100 100 100 100 100 98 96 96 98 97 99 97 93 47 12 12 13 18
61 50 53 67 87 91 77 54 56 76 94 96 100 100 98 96 95 96 100 100 100 98 100 100 100 100 100 100 100 100 100 100 98 97 100 100 93 43 11 11 13 16 18
100 97 95 94 89 92 99 95 94 100 100 100 100 100 100 98 100 100 95 98 100 100 100 100 100 100 100 100 100 100 100 100 100 100 100 87 21 10 10 13 14 18 19
84 85 91 95 96 100 100 100 100 100 100 99 96 96 100 100 100 100 100 100 100 100 100 100 100 100 100 100 100 100 100 100 100 97 44 11 10 11 13 15 18 21 24
100 100 99 99 97 100 100 100 99 98 99 100 100 100 100 100 100 100 100 100 100 100 100 100 100 100 100 100 100 100 100 97 43 11 11 12 14 15 15 17 20 28 37
100 100 100 99 98 96 96 100 100 100 100 100 100 100 100 100 100 100 100 100 100 100 100 100 100 100 100 100 100 85 26 12 12 12 16 17 17 16 17 18 24 35 43
83 86 97 100 100 100 100 100 100 100 100 100 100 100 100 100 100 100 100 100 100 100 100 100 100 100 90 46 15 12 12 14 16 17 18 18 17 17 18 22 34 44 42
96 99 100 98 98 100 98 97 99 100 100 100 100 100 100 100 100 100 99 100 100 100 100 87 46 21 14 12 12 14 16 16 17 18 18 18 17 18 25 37 54 56 43
100 100 100 100 100 100 100 100 100 99 100 100 98 97 94 94 98 100 100 97 81 56 30 15 12 12 12 14 16 17 17 17 18 18 18 17 19 31 50 68 75 70 44
100 100 100 100 98 92 91 91 92 96 94 92 93 92 91 86 77 65 47 27 15 12 11 11 13 14 16 16 15 16 19 20 19 17 17 23 38 64 82 86 82 64 41
100 95 88 88 90 92 96 96 94 92 90 81 72 63 50 35 20 12 10 10 10 10 11 12 12 12 13 16 20 20 19 17 17 19 28 51 79 92 91 82 61 43 38
84 87 93 96 94 90 87 82 75 67 60 48 30 15 9 9 8 8 9 9 9 9 10 11 14 18 20 20 19 16 16 19 27 46 74 95 98 92 77 54 42 40 47
90 91 90 85 78 71 65 60 50 32 15 8 7 7 7 8 8 8 8 8 9 11 15 18 20 19 17 15 16 19 25 40 64 86 96 100 90 72 51 43 40 49 58
86 80 75 69 62 54 41 23 11 7 7 7 7 7 7 8 8 9 10 12 15 17 18 16 14 13 15 20 27 41 62 81 94 100 98 86 73 59 45 41 44 58 68
73 68 61 51 37 19 9 6 6 6 7 7 7 8 9 10 10 12 14 15 15 13 11 12 14 18 26 40 59 73 88 99 100 96 85 68 55 46 42 43 54 61 77

GFSGL_500_rhum_087.txt.gz
RH
97 82 78 61 61 58 58 65 57 72 73 90 94 90 98 95 96 99 94 81 68 64 71 77 74 55 25 18 19 20 21 24 29 46 67 78 87 93 88 82 83 80 75
97 95 90 57 57 55 49 60 66 63 70 98 99 97 96 98 96 98 97 77 75 76 84 89 84 53 22 19 20 24 32 44 54 62 82 95 100 100 94 94 98 91 89
97 96 82 61 60 58 46 42 49 61 91 97 97 98 98 91 97 99 88 82 82 81 88 72 72 44 19 19 24 43 58 71 83 84 88 88 93 100 100 100 100 96 96
26 23 29 36 29 40 62 90 94 97 98 91 72 63 83 78 89 93 75 79 87 76 50 40 32 23 22 33 49 69 89 93 93 90 87 87 93 100 99 96 87 92 91
5 6 7 8 13 47 62 61 72 79 85 74 45 74 71 58 61 68 72 47 33 28 68 72 23 29 45 62 84 99 100 100 100 98 92 85 96 100 100 99 92 85 83
6 7 8 21 36 44 45 44 60 51 34 53 58 51 37 38 43 54 45 45 24 41 96 34 41 53 84 82 100 100 100 100 100 99 92 96 100 100 100 94 89 91 88
17 19 22 36 46 46 44 42 41 24 47 36 35 26 34 58 67 49 39 29 76 94 87 59 61 70 92 100 100 100 100 100 100 96 98 100 96 99 94 96 96 94 89
21 37 46 46 45 31 42 39 21 20 14 11 11 15 24 48 56 64 43 76 56 50 53 79 93 100 100 100 100 100 100 100 98 93 88 89 92 96 97 93 91 92 88
30 38 35 37 39 37 32 26 23 21 17 13 12 12 39 38 44 41 70 49 68 93 100 94 94 100 100 100 100 100 100 100 100 100 100 100 100 100 100 96 100 96 91
26 25 26 31 25 21 33 37 34 30 30 30 29 23 20 22 30 45 70 90 100 84 89 100 100 100 100 100 100 100 100 100 100 100 100 100 100 100 100 100 99 97 98
32 30 18 15 24 37 43 44 43 44 65 68 68 53 35 38 49 81 100 100 100 100 100 100 100 100 100 100 100 100 100 100 100 100 100 100 100 100 100 100 100 100 100
37 37 39 47 56 60 56 51 46 48 61 72 83 80 66 66 81 100 100 100 100 100 100 100 100 100 100 100 100 100 100 100 100 100 100 100 100 100 100 100 100 100 74
48 45 50 50 55 68 81 82 81 84 86 90 95 100 97 96 100 100 100 100 100 100 100 99 100 100 100 100 100 100 100 100 100 100 100 100 100 100 100 100 95 24 12
74 71 68 68 69 72 79 85 88 94 96 98 91 86 86 92 98 100 100 100 100 100 100 100 100 100 100 100 100 100 100 100 100 100 100 100 100 100 98 46 12 12 13
86 84 84 89 90 96 100 100 100 100 99 97 98 100 100 100 100 95 96 98 100 100 100 100 100 100 100 100 100 100 100 100 100 100 100 100 97 46 14 13 14 15 16
79 75 81 85 95 100 99 99 100 100 100 100 100 100 100 100 100 100 100 100 100 100 100 100 100 100 100 100 100 100 100 100 100 100 74 26 15 13 14 15 16 16 17
98 100 100 100 100 100 100 100 100 100 100 96 96 100 100 100 100 100 100 100 100 100 99 99 100 100 100 100 100 100 100 68 22 16 14 13 14 15 16 16 17 18 19
90 99 100 99 95 91 93 95 96 96 98 100 100 100 100 99 100 100 98 96 99 100 100 100 100 100 99 82 47 22 16 14 13 14 14 15 15 14 16 17 19 20 19
82 81 80 78 79 84 94 99 98 100 100 100 97 94 92 89 89 89 91 95 99 98 92 77 57 37 21 14 13 13 13 13 13 13 13 13 14 17 20 21 20 18 20
78 84 87 83 90 95 98 97 96 87 83 86 84 84 82 81 80 77 72 66 58 44 27 16 12 11 11 11 11 10 10 11 12 13 15 19 22 22 20 18 19 27 51
98 91 90 90 96 98 92 85 82 80 76 76 76 75 72 67 59 47 30 14 9 9 9 9 9 9 9 9 9 10 12 15 18 22 23 22 19 18 19 24 42 75 99
100 99 96 95 92 87 82 79 76 74 74 72 65 56 43 25 11 8 7 7 7 7 8 8 8 9 10 12 14 16 20 22 22 19 17 17 20 26 40 71 95 100 100
97 98 97 89 78 76 73 70 68 63 54 41 23 10 7 7 6 6 7 7 8 9 10 11 12 14 16 18 20 20 18 16 16 17 21 32 56 81 96 100 100 96 79
99 88 75 73 70 67 63 57 46 28 12 8 7 6 6 6 7 8 9 10 10 12 13 14 16 17 16 15 13 12 14 17 24 37 60 93 100 97 100 100 87 65 52
75 74 72 68 62 54 39 20 10 8 6 6 6 7 7 8 8 9 10 12 13 12 12 11 10 9 9 10 13 20 28 42 65 82 98 100 100 100 96 81 64 51 46
75 68 62 53 34 18 10 7 6 6 7 7 7 7 8 9 11 11 11 10 10 9 8 7 8 10 17 28 39 56 74 85 96 100 100 100 99 92 83 69 57 46 50

GFSGL_500_rhum_093.txt.gz
RH
78 76 70 76 77 65 46 42 42 40 46 48 49 60 66 67 72 88 94 96 96 99 100 98 95 92 95 98 98 98 96 86 78 64 56 49 30 32 38 46 61 74 73
92 78 74 88 100 97 75 58 57 63 60 54 48 46 56 90 81 92 96 99 99 99 98 98 97 98 99 98 96 99 92 66 36 29 39 40 39 66 75 76 81 73 99
49 52 70 82 96 99 96 68 60 66 71 62 55 68 90 94 95 97 96 71 64 82 79 75 99 97 98 92 95 83 50 34 34 51 61 68 61 78 78 74 75 86 99
33 34 32 41 58 48 78 89 90 80 56 46 79 82 88 91 96 97 82 85 81 57 46 48 76 67 72 93 98 56 52 50 70 90 98 94 100 74 73 90 99 100 100
36 31 19 14 13 7 6 11 12 12 34 57 82 94 89 89 92 87 81 56 51 50 36 49 37 40 68 74 74 77 60 62 100 100 73 98 100 98 100 100 100 86 99
58 37 20 15 12 7 6 8 11 32 47 52 61 72 74 68 61 71 29 25 37 30 19 21 29 52 96 95 89 89 100 100 100 91 97 95 97 100 100 99 100 100 98
56 60 49 28 16 13 9 34 54 64 60 58 57 62 54 44 46 35 28 31 49 26 27 36 32 40 99 100 97 100 96 80 81 99 100 100 100 100 100 100 100 97 98
46 43 40 40 35 26 23 23 52 72 60 50 49 47 44 38 24 24 28 30 34 37 40 48 69 71 63 79 99 100 86 94 100 100 100 100 100 100 100 100 100 100 100
34 34 31 25 34 41 50 54 61 59 41 36 36 28 19 19 26 33 41 46 50 55 56 56 66 79 94 100 98 97 94 100 100 100 100 100 100 100 100 100 100 100 99
40 36 34 34 35 28 30 41 40 42 43 49 40 35 40 44 48 56 73 89 99 100 100 99 95 90 94 100 99 100 100 100 100 100 100 100 100 100 100 100 100 100 99
55 64 60 52 46 42 39 36 36 36 41 48 53 56 65 76 82 83 83 81 83 90 97 100 100 98 96 97 100 100 99 98 96 100 100 100 100 100 100 100 99 97 100
89 93 88 72 64 60 60 63 69 76 76 78 79 83 80 75 81 90 98 100 100 100 100 100 100 100 100 96 97 99 100 100 100 100 100 100 100 100 100 100 100 100 100
95 91 90 86 83 83 82 82 88 89 88 86 82 81 80 79 84 90 93 98 99 99 98 100 100 100 100 100 100 100 100 100 100 100 100 100 100 100 100 100 100 100 100
99 98 97 90 91 88 93 94 92 92 86 80 77 78 83 88 94 92 83 77 75 78 86 94 96 99 100 100 100 100 100 100 100 100 100 100 100 100 100 100 100 100 100
96 98 99 98 95 97 97 98 92 86 84 83 82 84 88 86 78 72 69 67 65 63 68 76 82 87 90 88 82 80 84 84 88 95 100 100 100 96 87 68 42 24 17
89 93 99 98 98 98 98 95 87 80 77 77 81 84 83 83 79 72 68 65 64 68 72 69 65 65 65 65 65 68 71 72 70 66 58 46 33 21 15 12 11 10 10
80 92 97 95 96 97 88 80 75 82 83 74 80 85 84 84 83 82 71 71 69 58 54 55 53 51 53 53 47 38 29 20 12 9 8 8 9 9 9 10 10 11 11
97 99 98 92 87 82 78 76 78 86 85 84 83 81 79 74 73 72 69 60 56 54 50 47 44 36 23 14 9 8 7 8 8 8 8 9 10 11 12 13 14 16 18
100 97 91 82 72 59 57 73 82 79 79 79 77 74 72 71 70 61 54 50 44 40 35 24 15 10 8 6 6 6 6 6 7 7 8 10 12 13 15 16 18 20 21
93 85 47 27 28 59 74 72 72 73 76 78 75 76 78 66 56 49 44 41 31 18 12 9 7 6 5 5 6 6 6 7 8 9 10 11 12 13 14 15 16 17 18
33 27 24 23 65 81 74 66 71 77 74 78 80 69 59 52 46 41 26 14 11 8 6 5 5 5 5 5 6 7 8 9 9 9 10 10 10 10 10 12 15 18 20
26 56 77 80 73 69 74 77 76 81 83 72 60 52 46 40 23 14 11 8 6 5 6 6 6 6 7 8 10 10 10 11 11 10 8 8 10 12 16 23 30 40 53
90 81 74 76 79 80 82 84 83 72 61 54 49 39 21 14 11 7 6 6 6 6 7 8 10 13 15 17 19 20 20 22 23 23 24 26 30 37 50 70 88 98 100
86 85 84 82 81 84 84 74 63 57 52 40 21 14 10 7 6 7 7 7 8 9 12 18 23 27 29 30 32 39 45 49 56 62 68 76 83 95 100 100 100 100 100
87 84 82 83 86 80 68 61 56 42 21 14 10 7 6 7 8 7 9 10 12 18 23 27 31 35 40 46 48 50 60 72 81 87 89 92 94 100 100 100 100 100 100
87 88 90 86 75 68 62 43 21 14 10 8 7 8 8 8 9 11 12 14 22 27 30 35 39 41 42 48 57 63 64 65 71 79 84 85 90 98 99 100 98 97 92

GFSGL_500_rhum_096.txt.gz
RH
55 60 41 33 37 54 59 48 30 26 26 27 23 32 38 41 48 54 59 62 65 86 97 100 100 98 99 99 99 97 97 98 98 97 97 98 97 79 41 44 51 61 53
40 43 75 76 77 83 93 100 84 57 47 48 50 52 51 48 47 68 62 97 100 100 99 92 62 72 96 100 97 99 99 99 98 98 97 99 82 45 45 52 79 98 77
36 30 52 72 72 73 91 92 97 76 52 49 52 58 60 46 54 76 85 89 93 99 93 74 71 54 48 49 50 78 83 98 100 85 99 98 83 69 60 68 92 97 89
54 46 38 38 32 34 63 71 63 88 82 67 70 69 44 54 78 89 90 92 90 80 82 74 63 56 45 43 36 44 45 43 60 100 92 94 80 75 74 99 100 100 99
57 52 38 35 32 27 21 26 23 30 35 53 40 23 42 62 81 81 86 80 71 61 57 66 42 44 39 28 22 28 24 25 41 98 99 95 97 98 100 100 100 97 100
45 59 53 34 31 19 16 12 7 7 7 8 20 52 64 62 64 65 70 69 60 45 47 44 32 29 42 34 33 31 37 42 47 100 98 100 100 100 100 100 100 100 98
63 57 58 54 43 27 20 16 15 13 10 22 46 64 65 60 57 58 58 48 49 45 33 21 24 30 35 42 45 47 50 58 70 87 97 83 100 100 100 100 100 98 99
81 83 78 66 58 48 40 39 41 40 56 50 53 52 60 64 51 49 47 38 29 22 24 31 41 56 71 82 90 85 82 87 92 97 100 97 93 95 93 100 100 100 100
76 72 67 59 46 42 44 81 82 74 59 56 56 49 41 39 46 53 47 37 42 52 63 70 74 72 77 86 93 96 97 99 100 98 99 100 100 100 100 100 100 100 100
63 57 51 50 43 40 42 45 43 42 47 49 49 47 45 48 52 58 64 65 68 80 84 87 93 98 100 100 100 100 99 97 93 94 100 100 100 100 100 100 100 100 100
60 49 54 52 61 69 67 62 59 56 53 55 57 56 60 68 75 81 87 93 93 91 91 96 100 100 100 98 94 88 93 99 99 100 100 100 100 100 100 100 100 100 100
68 58 74 71 85 93 96 95 84 82 83 86 86 87 91 94 95 92 86 83 85 89 93 95 91 81 73 69 66 65 64 65 68 79 91 99 100 100 100 100 100 100 100
100 97 99 100 97 94 94 98 97 100 98 92 95 99 98 95 88 85 86 88 88 93 94 83 79 75 72 69 67 66 67 68 71 73 72 76 82 85 93 98 100 100 100
100 99 100 86 86 87 87 87 94 90 88 91 94 96 94 89 86 84 84 86 86 86 88 90 90 87 78 65 62 62 64 59 55 55 56 58 58 62 66 70 74 78 72
99 98 98 83 88 89 84 82 83 87 88 88 90 88 87 82 85 86 80 83 92 88 78 71 62 59 61 63 61 52 45 44 45 43 44 40 35 30 25 21 17 13 10
68 99 96 86 86 87 87 90 100 97 90 85 80 75 72 73 86 94 96 94 86 76 62 58 58 57 52 45 42 41 37 30 22 14 10 9 9 8 8 7 7 7 7
100 100 100 96 80 91 98 99 98 90 83 75 55 53 69 91 93 86 79 64 62 60 57 54 47 41 40 33 26 18 13 10 8 6 5 6 6 6 6 6 7 8 9
100 99 99 99 99 99 96 96 86 55 35 32 57 78 79 75 71 67 64 64 59 49 42 39 33 26 20 15 11 7 5 5 5 5 5 5 6 6 7 8 9 10 11
100 100 99 97 100 96 91 83 56 31 29 66 82 72 66 61 61 61 57 48 41 36 28 23 17 12 8 5 4 5 5 5 5 6 8 9 10 10 10 9 10 10 11
98 98 100 98 98 83 39 27 39 61 74 68 61 56 56 60 58 49 43 36 27 21 14 9 6 5 4 5 6 6 7 8 11 15 17 14 14 12 11 10 9 9 11
100 99 96 89 56 35 44 71 73 68 62 58 60 65 66 58 48 38 28 20 15 9 7 5 4 5 6 6 8 10 14 18 22 26 23 22 21 20 18 15 17 20 24
97 86 67 45 40 62 84 77 67 62 61 67 71 66 53 44 30 20 16 10 7 5 5 5 6 7 8 10 15 20 25 28 31 35 32 38 43 47 49 49 51 55 62
77 50 46 65 85 86 77 70 65 68 73 73 61 50 32 19 16 11 8 6 5 5 6 7 8 10 14 20 22 28 30 30 39 46 44 55 64 74 79 84 87 89 96
40 62 81 89 85 81 70 68 73 77 71 59 38 19 17 13 8 6 5 6 6 7 8 11 13 18 23 25 31 32 29 36 46 57 53 60 73 80 84 89 91 94 100
65 85 89 85 76 72 76 80 79 69 48 21 18 14 10 7 6 6 7 7 8 11 13 16 22 27 28 34 32 31 35 41 51 65 67 60 68 77 84 88 92 99 100
89 90 82 76 80 86 86 78 60 29 18 15 11 8 6 6 7 8 8 10 14 15 19 26 31 32 38 34 32 33 36 41 51 63 76 74 69 69 74 86 94 97 95

GFSGL_500_rhum_102.txt.gz
RH
31 31 29 43 30 20 19 19 21 19 19 19 20 22 24 24 26 29 31 31 29 31 35 54 66 86 97 97 100 100 89 81 64 57 59 68 56 69 77 54 42 34 48
47 26 21 30 31 51 38 31 39 55 62 60 43 37 32 29 27 24 31 43 44 49 50 51 62 77 94 97 99 96 90 82 75 63 64 71 70 60 58 34 30 37 35
55 40 28 25 22 21 54 64 63 65 67 66 75 83 60 46 35 39 53 56 58 59 50 50 68 87 100 100 99 99 83 99 97 85 67 54 50 44 26 21 22 26 31
57 51 41 28 29 23 35 68 62 53 46 56 68 66 72 71 54 51 59 62 73 72 56 66 84 91 85 85 87 97 78 99 92 63 50 48 38 27 21 24 33 41 49
62 47 57 55 40 40 34 27 30 31 26 22 23 38 41 50 78 94 78 77 52 18 44 67 70 69 70 84 76 94 63 58 62 47 37 31 29 34 41 49 63 76 83
56 50 66 72 40 47 54 35 34 31 28 24 17 15 10 7 8 8 8 13 14 33 37 59 58 68 61 68 70 53 46 95 50 48 44 51 61 70 73 80 82 82 87
45 56 72 79 61 38 47 57 53 48 42 32 21 16 17 17 21 21 28 37 52 59 64 64 69 62 52 47 45 46 47 50 62 78 90 95 94 86 83 89 92 90 91
47 53 86 86 64 37 35 57 55 57 57 54 50 46 41 42 59 76 87 90 84 68 61 58 53 50 48 50 56 69 81 89 95 98 99 99 100 100 98 96 96 91 84
64 67 69 66 60 60 37 38 48 47 39 35 32 46 67 67 72 64 59 56 51 53 59 66 67 68 70 76 89 96 99 100 95 90 90 90 90 89 86 83 85 86 75
80 83 83 84 83 77 60 45 38 49 47 41 38 37 38 43 52 70 79 89 86 95 89 82 81 83 84 88 92 95 89 85 85 85 86 87 86 86 91 91 83 70 59
98 94 93 73 100 94 79 65 53 49 44 44 45 55 77 81 87 82 82 83 87 84 85 87 85 82 80 83 85 84 79 74 68 71 78 82 79 72 58 49 47 44 37
99 100 99 99 100 98 89 87 86 72 55 43 62 80 75 71 75 79 81 83 89 88 89 94 94 90 83 80 76 64 54 57 65 70 63 54 46 44 42 33 22 20 18
88 96 93 100 78 83 98 97 85 100 78 73 78 98 94 88 76 78 82 86 92 96 99 97 93 88 78 57 43 56 63 64 56 52 52 50 41 26 21 17 12 9 7
97 98 94 86 93 75 81 99 92 95 90 88 91 87 100 96 88 82 88 95 99 97 92 94 63 32 31 52 69 66 54 50 51 48 35 23 19 14 11 8 7 5 4
100 100 100 97 90 100 94 98 85 77 76 88 100 100 96 96 96 99 100 100 100 97 93 86 45 52 67 70 61 57 56 50 35 23 18 14 11 9 7 6 4 3 3
100 100 100 98 100 99 99 99 100 100 100 100 99 99 90 100 100 100 100 98 97 94 91 80 75 72 64 59 57 50 35 23 19 16 12 10 8 6 4 3 4 4 5
100 100 100 99 88 100 100 100 100 99 98 99 92 92 99 100 100 100 100 100 96 95 91 80 68 59 57 51 38 27 21 17 13 11 8 6 4 3 4 5 6 8 12
100 99 100 100 100 99 99 99 99 99 99 99 96 100 100 99 99 99 97 98 97 89 75 62 56 51 43 33 26 20 14 12 9 6 4 4 4 6 7 9 13 15 15
100 100 99 99 99 99 100 100 99 100 99 100 100 99 98 97 97 92 90 91 79 64 54 51 47 41 32 24 17 13 10 6 4 4 5 6 7 10 14 15 15 18 26
100 99 99 100 100 100 100 100 100 100 99 98 97 93 70 73 83 91 77 66 56 52 50 46 38 28 20 14 10 7 4 4 5 6 8 9 14 16 15 16 19 28 41
100 100 100 100 100 99 98 100 98 96 86 66 46 32 55 78 80 72 61 57 53 51 44 33 23 16 11 7 5 5 5 6 8 9 10 16 16 15 17 19 29 48 47
100 100 100 99 98 98 99 97 81 59 33 34 48 77 81 78 71 64 57 53 49 40 29 19 13 8 6 5 6 6 8 10 10 14 19 16 16 18 24 29 54 51 58
100 100 100 100 99 93 82 67 36 34 50 58 60 63 72 69 62 58 54 49 37 25 16 9 6 6 6 7 8 9 11 12 18 20 17 16 19 26 31 50 60 58 66
100 100 100 97 92 88 72 60 52 58 70 74 76 73 66 60 58 56 47 33 19 11 7 6 6 7 8 9 10 12 14 22 22 19 20 21 25 31 42 67 59 64 73
100 100 100 93 90 92 91 78 84 86 84 81 72 63 60 61 54 38 23 13 8 6 6 7 8 9 10 12 14 16 26 26 21 23 24 26 32 40 66 70 61 70 78
85 93 95 93 94 97 98 98 92 88 80 74 69 67 61 42 25 16 9 7 7 8 9 10 10 11 14 16 17 29 30 24 27 28 31 35 41 63 73 72 62 75 81

GFSGL_500_rhum_105.txt.gz
RH
42 33 28 28 39 21 21 28 34 42 49 60 64 54 50 57 63 63 61 53 41 37 32 31 31 31 40 52 58 74 81 89 76 82 92 96 89 89 91 100 100 83 63
50 51 42 20 27 30 44 24 26 27 23 31 29 22 23 27 28 28 30 32 32 33 34 39 48 48 52 62 73 88 98 100 87 80 87 81 98 99 98 94 73 52 47
58 58 46 32 24 24 23 46 51 54 62 68 66 63 62 53 46 38 31 27 36 53 54 51 64 71 61 60 76 93 99 98 82 77 80 100 83 99 59 55 50 45 42
58 65 50 37 28 28 27 33 71 70 62 60 59 60 63 68 77 68 52 54 57 59 72 72 86 84 50 41 51 67 93 69 77 96 84 76 64 46 64 89 45 46 54
55 64 61 47 56 44 36 35 33 61 62 52 39 30 33 44 66 85 78 79 98 96 88 59 39 16 44 57 60 72 64 68 65 54 50 45 48 50 51 56 64 66 70
74 74 59 44 61 66 42 37 36 33 30 29 27 25 21 16 18 54 62 39 19 9 10 42 36 38 49 66 68 98 79 52 66 60 81 81 77 74 72 72 81 77 70
84 72 56 46 60 74 75 49 35 51 44 34 36 35 32 26 28 26 22 22 25 32 42 60 82 77 65 55 71 97 89 74 92 81 76 81 81 78 79 81 78 71 67
72 70 63 50 68 85 88 68 49 39 43 50 56 57 58 57 52 48 51 62 80 77 63 64 74 68 65 78 99 93 98 98 77 78 67 63 65 72 75 73 66 58 56
77 64 71 71 77 90 91 68 65 54 48 55 57 49 50 46 49 54 55 60 73 79 84 76 69 92 95 98 90 68 74 78 75 74 72 72 74 70 59 48 46 47 49
90 100 100 92 86 96 100 91 93 80 67 54 49 50 60 50 50 60 82 90 81 68 65 64 97 68 59 58 64 74 81 80 81 79 76 73 59 41 40 49 57 53 42
100 100 89 86 89 92 96 90 98 97 89 72 78 77 57 55 57 68 93 93 83 70 68 89 64 61 65 70 78 82 77 76 75 77 64 40 38 51 56 51 44 38 38
100 100 97 100 100 99 96 89 85 100 98 97 98 94 82 83 63 60 76 87 88 94 97 84 70 71 83 88 88 90 88 82 80 67 51 57 59 55 48 43 40 34 24
83 94 98 100 99 98 99 100 96 100 89 81 97 100 93 100 94 81 84 94 100 100 98 98 99 98 97 90 89 92 91 78 66 61 62 59 51 44 40 32 24 19 16
48 60 74 99 100 100 100 99 100 96 92 95 88 96 98 92 85 89 85 90 100 100 100 98 90 98 98 99 95 82 75 70 66 63 55 46 41 36 29 21 17 14 10
48 60 69 87 100 100 100 100 100 100 100 86 95 99 99 97 100 100 100 100 100 99 100 100 100 100 99 92 84 74 68 67 57 48 43 37 30 21 17 13 8 6 4
43 54 72 84 94 100 100 98 98 100 97 97 100 99 100 98 100 100 100 99 99 100 100 100 99 94 74 59 63 65 55 50 46 40 32 24 19 14 9 6 4 3 4
49 55 62 84 94 99 100 99 98 100 100 100 99 98 98 100 99 99 100 100 99 100 97 78 56 53 59 60 59 52 46 42 35 27 22 15 10 7 5 4 4 5 6
56 84 78 74 98 100 100 100 100 99 98 100 100 100 99 100 100 99 99 96 72 52 38 47 52 62 63 56 49 44 39 31 25 17 11 8 5 4 4 5 6 8 11
81 96 100 98 100 100 100 100 100 100 99 99 99 100 100 100 99 86 64 39 34 40 46 50 56 56 52 47 43 37 29 21 14 9 6 5 4 5 6 8 11 11 11
100 100 99 99 96 96 99 100 100 100 100 100 100 99 99 94 66 36 42 55 53 53 54 54 51 49 48 41 33 24 16 10 7 6 5 5 6 7 10 12 11 12 18
98 97 96 99 100 100 100 100 100 100 100 98 97 89 64 42 53 59 61 62 61 59 52 49 50 46 37 25 20 12 9 6 6 6 7 8 9 14 13 11 14 20 31
100 100 100 99 99 99 100 99 99 99 92 76 63 54 56 61 70 70 63 56 56 57 55 50 43 32 21 13 10 7 6 7 8 9 9 12 15 14 13 16 22 39 46
100 100 100 100 100 100 100 97 87 86 85 81 81 83 83 80 73 69 69 66 61 54 48 38 26 16 10 8 6 7 8 9 10 11 16 17 16 16 18 25 45 51 52
100 100 100 100 97 97 96 90 83 80 82 86 85 83 83 82 79 76 69 61 53 43 29 17 10 8 7 7 9 10 10 11 12 17 21 18 18 20 28 48 50 50 60
100 100 100 100 98 98 98 98 97 88 84 80 82 83 85 83 77 69 61 51 34 21 14 8 7 8 8 11 11 11 12 14 17 23 20 23 24 34 52 56 53 58 67
100 97 98 100 100 100 100 97 95 92 90 85 84 85 82 75 68 60 46 30 16 10 8 8 9 10 12 13 12 13 16 18 26 22 25 29 37 50 58 61 57 64 71

GFSGL_500_rhum_108.txt.gz
RH
34 33 36 29 32 19 33 50 79 91 94 97 97 97 97 96 97 97 97 97 97 96 93 83 82 76 53 32 30 30 38 49 40 64 71 81 92 98 100 91 92 81 91
39 39 30 33 25 32 22 22 29 54 80 84 91 94 95 94 85 78 68 61 53 58 66 56 47 33 32 34 39 50 50 52 53 62 84 93 92 89 77 80 92 94 96
41 42 43 38 24 25 30 37 23 22 26 42 59 53 35 36 39 39 41 47 38 34 33 34 37 44 53 52 56 67 72 66 60 59 64 70 85 89 100 78 55 53 49
40 45 46 48 25 23 26 28 43 49 51 62 66 66 61 56 48 39 35 34 36 31 30 40 54 63 65 70 78 88 44 29 58 55 56 65 67 71 58 58 77 73 74
47 58 56 57 34 28 29 33 30 68 73 68 64 66 68 76 78 78 77 78 69 59 57 79 76 82 86 61 30 18 28 34 58 69 64 100 98 90 66 73 65 60 55
61 74 65 71 50 35 33 35 31 32 38 54 59 52 42 31 26 23 31 62 87 88 82 84 83 42 18 33 52 72 72 68 69 78 98 98 89 93 94 74 65 59 54
67 80 84 79 66 45 50 52 48 37 28 31 31 31 31 29 26 22 18 16 16 17 17 17 27 59 74 61 72 64 88 94 97 100 97 93 79 77 82 74 64 55 52
77 91 97 76 73 58 75 76 78 64 51 34 29 34 41 46 47 42 41 44 41 42 58 61 54 64 59 53 54 74 85 92 94 96 80 71 76 70 63 60 60 62 65
98 87 94 74 80 92 77 70 74 68 70 66 48 39 43 49 48 46 42 41 45 52 56 75 68 68 98 83 73 98 96 67 61 66 68 68 70 69 68 71 72 65 66
97 96 97 98 95 100 100 85 84 91 79 90 90 80 69 61 53 56 41 46 51 52 70 81 77 91 92 84 91 78 73 71 75 72 79 79 81 81 78 76 71 68 60
98 98 97 97 99 100 88 84 96 98 95 80 83 86 90 88 81 81 78 72 63 68 77 76 96 87 89 94 87 98 97 83 76 83 84 88 89 84 82 75 61 44 38
98 99 98 99 99 97 96 93 99 98 96 82 73 93 100 98 91 78 88 99 100 92 86 89 80 79 92 95 95 98 100 96 96 91 88 96 94 74 49 43 43 43 39
98 98 98 98 98 99 98 97 97 89 99 99 98 98 88 87 77 64 88 88 96 100 98 98 99 100 95 96 100 100 98 98 95 97 83 47 34 38 38 37 36 30 30
63 87 91 96 96 97 98 95 97 96 95 94 78 81 74 77 84 78 94 74 92 98 91 91 88 94 91 100 100 100 99 92 53 27 29 37 37 31 29 30 30 30 27
20 30 35 45 59 63 69 80 84 86 76 92 100 87 84 71 100 100 99 100 100 98 99 100 99 100 100 99 98 74 42 34 33 37 36 32 29 33 35 32 29 24 17
11 12 13 19 42 54 67 80 76 66 82 94 100 100 98 100 100 98 95 100 100 99 100 100 99 99 97 82 46 36 40 41 36 29 26 29 32 32 30 26 17 11 7
17 12 12 15 26 37 56 49 45 90 54 100 99 100 98 100 91 100 100 99 100 100 100 99 97 84 52 45 47 44 40 32 30 32 32 33 32 29 21 12 8 5 4
19 19 20 20 16 18 25 55 99 100 66 74 76 86 82 100 100 99 99 100 100 99 99 87 61 51 50 47 40 38 35 34 34 34 34 31 23 13 9 6 4 5 6
63 45 45 38 38 43 58 99 100 100 100 100 100 100 100 98 98 100 100 100 97 90 86 67 52 53 48 41 40 40 38 39 37 32 25 15 10 6 5 6 6 8 11
96 99 100 100 99 100 100 100 100 100 100 100 100 100 100 100 100 100 99 85 70 62 62 66 59 49 43 42 42 40 39 35 28 18 11 7 6 6 7 8 10 12 11
97 96 100 100 100 100 99 100 100 100 100 100 100 100 100 99 96 91 82 67 65 65 67 63 54 51 48 46 42 38 32 21 12 8 7 7 7 8 9 13 13 13 20
100 100 100 100 100 100 100 100 100 100 100 100 100 91 80 76 70 64 64 69 69 66 62 57 54 50 47 42 37 28 15 9 7 7 9 9 9 10 15 16 16 26 33
100 100 100 100 100 100 100 100 97 99 100 100 93 87 84 79 72 70 71 68 67 64 61 59 54 49 42 36 24 13 8 7 9 11 11 11 12 17 17 18 27 40 36
100 100 100 100 100 100 100 100 100 100 100 100 91 83 80 74 70 72 72 70 66 64 61 55 50 41 32 18 9 7 8 10 13 12 12 13 19 20 20 26 41 44 44
100 100 100 100 100 100 100 99 100 100 100 97 87 84 82 76 76 74 74 73 69 64 57 49 36 22 11 8 8 10 11 13 14 13 14 18 22 22 25 35 47 44 54
99 98 99 99 98 100 99 98 100 100 100 97 91 89 88 85 82 82 79 74 66 55 41 27 15 10 8 9 11 13 13 16 16 15 17 24 24 26 32 48 52 47 63

GFSGL_500_rhum_111.txt.gz
RH
36 36 31 32 22 28 25 37 54 94 96 96 96 97 97 96 97 98 98 97 97 97 98 97 98 97 97 97 97 96 96 77 39 73 69 79 81 83 82 93 99 100 100
42 42 36 36 27 21 28 29 36 42 91 97 97 97 97 97 97 97 96 97 97 97 97 98 97 97 96 94 95 85 47 37 33 47 65 58 60 68 79 87 75 90 98
49 47 40 41 37 21 24 32 21 28 31 80 96 96 96 97 97 97 97 96 93 90 85 83 95 89 83 74 46 42 46 56 62 66 79 76 30 34 40 56 78 82 85
54 52 42 40 41 26 17 22 36 26 24 21 31 66 86 93 90 86 84 85 79 72 62 60 53 48 40 43 55 66 69 79 80 66 31 27 43 57 100 79 91 100 95
64 70 49 46 50 36 20 17 18 28 43 42 49 40 41 44 48 55 57 54 48 42 37 37 37 33 33 47 68 80 93 63 20 71 74 74 82 77 79 88 90 97 88
53 62 59 65 62 59 32 32 23 20 21 59 70 65 68 71 70 70 76 78 78 77 75 75 70 68 76 100 95 40 20 64 73 83 71 80 100 98 96 96 92 85 73
74 50 48 71 74 73 46 37 50 42 24 23 34 58 62 58 50 42 34 28 24 21 26 32 40 44 36 23 27 68 69 65 80 68 95 91 98 98 98 82 76 75 78
94 73 56 60 70 75 62 46 50 56 55 44 33 25 25 30 29 28 25 25 28 28 28 33 35 33 42 60 56 66 67 96 99 94 87 88 86 93 90 90 80 72 70
97 97 90 75 74 83 83 64 56 53 65 59 44 47 36 29 29 28 37 42 40 35 32 30 32 42 52 62 73 73 73 85 77 77 76 88 90 82 89 98 87 79 81
98 98 98 94 100 92 90 86 76 66 74 75 74 61 64 59 64 71 72 76 72 71 64 65 49 41 43 42 52 64 73 68 73 73 85 92 100 98 88 96 91 75 57
97 97 98 97 96 77 77 79 91 83 64 65 75 74 76 61 60 82 92 95 87 80 79 78 90 90 90 90 93 73 66 80 95 89 85 90 90 88 96 86 61 38 27
97 97 97 98 98 96 92 77 70 76 70 69 82 83 80 89 82 85 94 100 96 90 77 89 90 100 98 91 82 88 89 91 96 100 100 100 98 92 61 43 30 23 18
96 88 94 95 99 98 96 97 96 82 95 83 81 87 83 97 97 98 100 97 91 86 98 99 93 99 92 87 100 99 99 100 98 97 97 96 58 43 30 22 19 16 15
87 94 98 97 98 97 98 98 98 99 99 99 97 100 99 98 94 97 99 93 90 97 85 96 84 100 100 100 100 100 100 99 97 97 73 41 26 20 18 17 16 15 17
50 68 95 95 92 79 90 95 97 98 92 86 76 76 81 66 61 84 97 98 97 91 99 99 99 98 98 100 100 98 96 98 84 52 33 22 21 23 22 18 16 16 20
14 11 16 20 18 40 63 38 29 32 36 33 45 99 96 89 76 100 87 89 93 100 99 100 100 100 100 98 90 100 91 96 74 43 29 29 31 27 21 18 19 25 21
10 8 9 10 12 18 20 14 11 12 18 98 37 16 33 98 81 73 60 99 100 100 100 100 99 98 96 98 99 94 62 47 40 36 37 33 28 21 17 20 25 19 11
35 38 43 40 36 31 24 22 30 26 25 94 41 72 100 90 100 100 98 86 97 100 100 99 100 99 97 99 93 68 51 47 42 38 35 33 27 24 25 24 16 9 6
26 35 35 27 30 31 34 37 53 64 84 66 18 36 83 100 99 95 97 100 99 98 100 99 96 96 88 67 59 54 50 43 40 39 38 33 29 29 23 11 8 6 6
47 52 34 36 72 84 58 93 100 91 96 100 100 98 100 100 100 100 100 100 100 97 91 80 73 72 68 62 56 52 48 43 43 42 37 31 26 18 10 7 7 8 10
87 89 87 95 89 97 95 100 100 100 100 100 100 100 100 100 100 100 100 94 83 80 81 80 76 68 65 62 58 54 50 47 43 37 30 22 14 8 7 9 9 11 15
100 100 100 100 100 100 100 100 100 100 100 100 100 100 100 100 100 100 92 93 91 85 78 73 70 70 66 62 57 53 48 43 35 26 19 12 8 8 10 11 13 17 16
100 99 99 100 100 100 100 100 100 100 100 100 100 100 100 100 100 97 97 95 88 84 85 85 79 75 68 60 55 47 39 30 23 16 10 9 10 12 13 13 18 19 22
100 100 100 100 100 100 100 100 99 100 100 98 98 100 100 98 96 98 96 92 92 94 89 82 78 72 63 54 42 32 24 18 12 8 9 11 14 15 14 18 21 22 32
99 100 100 100 100 100 100 100 100 100 100 100 100 100 100 100 100 100 99 98 97 91 84 78 71 63 49 37 29 20 14 10 8 11 12 14 17 16 17 23 23 27 42
100 100 100 100 100 99 99 97 93 92 96 98 98 99 99 96 94 95 98 97 92 86 77 69 60 44 34 25 15 12 9 9 13 13 15 18 18 19 23 26 27 34 47

GFSGL_500_rhum_114.txt.gz
RH
22 23 32 37 34 26 16 24 33 60 80 96 97 96 95 96 97 97 98 96 97 96 97 98 97 97 97 97 98 98 98 97 96 98 97 96 77 58 63 64 69 70 72
24 25 35 41 38 30 16 20 26 35 56 83 97 97 96 95 97 97 97 97 97 97 97 97 92 96 98 98 97 97 98 98 96 97 84 45 48 64 76 94 99 81 45
29 32 36 40 41 36 26 16 26 28 34 51 95 97 96 97 96 97 97 97 98 97 97 95 98 98 98 98 97 96 94 86 74 53 44 59 68 82 86 39 29 53 77
38 36 39 36 40 38 33 16 15 27 32 24 43 81 96 97 97 96 98 97 96 95 87 93 96 96 93 91 90 83 77 62 45 54 65 79 84 26 50 86 93 92 96
48 42 47 30 31 36 36 24 15 16 25 40 32 33 36 93 96 97 98 96 96 92 93 84 93 90 83 78 74 53 39 39 50 74 82 53 20 43 91 85 97 91 100
49 52 53 35 31 35 36 35 20 15 16 23 48 50 51 44 41 60 60 60 64 60 60 55 51 49 50 50 49 53 66 87 100 94 25 36 79 100 82 82 90 96 90
56 61 55 43 37 38 42 43 27 21 15 13 17 23 49 58 62 66 68 67 67 64 58 46 32 32 45 54 58 60 48 44 37 42 64 66 72 89 98 93 79 79 87
75 67 61 45 39 37 44 62 39 28 26 21 16 14 14 16 28 39 45 46 39 29 25 24 26 27 30 33 37 38 43 58 66 76 80 89 85 85 94 73 77 95 78
96 88 68 63 53 44 56 70 50 35 35 38 38 28 23 20 16 14 14 14 17 48 46 60 57 54 54 55 51 42 42 46 53 63 83 80 67 71 75 77 92 94 99
98 96 91 79 55 51 68 81 59 39 39 47 54 55 50 39 40 39 36 41 53 62 71 75 76 70 70 70 72 82 84 71 82 89 89 94 98 98 99 98 99 100 94
98 99 97 97 96 93 70 75 76 52 46 46 53 59 60 69 71 69 59 52 57 65 63 65 75 83 83 82 76 86 97 98 97 100 94 94 100 100 96 100 99 83 91
99 93 98 98 99 97 95 92 66 48 50 58 60 55 54 57 68 71 77 89 91 83 85 87 82 73 84 90 86 100 100 98 100 100 99 100 98 98 98 93 90 91 75
97 97 94 96 91 85 98 97 95 81 72 64 64 86 98 90 82 98 100 100 95 92 99 100 95 99 100 100 95 100 100 100 99 99 99 100 99 96 98 100 90 50 35
97 99 93 97 95 98 99 99 98 97 99 100 97 98 100 97 99 97 98 100 100 98 99 99 99 94 98 100 99 99 96 97 100 100 99 97 98 100 93 57 43 40 37
68 70 82 96 92 92 97 98 97 98 97 98 96 98 97 97 99 93 90 98 100 100 99 89 99 99 98 98 98 100 100 100 97 98 100 100 97 69 48 45 40 36 30
50 40 46 46 50 62 77 98 98 87 68 92 99 98 98 96 97 74 91 85 99 66 100 95 89 96 95 81 88 100 99 99 100 100 92 65 54 51 45 41 38 34 28
42 31 21 18 23 20 16 14 12 60 89 73 64 29 53 86 32 51 65 86 68 97 100 99 100 99 89 95 100 100 100 100 94 66 56 52 50 44 42 38 36 30 24
20 22 28 39 32 21 18 24 29 30 28 25 66 78 30 58 58 95 67 44 68 98 100 99 100 100 100 100 100 100 97 73 63 58 53 48 46 44 44 37 30 25 21
19 14 13 22 27 28 29 31 27 25 26 26 41 96 99 100 100 96 58 76 98 99 100 100 100 100 100 100 100 97 80 68 64 60 56 53 51 46 38 31 25 21 13
22 21 22 28 29 27 28 30 36 51 74 70 69 80 89 71 77 91 99 100 100 100 100 100 100 99 98 96 90 79 74 74 68 61 58 53 46 37 30 25 17 10 7
73 46 40 43 78 71 74 66 92 100 100 86 100 100 100 100 100 100 100 100 100 100 99 99 97 98 93 90 86 78 74 70 64 60 53 45 35 28 21 15 8 6 9
96 87 79 84 100 100 100 100 100 100 100 100 100 100 100 100 100 100 100 100 96 97 99 98 96 95 94 91 86 82 75 68 61 53 43 32 24 19 13 8 7 10 12
100 100 99 100 100 100 100 100 100 100 100 100 100 100 100 99 99 97 98 99 100 100 99 99 100 98 95 93 90 79 69 61 51 40 29 21 16 12 8 8 12 13 14
100 100 100 100 100 100 100 100 100 100 100 100 100 100 100 100 99 100 100 98 97 98 96 98 98 97 97 91 82 68 61 52 39 26 18 14 10 9 10 13 15 16 18
100 100 100 100 100 100 100 100 100 100 100 99 99 100 98 100 100 100 100 99 96 96 100 100 98 96 86 81 72 63 53 32 22 13 11 9 10 12 15 16 17 19 24
66 93 98 99 100 100 100 100 100 100 100 100 100 100 100 100 99 98 98 99 99 96 97 98 94 87 82 75 66 51 28 18 12 10 10 12 13 16 16 18 21 23 29

GFSGL_500_rhum_117.txt.gz
RH
62 72 62 19 25 33 36 25 23 23 52 64 71 92 95 97 94 83 87 95 94 96 96 97 97 96 98 97 96 97 97 97 98 99 97 96 97 98 98 94 62 42 54
82 69 70 19 25 32 37 29 17 24 23 33 53 89 96 97 96 100 97 97 95 96 97 97 97 96 96 96 95 96 98 98 97 99 98 99 97 98 93 52 53 68 80
61 69 70 22 27 35 36 32 18 16 25 24 29 83 86 95 96 96 98 94 97 97 97 97 97 96 96 95 97 97 97 95 96 98 98 96 92 67 55 68 88 98 85
86 88 73 24 27 36 35 33 18 12 24 31 26 46 95 97 97 97 98 97 97 97 97 97 96 97 87 80 98 97 97 97 98 87 75 62 48 55 80 96 100 78 28
95 96 77 30 30 38 32 34 29 14 12 21 34 29 55 95 96 97 95 97 98 97 98 97 97 95 97 95 90 83 95 91 85 60 48 45 60 82 100 98 55 25 48
97 98 70 35 33 36 32 30 36 24 14 12 17 34 42 43 81 98 97 97 98 97 92 91 95 89 76 80 77 72 56 57 54 51 62 83 97 92 80 38 48 77 76
95 98 78 38 34 37 33 31 39 35 17 13 13 17 22 42 54 56 88 94 94 95 98 94 78 74 68 62 53 47 46 46 40 36 38 37 36 38 57 66 72 81 90
95 100 70 41 40 40 33 34 36 38 31 16 13 12 14 16 24 42 56 61 65 65 64 60 55 42 31 26 26 28 33 37 40 40 39 38 44 55 60 67 99 100 99
96 97 84 44 45 46 38 36 33 32 36 28 20 14 11 12 13 16 22 28 34 39 37 32 28 29 34 47 54 55 60 67 75 79 85 87 77 74 85 92 87 91 100
100 94 96 80 51 49 43 40 33 31 31 35 30 25 23 19 17 16 18 18 18 18 17 32 51 60 69 73 80 84 81 86 91 92 96 88 92 96 100 100 100 100 99
93 99 88 88 94 73 50 43 35 33 34 45 37 31 34 43 48 45 39 37 40 40 45 54 64 62 63 67 77 80 80 86 88 96 95 92 78 88 100 99 97 100 100
99 99 79 92 97 96 95 92 81 70 61 53 50 38 39 44 48 48 55 60 63 65 72 74 73 76 88 91 90 94 89 92 90 96 100 100 99 99 96 89 100 99 99
95 97 97 93 100 100 99 91 100 98 88 85 70 53 47 48 54 58 73 73 66 74 79 84 84 80 81 87 100 100 90 100 100 97 88 82 71 81 98 100 100 96 78
99 98 97 98 97 89 100 99 94 99 96 97 92 80 64 63 67 80 88 90 94 88 96 94 100 99 99 100 98 99 100 99 98 86 77 78 97 100 100 100 92 82 62
100 98 98 98 95 98 99 99 99 98 97 98 98 94 98 99 95 95 99 99 99 98 100 98 100 97 100 99 94 97 100 100 100 92 95 100 100 100 97 92 88 74 56
98 96 98 98 97 98 99 98 97 97 97 97 99 98 98 96 98 98 98 97 99 98 97 95 82 60 81 93 95 98 88 79 81 94 98 99 97 94 90 76 68 59 49
96 96 97 96 78 98 75 58 46 49 70 98 99 99 98 94 97 97 96 98 100 100 99 96 98 92 64 49 86 97 94 98 97 99 100 94 90 86 75 65 58 52 45
57 70 79 80 81 83 35 23 25 42 81 41 48 50 33 97 78 87 58 76 77 81 87 100 94 75 81 92 96 96 95 96 99 96 95 92 84 76 68 62 54 49 43
31 37 32 25 25 25 29 35 35 29 28 30 33 31 30 42 28 45 100 100 93 94 98 83 83 94 96 97 96 99 96 94 96 95 89 86 80 71 66 58 51 45 38
7 12 20 18 16 16 14 16 22 26 29 27 30 39 61 84 74 58 64 88 99 94 94 94 95 97 100 100 100 100 100 98 96 95 91 80 76 70 60 52 47 38 30
47 40 31 26 21 23 34 39 40 36 49 65 73 95 100 100 88 81 93 96 96 98 99 100 100 100 100 99 96 94 92 93 91 82 85 80 72 61 55 48 37 28 15
77 81 90 83 62 54 63 76 95 100 100 100 100 100 100 100 100 100 100 100 100 100 100 100 100 96 92 94 96 94 87 85 87 85 80 73 65 57 45 33 22 12 9
96 100 100 100 100 100 97 100 100 100 100 100 100 100 100 100 100 100 100 100 100 100 94 89 96 99 96 88 86 90 92 90 86 81 73 66 57 46 32 21 11 9 10
100 100 100 100 100 100 100 100 100 100 100 100 100 100 100 99 99 100 100 100 100 98 93 92 91 93 93 95 95 94 93 88 82 73 66 55 42 29 18 11 10 11 13
100 100 100 100 100 100 100 100 100 100 100 100 100 100 100 100 100 100 100 98 94 94 95 96 97 96 95 96 94 88 85 82 74 66 57 40 26 15 12 11 12 15 15
35 72 97 100 100 100 100 100 100 100 100 100 100 100 100 100 100 100 96 94 94 95 94 98 98 97 94 92 90 87 79 74 67 56 37 21 14 12 13 15 17 16 18

GFSGL_500_rhum_120.txt.gz
RH
43 87 86 72 81 69 28 28 25 24 25 43 74 82 91 89 96 91 95 97 96 94 95 81 83 86 95 96 97 96 98 97 97 97 96 98 98 92 92 96 99 100 95
42 89 81 86 92 74 33 28 25 27 24 24 44 54 80 74 94 97 82 70 91 96 98 97 97 97 96 96 96 96 94 97 98 98 97 98 97 97 98 98 98 99 83
47 76 77 80 90 78 36 27 27 35 18 25 24 34 48 75 82 97 97 96 90 80 93 96 97 95 97 97 95 96 94 92 97 97 97 97 98 96 97 92 90 87 69
64 70 82 88 85 81 36 26 29 37 23 15 26 24 56 86 91 93 97 96 96 100 97 97 96 97 97 98 96 95 87 95 96 97 98 94 83 88 86 78 61 51 57
89 82 89 86 81 79 34 27 29 34 26 12 19 31 37 96 100 96 96 98 97 94 98 97 97 97 98 98 97 96 95 95 88 86 79 88 98 95 62 50 58 83 93
100 96 92 90 86 94 34 28 33 35 33 15 11 17 35 68 96 98 97 98 97 97 96 97 96 98 97 98 97 94 78 78 86 94 100 87 60 51 51 56 51 42 42
99 100 91 96 95 100 47 29 35 38 34 31 12 10 20 38 64 94 97 95 96 97 97 97 97 97 95 95 90 84 97 97 72 63 48 35 32 38 42 45 49 50 48
94 100 95 97 96 100 60 32 38 38 34 31 26 13 11 16 24 39 60 96 96 96 96 96 96 98 90 87 100 97 67 41 30 28 36 45 56 69 75 78 84 91 89
100 98 96 97 95 98 60 38 41 44 35 33 30 26 16 13 13 15 24 39 54 70 88 98 95 96 83 72 54 31 28 38 50 57 60 68 74 80 96 100 100 100 100
99 96 96 97 97 98 76 42 48 49 41 32 32 36 30 24 20 17 16 16 21 27 37 47 47 45 35 28 31 43 60 66 73 77 80 85 89 91 97 95 100 100 100
83 88 95 96 95 95 93 45 60 53 44 33 32 35 40 34 30 37 34 28 27 27 26 25 24 25 30 50 65 71 74 78 81 91 92 94 95 98 100 100 99 94 86
98 89 90 87 89 100 97 94 69 53 48 43 40 36 36 42 38 38 54 52 51 46 48 53 54 59 65 75 79 84 91 89 91 90 86 91 100 100 100 100 99 95 93
98 97 98 81 94 93 96 94 90 88 73 61 64 66 71 64 52 41 46 56 57 60 63 66 69 76 83 82 94 94 95 97 100 100 100 100 98 97 100 99 98 94 97
98 98 93 98 75 97 97 96 97 98 98 93 87 90 88 82 81 65 53 52 61 76 87 87 86 86 89 85 84 97 100 100 97 96 98 98 91 96 97 98 96 92 90
97 98 98 98 98 91 96 98 100 98 98 98 92 94 99 95 92 91 77 65 65 78 86 90 89 91 96 97 100 100 100 96 93 90 92 96 97 85 85 87 87 85 78
100 85 98 98 98 98 97 96 98 100 99 98 98 97 99 90 100 96 99 99 100 99 92 97 98 100 100 96 93 93 95 94 95 97 91 85 90 87 85 79 74 79 82
98 99 95 99 99 98 97 97 99 99 99 98 99 99 98 99 99 99 97 98 98 97 90 94 94 96 98 94 81 95 99 93 85 89 91 88 88 81 80 84 85 81 72
98 98 97 98 99 98 99 99 98 98 97 94 94 95 100 99 98 93 97 98 77 100 94 97 100 80 94 100 92 94 87 85 88 86 88 90 87 86 84 80 71 70 69
66 90 95 99 98 99 98 100 99 98 99 99 87 100 99 98 100 100 100 62 48 87 99 51 62 100 100 99 99 90 82 86 88 91 90 93 90 84 76 68 73 69 64
14 20 23 65 87 84 98 94 95 76 48 57 31 72 95 65 28 31 33 34 36 50 48 55 57 70 87 93 91 88 92 97 96 94 91 83 70 63 66 72 71 66 58
8 10 13 13 16 29 25 28 35 35 93 93 52 49 53 50 48 47 51 54 75 88 90 82 85 90 94 95 97 97 90 88 91 87 75 68 70 77 78 72 68 60 52
23 30 31 28 29 38 42 44 47 59 64 70 68 67 90 94 96 94 100 100 100 100 99 100 98 96 100 100 96 89 88 83 78 77 78 82 76 73 72 68 60 54 47
54 60 75 74 79 74 61 52 52 60 69 72 85 100 100 100 100 100 100 100 100 100 98 99 100 100 96 92 85 80 81 82 83 85 82 78 77 74 67 60 55 44 31
100 100 100 100 100 96 97 100 100 95 95 97 100 100 100 100 100 100 100 100 100 100 100 97 97 92 88 85 87 92 96 94 84 82 81 80 74 67 62 54 41 26 14
100 100 100 100 100 100 100 100 100 100 100 100 100 100 100 100 100 100 100 100 100 100 100 100 95 94 92 96 96 91 83 80 87 87 82 76 68 60 50 36 22 13 11
78 92 92 95 96 97 98 100 100 100 100 100 100 100 100 100 100 100 100 100 100 99 97 96 98 99 95 94 88 85 89 91 88 83 75 66 58 46 31 19 13 13 15

GFSGL_500_rhum_123.txt.gz
RH
7 4 3 9 23 57 87 70 72 44 27 25 17 43 85 80 73 95 96 96 96 97 97 97 96 96 97 97 94 82 96 98 96 89 96 95 97 93 96 94 88 96 98
10 4 3 4 19 60 83 86 78 41 27 25 17 50 78 77 71 97 96 97 97 95 97 97 96 95 96 94 90 96 98 97 97 95 96 89 97 97 96 91 91 94 87
12 5 3 3 15 68 89 91 76 42 28 26 18 22 39 48 45 65 96 96 96 97 96 96 97 96 96 88 92 97 97 97 96 95 95 96 95 96 93 92 90 90 80
9 7 4 3 21 63 82 90 78 47 27 27 21 15 24 25 28 38 66 90 97 96 97 98 95 96 96 99 97 97 98 96 97 99 96 93 89 94 94 80 80 87 88
13 7 3 3 18 63 79 88 81 49 25 28 24 20 18 31 30 28 64 75 97 96 96 96 97 94 96 98 97 98 97 97 98 98 97 93 88 76 77 80 88 88 62
10 4 3 3 7 58 86 89 84 54 26 30 25 25 16 17 30 34 97 86 67 91 97 98 100 98 97 98 97 97 96 97 97 97 94 84 79 75 76 72 57 44 35
4 2 3 3 14 72 95 90 80 58 28 30 25 30 24 14 17 30 97 99 95 96 98 97 98 98 97 98 97 98 97 96 95 94 88 89 76 66 56 43 34 42 61
3 8 21 7 60 97 96 90 82 71 30 32 26 30 32 13 14 22 48 96 96 97 97 97 97 98 97 97 97 97 94 92 93 91 93 69 37 28 32 44 56 64 76
21 32 22 25 99 99 91 95 96 90 38 34 26 27 38 22 14 16 23 45 91 97 97 97 97 97 97 97 95 91 97 86 88 91 50 28 41 57 68 76 80 86 93
45 57 55 65 98 93 92 97 99 97 51 35 31 26 34 38 25 14 12 16 34 59 66 81 89 93 92 97 100 100 95 78 56 31 43 63 76 80 81 99 100 100 99
37 91 78 64 97 100 96 96 95 99 70 36 38 33 34 43 40 31 25 19 14 18 40 49 92 99 99 96 68 50 35 30 45 64 78 84 92 95 98 99 100 99 99
42 80 78 80 86 97 96 97 96 98 92 44 40 44 44 40 47 48 38 38 41 37 29 21 19 20 23 24 24 28 34 59 80 91 95 97 96 100 100 100 98 96 96
42 79 92 96 97 94 96 96 97 97 97 90 89 61 56 62 51 56 60 52 45 57 56 56 53 54 66 75 78 85 88 90 92 98 100 91 91 100 100 100 97 99 98
80 82 97 96 98 93 95 96 95 99 98 97 97 81 73 70 66 74 81 84 78 63 55 59 68 75 87 98 100 100 99 99 98 97 92 95 96 99 98 95 92 95 94
99 95 90 97 97 97 90 90 87 99 100 98 96 96 95 83 88 90 96 100 99 98 92 75 67 80 84 86 90 97 96 94 100 100 100 93 93 98 89 83 88 83 79
99 100 100 97 98 97 99 100 99 94 92 100 99 96 97 98 99 99 97 96 100 100 96 100 99 93 84 93 100 100 100 100 100 99 100 100 94 87 79 75 81 78 75
100 96 96 98 96 98 99 99 99 97 100 98 98 98 98 98 100 100 100 100 100 100 100 99 98 99 99 94 97 100 100 77 71 83 91 97 96 86 76 80 76 69 75
97 100 99 99 98 98 98 99 99 98 98 99 98 98 98 98 99 99 99 99 100 99 100 100 100 100 100 99 91 100 100 91 82 94 92 85 88 88 84 75 72 71 63
99 99 99 95 99 98 97 98 98 99 99 99 100 99 98 98 98 99 99 98 98 99 99 100 99 99 98 82 93 89 73 70 76 81 88 92 89 78 70 72 65 61 55
85 98 98 99 99 99 98 99 99 98 100 100 98 99 100 100 98 99 98 99 99 99 100 98 88 75 56 48 54 72 80 88 94 94 94 90 78 71 63 55 55 66 64
11 66 98 98 99 99 99 99 99 100 99 100 100 100 98 98 94 89 99 100 98 96 64 40 43 51 59 69 94 96 97 97 97 95 92 85 68 58 58 71 71 64 68
19 17 28 57 82 95 95 98 98 99 99 99 100 92 98 100 100 97 55 52 51 48 52 60 72 89 98 99 100 97 96 96 94 92 82 72 69 74 70 57 60 73 73
55 53 52 51 57 61 55 52 57 63 83 95 94 90 92 86 78 75 64 82 98 100 100 100 100 100 100 99 100 100 96 95 89 81 77 79 76 67 62 64 74 72 61
100 100 98 91 95 96 97 98 98 91 82 72 65 68 73 77 84 96 100 100 100 100 100 100 100 100 100 100 100 98 92 90 87 82 69 70 64 65 70 73 70 59 50
100 100 100 100 100 100 100 100 100 100 100 100 100 100 100 100 100 100 100 100 100 100 100 100 100 100 100 100 98 90 87 85 64 58 58 70 71 74 75 67 57 52 42
51 87 99 100 100 100 100 100 100 100 100 100 100 100 100 100 100 100 100 100 100 100 100 100 100 100 99 95 94 75 56 55 58 71 72 77 76 72 63 56 51 40 24

GFSGL_500_rhum_126.txt.gz
RH
28 20 23 21 10 4 6 18 42 46 79 64 68 33 22 23 22 72 92 94 97 97 98 97 97 98 97 94 95 89 96 96 96 97 84 89 96 98 96 94 99 100 98
40 39 21 16 11 7 4 9 37 61 79 65 69 31 22 23 46 77 95 97 97 97 97 97 96 97 97 93 91 96 98 96 93 82 91 95 96 96 97 96 95 97 97
50 49 33 17 13 10 4 6 25 45 91 67 76 33 22 25 21 58 77 66 94 96 97 97 97 96 97 96 96 97 96 94 94 80 100 93 96 94 98 97 98 97 95
45 50 41 26 18 12 4 5 18 48 91 76 73 37 22 30 18 20 25 42 39 60 96 97 97 97 97 97 97 97 96 94 93 96 94 96 94 90 100 98 99 93 82
37 37 51 37 25 12 5 3 8 41 80 80 73 44 22 32 27 14 19 27 31 28 71 97 97 97 96 97 97 97 96 95 97 96 95 96 91 100 97 97 88 74 76
32 32 64 41 24 11 7 3 4 32 80 87 79 45 24 29 25 12 12 26 26 35 68 73 97 97 97 96 97 97 97 97 97 97 98 100 98 98 96 88 80 87 74
26 28 30 32 25 11 5 4 3 19 77 91 84 48 26 29 27 18 12 14 34 96 86 92 96 96 98 97 97 97 97 96 97 98 96 97 95 91 92 100 96 64 37
22 24 25 24 18 6 4 6 3 20 90 91 86 53 28 29 27 22 12 14 52 98 99 96 100 98 96 98 98 97 98 98 98 97 97 94 92 99 100 99 56 31 40
18 21 18 17 10 5 16 10 7 51 100 96 87 59 30 31 30 29 13 13 35 86 96 96 98 97 97 98 97 98 97 96 97 95 94 98 99 99 99 59 33 51 68
11 15 11 7 11 12 25 71 29 93 100 97 90 72 33 34 32 33 23 12 15 33 89 97 96 97 97 96 97 97 97 96 96 100 99 100 99 98 59 39 61 78 89
6 9 8 5 36 42 45 61 46 100 100 96 94 88 41 39 32 37 37 28 16 13 21 43 76 93 96 96 96 96 97 97 100 99 95 79 48 33 48 64 76 89 98
4 6 6 5 31 98 65 63 74 99 98 97 97 96 54 41 33 34 42 41 32 28 17 17 23 51 100 100 100 100 99 98 92 51 29 25 32 48 80 96 98 99 98
4 4 4 4 30 81 96 75 79 98 97 97 97 97 85 44 41 40 43 44 46 39 40 46 38 29 25 26 39 63 54 33 33 49 64 77 90 94 93 97 98 100 98
32 9 11 7 40 68 82 95 81 98 94 97 97 99 94 66 50 60 60 62 59 66 66 50 52 58 54 53 52 58 66 73 92 98 99 95 94 99 100 100 100 98 98
81 55 34 18 26 39 97 94 62 86 98 97 97 98 97 97 81 82 76 74 73 83 87 90 90 85 69 62 66 68 77 83 86 94 98 99 99 100 98 98 95 95 97
86 75 77 54 37 61 78 95 99 92 98 98 98 99 92 96 96 91 84 75 80 97 97 100 99 99 96 98 99 98 99 99 100 100 99 99 99 100 99 91 80 83 83
100 86 100 100 66 78 99 98 98 93 97 97 98 97 97 98 98 98 100 99 100 100 99 100 99 100 100 100 100 100 100 100 100 100 99 100 100 98 79 80 83 86 88
100 100 100 100 99 100 94 98 99 98 99 99 98 97 98 98 98 99 98 98 96 100 100 100 100 100 100 100 100 100 100 100 100 96 89 64 54 75 89 87 91 83 77
98 100 100 99 100 98 98 99 97 99 99 99 99 99 98 98 98 100 99 98 99 99 99 99 99 100 100 100 99 100 100 98 90 67 70 79 96 96 94 90 87 79 72
51 100 100 100 99 100 99 99 99 99 99 99 99 99 99 99 98 100 100 99 99 99 99 100 99 99 100 100 100 99 98 95 74 77 87 96 97 95 90 84 78 66 56
47 56 98 100 99 100 99 99 100 100 100 100 100 99 99 99 99 100 100 100 99 100 100 99 98 98 98 98 98 97 94 84 97 100 99 94 96 89 79 74 66 50 38
86 80 72 91 99 100 100 100 100 100 100 100 100 100 100 100 100 100 100 100 100 100 100 100 100 98 100 100 100 100 100 100 99 92 93 93 87 81 72 58 46 37 42
100 100 90 70 72 93 99 100 100 100 100 100 100 100 100 100 99 100 100 100 100 100 100 100 100 89 74 100 100 96 92 89 95 93 91 89 82 68 51 42 45 52 53
100 100 100 100 98 83 87 100 100 98 100 100 100 100 100 99 99 99 100 99 99 95 91 92 97 90 96 100 100 98 98 99 98 96 91 80 58 46 51 55 56 61 62
66 92 100 100 100 100 100 100 100 100 100 100 97 95 96 96 95 96 94 92 93 96 99 100 100 100 100 100 100 99 99 99 96 80 57 50 56 61 61 63 64 63 62
50 40 47 78 97 97 99 100 100 100 100 100 100 100 100 100 99 100 100 100 100 100 100 100 100 100 100 100 98 98 92 78 59 52 60 66 68 66 69 69 66 66 62

GFSGL_500_rhum_132.txt.gz
RH
95 89 75 63 52 38 46 46 28 30 35 23 24 28 36 64 75 83 70 71 43 24 19 74 97 95 95 96 99 98 96 98 88 91 97 96 90 90 89 87 93 95 100
93 91 86 92 56 41 38 36 31 38 21 22 57 21 37 66 72 87 65 69 42 25 20 35 82 97 98 97 99 98 97 95 90 99 97 95 96 96 96 96 97 97 97
64 67 90 92 83 88 72 55 40 36 34 29 64 35 37 58 76 88 68 70 45 26 22 19 34 91 96 96 97 99 97 93 91 100 97 97 96 96 96 97 97 98 96
71 77 88 88 85 80 62 52 26 21 16 37 52 56 32 59 76 92 70 77 55 29 24 19 18 40 93 97 98 98 97 96 99 98 96 96 96 96 96 97 97 98 98
90 69 80 87 81 78 74 60 33 44 34 20 48 64 44 30 66 91 85 83 60 31 24 17 14 26 58 91 96 97 96 97 98 97 96 96 96 97 97 97 97 97 97
82 56 39 47 56 50 55 47 50 49 46 23 32 59 47 39 51 91 93 84 62 32 25 25 20 18 28 56 70 98 97 97 96 95 95 96 98 97 97 97 96 98 96
66 89 66 45 40 37 44 54 46 53 50 32 16 43 50 36 36 82 90 89 71 38 24 26 26 16 34 22 28 85 98 98 97 98 97 97 97 98 98 98 99 100 100
58 86 53 40 35 28 32 59 61 46 44 39 20 42 99 26 27 59 83 93 81 41 25 24 24 16 22 61 69 90 96 97 98 96 97 97 97 98 98 98 98 98 99
52 47 73 28 14 19 23 29 67 69 53 39 24 38 45 34 7 42 87 96 86 49 26 26 22 16 53 96 98 84 92 94 100 99 98 98 97 98 98 98 98 98 98
36 31 24 25 7 4 15 24 26 28 36 50 32 31 34 22 4 25 86 96 90 59 28 28 23 15 91 97 98 99 100 96 97 97 97 98 98 98 98 98 97 98 98
21 19 14 9 4 2 5 19 22 24 31 48 34 80 49 42 4 8 64 93 97 65 31 29 28 13 82 100 97 99 98 98 98 99 98 98 98 97 98 98 98 98 98
16 14 12 10 5 2 2 12 20 22 23 23 26 17 48 36 10 7 48 99 100 73 34 30 32 18 25 90 94 88 97 97 97 98 98 98 98 97 98 99 98 98 98
13 11 9 9 8 2 2 7 15 19 21 22 14 60 99 93 21 14 40 100 98 85 43 29 34 34 17 28 73 94 96 97 97 97 97 98 98 98 99 99 98 99 95
9 8 11 12 10 5 2 4 8 15 18 20 12 53 70 99 46 43 80 100 97 100 58 35 37 35 35 20 23 92 96 98 94 91 96 97 97 98 98 99 100 98 98
15 22 26 28 14 7 3 4 6 8 14 14 13 14 47 97 98 63 75 100 98 98 90 51 38 33 36 39 40 35 41 76 92 95 94 95 96 96 92 83 84 100 100
60 76 46 43 62 22 14 4 4 5 9 9 16 85 97 99 99 79 67 100 94 97 93 80 43 46 42 44 47 47 43 53 62 62 63 64 70 75 83 93 93 95 99
80 82 95 82 80 79 30 19 4 4 6 6 9 64 58 88 96 68 64 95 99 97 93 98 84 66 81 67 68 76 88 94 98 95 92 94 100 100 100 100 100 100 100
93 99 95 100 100 94 74 19 8 4 5 5 11 76 84 94 98 99 99 95 98 98 97 98 98 99 98 96 88 84 98 99 97 98 98 96 94 99 99 98 100 100 97
96 100 100 100 100 100 92 78 16 6 6 6 11 72 88 74 82 99 99 99 100 99 98 99 98 99 98 97 99 99 98 98 98 98 100 100 100 100 99 100 100 100 100
99 94 100 100 100 100 100 94 75 23 14 8 40 65 89 100 99 99 99 100 100 99 98 99 100 98 99 99 98 98 98 99 99 100 100 100 100 100 100 100 99 99 97
100 100 100 100 100 100 100 100 80 64 40 15 32 67 98 99 99 99 100 99 100 99 99 99 98 100 100 100 100 100 100 99 100 100 100 100 100 100 100 97 97 98 100
100 100 100 100 100 100 100 100 100 90 82 66 78 96 100 100 98 99 99 99 99 99 99 100 98 99 99 98 99 100 100 99 100 100 100 100 100 100 100 100 100 100 100
100 100 100 100 100 100 100 100 100 100 100 100 100 100 100 100 99 99 100 99 99 99 99 100 100 100 99 100 100 100 100 100 99 100 100 100 100 100 100 100 100 100 100
69 98 100 100 100 100 100 100 100 100 100 100 100 100 100 100 100 100 100 100 100 100 100 100 100 100 100 100 100 100 100 100 100 100 100 100 100 100 100 100 99 98 99
52 58 69 99 100 100 100 100 100 100 100 100 100 100 100 100 100 100 100 100 100 100 100 100 100 100 100 100 100 100 100 100 100 100 100 100 100 100 100 100 100 96 84
22 28 51 59 64 94 100 100 100 100 100 100 100 100 100 100 100 100 100 100 100 100 100 100 100 100 100 100 100 100 100 100 100 100 100 100 99 99 99 94 88 75 75

GFSGL_500_rhum_135.txt.gz
RH
93 83 89 96 78 82 83 56 38 43 70 20 28 20 15 11 17 24 36 58 89 88 59 58 35 20 39 87 93 97 92 97 97 98 98 97 94 98 96 93 91 92 95
97 78 75 79 87 93 95 94 86 58 34 31 33 37 35 15 16 24 46 69 95 82 61 64 37 22 23 56 82 99 99 95 95 100 98 96 96 97 99 96 94 88 94
70 79 90 91 82 75 91 96 69 48 38 42 41 33 51 52 36 28 46 69 77 71 72 70 43 23 21 32 72 87 97 96 96 90 97 97 97 97 96 95 94 85 95
70 79 74 70 71 65 75 83 85 45 39 48 42 37 31 37 71 44 43 67 81 89 87 73 53 24 26 20 37 79 98 98 96 98 94 97 97 97 97 97 96 97 97
89 87 72 74 61 68 82 90 92 84 65 50 47 37 38 26 63 82 38 56 83 90 90 78 69 28 26 15 24 36 96 95 97 96 97 96 96 97 98 97 97 97 96
88 88 86 63 64 32 33 63 88 97 87 69 41 29 23 26 48 86 42 48 73 89 90 84 72 32 26 23 19 26 56 92 95 97 96 96 97 99 96 97 97 96 94
100 92 70 67 67 74 46 42 40 82 75 68 53 30 37 24 38 67 72 40 46 79 100 97 75 38 25 24 25 15 19 68 91 93 95 97 97 97 98 97 96 96 98
70 66 67 53 71 67 84 63 38 50 50 52 50 39 36 31 26 77 99 61 28 76 97 100 83 47 26 24 24 13 31 25 52 92 98 96 98 97 98 98 98 98 97
85 80 68 58 57 57 60 58 40 22 52 46 53 55 41 43 22 24 99 55 20 64 93 99 96 53 29 25 21 13 20 58 75 96 98 97 98 98 97 99 97 98 98
58 47 39 37 40 40 39 57 44 21 34 41 59 50 48 47 24 18 89 56 23 42 83 97 99 60 32 25 24 16 40 94 96 100 98 98 98 97 98 98 96 98 98
35 31 28 26 25 28 28 20 34 35 11 41 29 72 58 36 18 36 68 64 32 28 66 95 100 73 34 26 25 16 85 89 95 97 97 97 97 96 96 99 98 98 98
25 23 19 16 15 13 21 22 13 23 17 7 26 30 43 59 24 18 59 94 64 15 40 76 100 83 37 27 26 15 66 94 88 97 97 97 98 98 99 99 99 98 98
21 19 17 14 12 9 10 15 12 10 11 7 7 22 24 38 45 53 86 98 67 15 10 64 100 94 43 33 28 23 19 89 97 98 98 97 97 97 99 98 98 99 99
12 13 13 11 10 7 7 7 8 9 7 6 3 17 21 36 44 70 90 93 86 12 9 52 96 92 57 39 29 31 20 23 93 98 98 97 98 98 98 97 98 98 98
24 16 12 10 8 7 6 6 5 5 3 2 2 12 18 24 32 21 17 90 98 44 13 29 87 91 79 47 34 30 33 23 29 81 94 99 99 98 98 98 98 98 98
63 54 40 30 23 31 21 12 7 3 2 1 2 8 15 19 20 16 84 98 99 46 33 52 100 93 90 76 45 34 36 39 35 34 60 96 94 92 94 96 99 99 96
72 77 61 48 51 64 65 50 50 16 3 1 2 6 12 16 19 24 97 100 96 68 53 52 98 100 96 96 86 50 55 56 62 59 53 49 49 53 54 60 68 88 97
88 91 88 71 90 86 87 82 82 72 15 4 2 4 8 11 16 15 20 75 99 98 82 56 78 97 99 98 96 90 69 77 90 79 87 94 93 93 95 95 97 100 100
94 97 96 77 99 94 91 94 94 89 52 11 8 3 6 7 10 12 28 32 99 98 74 52 75 99 99 98 98 98 97 98 98 95 90 94 98 97 99 100 100 97 93
96 100 95 96 100 100 99 100 100 100 93 57 7 5 5 6 8 21 73 96 99 92 98 100 100 99 99 99 99 99 99 100 100 98 99 100 100 99 99 99 99 100 100
94 100 100 100 100 100 100 100 100 100 100 90 18 5 4 5 6 14 43 100 99 100 99 100 99 98 99 99 99 97 98 98 97 98 99 99 99 100 100 100 100 100 100
65 88 100 100 100 100 100 100 100 100 96 90 56 13 5 5 7 18 66 99 99 99 100 99 99 99 99 99 99 99 98 100 100 100 100 100 100 100 100 100 100 100 100
39 60 88 100 100 100 100 100 100 100 100 100 98 58 27 19 27 79 100 99 99 98 98 98 98 99 100 100 100 100 99 100 100 100 99 99 100 100 100 100 100 100 100
18 35 58 81 99 100 100 100 100 100 100 100 100 100 99 92 86 98 100 100 100 100 100 100 100 100 100 99 100 100 100 99 100 100 100 100 100 100 100 100 100 100 100
29 19 29 53 74 96 100 100 100 100 100 100 100 100 100 100 100 100 100 100 100 100 100 100 100 100 100 100 100 100 100 100 100 100 100 100 100 100 100 100 100 100 100
52 25 22 26 38 65 80 100 100 100 100 100 100 100 100 100 100 100 100 100 100 100 100 100 100 100 100 100 100 100 100 100 100 100 100 100 100 100 100 100 100 99 100

GFSGL_500_rhum_138.txt.gz
RH
91 100 97 99 92 80 81 92 98 88 89 97 73 29 26 27 67 50 26 16 6 30 44 76 87 93 78 54 37 17 30 91 97 92 96 97 98 97 99 94 97 96 93
96 98 100 100 76 74 88 93 92 96 80 57 49 18 17 74 72 46 35 7 6 34 45 64 87 98 69 52 44 21 30 58 78 88 96 98 97 98 97 95 93 96 97
100 97 95 87 79 92 87 88 80 86 95 53 44 32 52 66 40 32 47 22 12 29 35 58 84 91 73 58 49 26 21 36 97 82 90 96 95 97 97 98 92 96 97
87 96 97 80 94 81 75 70 63 63 77 98 66 68 50 36 35 40 50 47 15 26 41 64 86 86 75 60 60 29 23 18 54 41 96 97 93 97 98 98 97 98 98
72 94 96 89 88 72 67 78 64 75 88 98 96 89 54 38 41 40 37 77 64 45 38 59 82 76 87 70 70 38 23 21 19 34 97 98 91 89 92 97 98 98 96
81 78 93 100 99 85 77 75 54 61 50 70 99 99 90 41 42 45 36 43 93 80 58 50 78 91 97 85 84 57 23 24 26 35 65 96 98 99 98 97 97 97 96
100 98 100 100 93 84 75 63 56 43 48 61 46 78 98 71 42 46 39 34 40 80 95 51 48 82 90 94 88 61 28 24 28 22 26 94 98 97 98 97 97 97 98
100 100 100 100 98 86 64 59 62 62 64 47 53 24 82 87 82 64 39 31 32 46 93 89 54 71 94 100 93 71 38 23 28 20 18 29 95 98 100 99 98 97 98
100 100 100 100 100 73 57 50 52 49 48 63 45 35 28 60 57 67 37 27 19 33 67 97 54 59 74 97 95 80 51 24 20 15 34 38 48 97 97 97 97 98 96
72 66 75 91 95 80 43 32 31 30 34 36 52 44 32 45 52 46 51 38 42 34 36 92 81 53 77 98 94 87 64 28 25 14 21 46 81 89 98 97 98 96 98
32 36 30 25 26 28 31 31 30 28 27 30 37 48 38 28 49 48 50 46 43 44 28 68 76 54 77 100 95 86 74 29 27 18 58 92 92 95 98 97 98 98 98
18 18 18 17 17 16 18 21 20 19 19 18 21 25 20 21 24 43 42 55 48 43 57 68 84 82 56 84 87 95 86 31 29 21 42 91 93 98 99 98 98 98 98
19 19 18 14 13 12 14 14 13 13 16 16 16 14 18 17 20 29 15 58 59 40 24 37 83 67 37 39 75 95 93 38 29 29 24 82 88 97 96 98 97 97 98
23 22 17 15 13 12 10 9 10 8 9 13 13 10 9 9 15 14 17 36 80 44 17 52 99 100 54 13 57 87 93 53 29 34 22 45 92 90 98 96 95 98 98
40 37 36 24 18 14 11 10 9 10 7 8 11 10 8 7 10 12 10 14 31 69 45 74 96 97 60 11 31 69 85 75 32 35 34 24 64 98 98 97 97 97 98
46 53 52 46 40 36 32 22 10 9 7 6 6 8 7 7 7 10 3 9 23 63 60 91 100 99 86 14 21 57 88 89 56 35 39 37 37 73 97 97 99 100 99
68 83 83 77 72 64 58 49 42 45 56 42 10 5 5 5 5 4 2 6 21 36 68 96 60 84 92 32 20 61 97 100 95 65 48 42 42 43 59 95 100 100 97
77 92 96 88 84 80 80 65 62 59 71 59 63 34 6 4 3 2 2 4 16 64 61 31 38 58 87 32 44 98 100 100 99 99 79 59 58 63 66 66 69 76 86
63 58 90 87 84 77 60 71 78 77 84 95 87 73 63 12 3 2 2 6 15 22 26 55 97 98 85 73 76 78 94 97 99 99 97 89 82 87 89 94 98 100 100
24 50 61 88 92 79 88 82 85 80 79 90 94 99 75 38 13 4 2 5 10 17 19 98 99 100 99 100 95 87 95 91 98 98 98 98 99 100 100 100 100 100 100
16 22 43 64 87 88 100 98 93 89 100 99 100 100 100 56 13 8 6 4 7 13 26 100 100 100 100 93 97 98 74 100 99 98 98 98 98 100 100 100 96 100 100
30 19 24 34 63 91 94 100 100 100 99 100 100 100 100 78 19 7 10 7 5 9 12 19 71 70 99 100 100 100 100 100 99 99 100 99 99 100 100 100 100 100 100
42 42 31 20 28 64 100 98 100 100 100 100 100 100 100 100 92 27 14 8 7 8 24 63 98 90 91 100 100 99 100 99 100 100 100 100 99 99 99 99 100 100 100
58 51 47 41 20 30 77 100 100 100 100 100 100 100 100 100 100 100 71 62 49 47 52 94 100 100 100 100 100 100 100 100 100 100 100 100 100 100 100 100 100 100 100
35 39 46 50 40 25 35 86 100 100 100 100 100 100 100 100 100 100 100 100 96 94 92 100 100 100 100 100 99 99 99 100 100 100 100 100 100 100 100 100 100 100 100
32 49 66 77 56 34 36 38 80 100 100 100 100 100 100 100 100 100 100 100 100 100 100 100 100 99 100 100 100 100 100 100 100 100 100 100 100 100 100 100 100 100 100